GFSMA_con_mucape_000.txt.gz
CAPE
853 743 728 864 871 746 747 688 677 616 382 412 425 449 443 505 642 677 599 881 2158 2117 1780 1835 1593 1891 1186 845 749 1246 1111 808 746 777 768 617 857 743 765 457 413 531 671
1005 902 811 759 643 618 557 684 622 426 178 194 146 170 249 254 338 381 477 657 1175 2298 2449 2113 1995 1830 1886 1300 998 1250 1246 1189 1262 1125 1346 1556 1227 1188 1131 826 480 372 835
1211 1175 927 785 620 510 394 341 410 382 308 147 72 41 24 72 182 216 449 709 854 1259 1864 2639 2560 2115 1844 2056 1578 1677 1934 1699 1929 1615 1549 1510 1498 1556 1629 1409 1143 1175 1382
1271 1258 1007 612 572 473 448 440 400 294 224 134 94 124 86 103 166 191 309 466 790 1078 1527 1767 2539 2344 1937 1665 1991 2006 2003 1962 1770 1894 1996 1760 1646 1710 1573 1497 1588 1605 1584
978 844 747 690 610 586 570 473 339 370 289 206 179 229 143 186 210 249 281 312 347 624 769 1092 1851 2038 1769 1635 1895 2086 1874 2040 2174 2059 1939 2244 2087 1914 1797 1673 1888 1944 1829
961 679 710 662 760 546 470 336 338 303 278 268 273 191 89 62 112 163 187 298 380 458 585 965 1815 1654 1777 1843 1621 1811 1959 2039 1752 2089 2003 2176 2183 2090 1910 1730 1660 1593 1729
933 913 718 649 385 358 245 329 310 294 203 218 151 99 29 16 10 2 42 162 0 2 465 1077 1437 1735 1556 1650 1874 1814 1786 1904 2024 1949 1996 1971 2108 2232 2097 1809 1703 1659 1535
998 865 493 279 341 307 136 99 126 141 210 250 134 7 9 35 59 3 16 12 0 0 0 102 417 482 728 1187 1288 1495 1753 1790 1994 2192 2072 1889 2042 1976 2002 1956 1788 1732 1628
811 536 373 300 213 13 17 13 19 80 178 233 218 124 1 1 0 0 4 0 0 0 0 0 6 42 284 516 478 555 727 1071 1306 1700 1858 1835 1782 1847 1788 1971 1780 1613 1447
749 465 6 7 3 1 19 2 112 183 190 63 141 147 56 94 21 2 0 0 0 0 0 0 0 1 67 159 26 159 326 516 637 797 1105 1665 1509 1742 1895 1923 1961 1694 1478
984 0 0 0 15 79 11 0 26 44 76 69 14 7 0 0 12 0 0 0 0 0 0 0 0 0 0 0 0 0 0 48 230 561 783 756 938 1660 1928 2048 2227 2049 1897
74 0 0 0 42 26 0 0 0 0 0 28 78 22 1 0 0 0 0 0 0 0 0 0 0 0 0 0 0 0 0 0 0 0 7 348 788 854 1116 1941 2022 2223 2302
0 0 0 0 5 0 0 0 0 0 0 9 43 12 2 0 0 0 0 0 1 0 0 0 0 0 0 0 0 0 0 0 0 0 0 0 140 460 795 1400 1760 2007 2183
0 0 0 0 0 0 0 0 0 0 0 10 46 28 0 0 0 0 0 0 0 0 0 0 0 0 0 0 0 0 0 0 0 0 0 0 0 9 168 393 869 1188 1376
0 0 0 0 0 0 0 0 0 0 0 0 0 18 2 35 53 17 1 0 0 0 0 0 0 0 0 0 0 0 0 0 0 0 0 0 0 0 5 22 56 158 604
0 0 0 0 0 0 0 0 0 0 0 0 0 0 28 57 82 51 30 5 7 0 0 0 0 0 0 0 0 0 0 0 0 0 0 0 0 0 3 4 0 23 33
0 0 0 0 0 0 0 0 0 0 0 0 32 49 42 52 62 72 67 34 22 7 17 0 0 0 0 0 0 0 0 0 0 0 0 0 0 0 0 1 2 0 0
9 0 0 0 0 0 0 0 0 0 0 11 46 45 69 62 45 54 66 56 38 31 45 1 0 0 0 0 0 0 0 0 0 0 0 0 0 0 0 0 0 0 0
0 0 0 0 3 0 0 0 0 0 0 3 31 46 56 56 27 14 0 13 44 51 64 42 3 0 0 0 0 0 0 0 0 0 0 0 0 0 0 0 0 0 0
0 0 0 0 0 0 0 0 0 0 0 11 41 69 37 28 16 7 0 0 22 30 51 35 14 4 3 0 0 0 0 0 0 0 0 0 0 0 0 0 0 0 0
46 31 1 0 0 0 0 0 0 8 22 71 80 51 21 18 38 40 32 40 0 20 49 28 16 7 1 0 0 0 1 0 0 0 0 0 5 8 16 5 0 1 0
274 133 68 8 9 4 12 0 30 44 89 93 78 25 0 4 8 10 31 68 100 122 150 79 24 1 24 23 1 0 2 2 5 2 13 0 0 0 14 7 0 23 0
290 124 100 39 39 93 79 42 54 82 82 64 28 6 10 0 17 9 0 8 54 93 155 368 26 18 43 1 6 10 9 13 28 0 1 0 0 0 22 10 0 1 0
21 48 95 102 84 171 184 122 159 99 60 75 52 27 11 10 13 1 0 13 14 23 20 0 0 0 3 8 17 35 15 29 15 13 0 0 0 0 0 16 0 1 2
80 104 186 191 147 173 210 240 90 164 65 37 54 29 6 6 6 0 0 0 0 0 0 0 0 0 0 0 0 1 0 25 24 0 0 0 0 0 0 0 0 0 3
339 195 189 208 146 194 246 127 127 94 82 41 1 0 0 0 0 0 0 0 0 0 0 0 0 0 0 0 0 3 46 14 0 0 0 0 2 0 0 0 0 1 81

GFSMA_con_mucape_003.txt.gz
CAPE
1965 1918 1646 1882 1929 1692 1506 1450 1427 1339 1086 761 786 754 674 787 915 913 1237 1240 1448 1832 1971 2046 1779 1660 1305 981 1282 1520 1200 1142 892 1343 955 1160 1052 844 761 497 504 468 449
2038 2650 1824 2084 1530 1527 1217 1305 1271 1044 827 805 527 584 528 454 675 827 714 1209 1108 1495 1957 2176 2203 1888 1636 1590 1170 920 1735 1814 1807 1419 1619 1670 1434 1296 1042 754 683 431 826
2306 2268 2307 2182 1578 1258 1207 1117 1099 788 633 479 513 438 583 530 446 888 768 912 1184 1333 1712 1985 2760 2677 1909 1706 1770 1970 2031 1967 2141 1917 1757 1684 1682 1725 1569 1492 1539 1177 1051
2277 2465 2546 2185 1350 1241 961 1062 969 806 773 580 541 607 538 418 699 809 784 821 713 933 1283 1814 1810 2505 2622 1284 1538 1676 1885 1915 2219 2258 2026 1917 1870 1879 1813 1833 1834 1560 1493
1917 2262 2435 1958 1378 1256 1419 1043 820 955 780 628 569 448 295 346 527 430 797 912 940 1003 829 979 1755 1602 1785 1503 2078 1822 2043 2050 1658 1875 2262 2327 1893 1904 1823 1836 1722 1649 1767
1611 1814 1767 1527 1362 1397 1105 959 1049 947 878 794 478 319 305 259 249 375 499 293 56 660 1198 1591 1615 1616 1703 1578 1692 1917 2124 2060 1958 1969 2043 1949 2255 2182 2058 1909 1810 1756 2000
1758 2016 1917 1659 1484 1184 1062 1063 952 903 463 590 535 93 150 204 100 84 107 3 0 0 91 622 1220 1363 1384 1748 1955 1768 1849 2033 2085 2099 1993 2098 1957 2079 2208 1972 1798 1795 1781
1998 1974 1722 1373 1139 757 998 860 902 535 496 594 371 199 0 140 110 21 0 0 0 0 0 33 187 521 864 1070 1067 849 1021 1138 1442 1919 1984 1879 1795 1967 1840 1970 1848 1778 1720
2026 1756 1453 1098 1033 600 164 538 425 637 287 542 573 251 5 7 0 4 11 0 0 0 0 0 14 91 35 0 31 121 261 813 1075 1244 1430 1838 1740 1643 1668 1768 1705 1799 1718
1661 1473 1351 720 762 311 468 319 291 599 700 223 329 398 266 208 3 0 0 0 0 0 0 0 0 0 0 0 0 0 0 42 98 234 738 1191 1284 1574 1693 1739 1620 1549 1741
1525 1004 643 547 576 435 464 187 612 471 398 172 127 217 115 42 54 0 0 0 0 0 0 0 0 0 0 0 0 0 0 0 0 0 0 22 202 873 1144 1337 1814 1847 1777
888 891 302 498 754 619 322 128 325 289 294 328 349 208 25 1 0 1 2 1 0 0 0 0 0 0 0 0 0 0 0 0 0 0 0 0 0 5 246 863 1119 1665 2060
976 1037 301 444 543 567 166 115 205 207 215 189 480 104 104 35 34 35 39 18 4 0 0 0 0 0 0 0 0 0 0 0 0 0 0 0 0 0 0 22 248 911 1287
833 310 308 373 550 177 17 60 28 9 135 157 400 278 120 120 107 115 99 63 26 9 4 0 0 0 0 0 0 0 0 0 0 0 0 0 0 0 0 0 1 145 552
476 296 297 378 244 0 14 95 0 16 117 251 241 428 257 134 166 173 205 99 77 32 24 8 0 0 0 0 0 0 0 0 0 0 0 0 0 0 0 0 0 2 43
327 323 311 200 132 32 25 165 15 3 49 11 72 398 500 213 294 591 335 157 97 71 22 24 24 1 0 0 0 0 0 0 0 0 0 0 0 0 0 0 0 0 2
438 338 337 189 169 147 139 204 251 37 5 100 372 449 509 595 279 283 334 286 143 113 106 1 14 31 27 80 84 82 25 0 0 0 0 0 0 0 0 0 0 0 0
297 354 347 302 295 256 281 286 197 0 80 142 178 402 397 281 554 426 270 286 162 209 125 108 75 42 111 135 170 220 125 0 0 0 0 0 0 0 0 0 0 0 0
84 176 288 393 350 330 449 521 354 112 242 299 302 391 424 526 515 231 263 140 94 289 169 137 85 56 74 147 188 275 240 121 19 0 0 0 0 0 0 0 0 0 0
82 85 258 562 384 444 414 294 120 240 378 329 434 488 576 562 422 299 202 229 257 234 161 151 112 76 110 336 229 235 120 45 20 4 1 0 0 0 0 0 0 0 0
11 0 34 338 368 294 187 233 308 444 691 687 652 858 708 612 179 116 71 196 220 187 115 93 109 88 121 136 241 161 146 80 120 26 14 8 8 5 1 5 6 1 0
0 101 77 186 325 182 60 24 161 581 811 961 936 728 771 128 84 23 16 44 91 195 258 214 99 228 529 353 276 278 142 41 14 22 64 24 15 5 8 15 7 0 0
63 12 198 165 546 474 154 83 82 465 756 880 942 799 617 181 58 119 17 0 17 18 78 308 335 380 379 399 358 151 23 26 18 19 53 22 23 27 11 2 3 0 0
52 329 381 535 491 626 255 150 176 402 496 734 609 534 417 323 180 48 57 38 79 132 181 106 135 173 144 56 14 24 30 39 27 32 127 73 46 15 0 3 0 0 0
204 294 173 370 457 526 113 98 151 238 282 213 542 383 121 102 20 0 0 4 32 58 7 0 0 0 0 0 0 2 0 24 26 38 5 4 0 0 0 0 0 0 0
111 105 229 456 231 513 101 102 106 84 160 115 339 77 42 0 0 0 0 0 29 52 4 0 0 0 0 1 0 12 6 20 18 8 0 0 0 0 0 0 0 12 17

GFSMA_con_mucape_006.txt.gz
CAPE
1939 1852 1756 1796 1657 1591 1399 1398 1457 1507 1446 1116 983 531 197 170 448 458 631 1600 1277 1530 2059 1896 1753 1866 1505 1409 1661 1461 1380 1077 795 724 759 916 1079 1056 729 574 498 907 818
1886 1478 1535 1368 1476 1667 1320 1365 1585 1601 1391 999 432 299 144 70 169 482 308 721 1327 1231 1678 2128 2078 2077 1826 1718 1177 1433 1830 1893 1950 1327 1616 1905 1840 1775 1009 683 693 702 857
2071 1819 1537 1430 1414 1596 1938 1687 1573 1427 993 582 288 90 214 208 242 367 420 223 770 1645 1578 1802 2444 2607 2330 1812 1886 1870 1873 2171 2360 2086 2152 2103 2031 1757 1756 1614 1381 1335 1428
1912 1900 1588 1399 1255 1374 1484 1460 1413 1025 547 303 102 134 189 172 259 309 372 479 158 180 1660 1837 1654 2182 2611 1589 1692 1839 2030 2014 2131 2247 2327 2183 2094 2000 2116 1952 1971 1921 1745
1715 1910 1590 1460 1618 1355 1630 1422 1042 672 260 64 29 15 123 145 150 108 459 720 862 616 292 1924 1307 1365 1529 1543 2189 2262 2294 2239 1893 1980 2201 2299 2213 1954 1828 1955 1944 1991 2016
1843 1857 1620 1530 1586 1596 1259 1030 941 402 349 60 9 10 111 87 111 194 272 117 141 519 841 1489 1194 1466 1498 1409 1613 2404 2520 2165 2255 1951 1816 2080 2175 2338 2081 1986 1939 1966 1891
1945 2011 1554 1673 1680 1515 976 609 298 143 10 67 12 20 69 122 64 52 39 0 0 4 232 964 1192 1336 1674 1434 1447 1505 1589 1834 2070 2335 2229 1993 1894 2081 2167 2084 2039 2062 1980
2306 1934 1929 1728 1531 371 577 216 158 22 16 44 63 18 14 76 66 31 0 0 0 0 0 56 445 963 1043 1175 763 726 543 877 1173 1450 1726 2103 2038 1841 1782 1826 1801 1913 1946
2436 2352 2136 1196 988 160 2 159 162 33 15 229 264 33 11 12 6 38 29 0 0 0 0 0 3 7 0 12 21 59 41 190 277 642 1124 1337 1551 1813 1882 1678 1649 1644 1710
2299 2176 1775 1094 183 0 59 157 32 85 203 23 28 24 117 178 21 17 36 13 0 0 0 0 0 0 0 0 0 0 0 0 0 0 6 82 375 813 1389 1679 1641 1631 1581
2242 1445 1695 531 176 88 308 170 87 164 44 23 16 31 48 16 8 6 8 18 20 20 1 0 0 0 0 0 0 0 0 0 0 0 0 0 0 0 115 652 1381 1468 1584
1574 1646 1629 687 192 90 301 214 60 71 60 66 62 105 21 18 21 11 8 10 16 13 13 3 2 0 0 0 0 0 0 0 0 0 0 0 0 0 0 0 71 648 1194
741 1316 1793 869 296 432 260 108 57 6 54 42 107 36 38 37 41 37 32 28 32 44 35 24 37 2 0 0 0 0 0 0 0 0 0 0 0 0 0 0 0 0 166
365 565 1715 732 359 284 263 32 0 8 26 33 35 117 39 43 37 47 43 62 49 48 64 106 62 19 8 9 2 0 0 0 0 0 0 0 0 0 0 0 0 0 0
361 1054 1165 699 196 326 82 33 0 10 8 12 12 38 119 34 39 58 77 95 76 36 27 38 43 50 30 43 37 3 0 0 0 0 0 0 0 0 0 0 0 0 0
1473 945 848 365 254 190 61 96 9 7 6 0 0 4 65 33 69 82 92 94 73 41 13 20 8 31 46 45 97 60 60 23 0 0 0 0 0 0 0 0 0 0 0
1627 1121 881 401 302 225 148 188 129 0 1 2 0 62 211 420 193 74 72 53 64 80 82 7 12 24 50 120 100 144 127 86 69 40 1 0 0 0 0 0 0 0 0
1400 1129 751 443 672 218 209 303 189 7 11 0 32 165 324 245 358 429 188 204 167 179 127 204 183 55 349 68 79 225 207 87 97 75 23 0 0 0 0 0 0 0 0
904 468 433 674 713 561 292 345 386 321 116 32 108 245 311 332 401 207 235 102 113 109 141 122 133 131 71 46 181 478 463 445 114 160 51 24 0 0 0 0 0 0 0
401 117 286 332 173 447 640 622 349 427 205 70 220 324 492 506 406 384 294 317 323 212 285 117 166 99 140 205 186 97 95 106 68 115 103 17 5 0 0 0 0 0 0
382 0 93 72 135 490 198 570 374 231 248 302 371 478 622 739 347 320 173 475 331 197 144 133 114 97 50 105 298 107 96 159 363 377 171 26 5 8 7 2 3 4 0
537 337 179 107 12 147 0 0 122 309 385 551 710 892 1004 873 538 203 60 12 51 119 126 86 74 114 287 272 301 183 213 153 194 309 256 9 56 100 38 8 4 0 0
871 556 387 261 171 399 30 5 33 172 389 667 978 987 794 417 341 570 223 70 15 2 6 122 258 229 430 435 370 483 348 236 133 8 149 133 131 67 82 20 0 0 0
1122 888 503 337 270 409 296 198 60 420 835 1084 966 770 631 501 537 500 465 256 173 186 212 169 188 135 152 141 60 29 25 54 98 47 473 279 92 33 42 32 1 0 0
1013 853 749 643 608 716 488 330 211 585 852 992 703 545 430 662 249 112 64 112 157 145 21 2 0 0 0 0 0 5 5 32 50 43 132 124 53 67 20 0 0 0 0
866 677 755 734 596 1297 579 400 167 670 1016 573 276 437 211 117 59 55 4 52 63 89 74 1 22 16 1 9 1 25 13 35 64 69 61 91 58 11 0 0 0 1 0

GFSMA_con_mucape_009.txt.gz
CAPE
2690 2086 2459 1524 1979 2025 1933 1765 1796 1509 1349 1610 1110 494 282 64 24 60 360 2145 1694 1625 2126 2004 2039 1933 1957 1620 1915 1778 1651 1109 677 661 964 616 809 970 1147 934 608 599 968
2447 1685 2884 2086 1908 1718 2675 1997 2328 1555 1944 1382 885 284 118 124 147 214 178 1392 2090 1724 1731 2250 2201 1987 1939 1839 1665 1862 1825 1870 1245 985 1057 1519 1667 1313 1095 765 607 569 873
1825 2220 2126 2011 1294 2251 2028 2087 1960 2073 1538 329 82 26 65 77 134 250 210 143 1479 2167 1856 1881 2802 2758 2614 1998 1947 1838 2245 2339 2191 2182 2142 2114 1958 2138 1984 1686 1237 1233 1352
2304 2352 1788 1734 2009 1698 2096 1918 1795 841 183 46 19 26 23 49 163 150 276 210 195 367 2228 2374 1692 2123 2204 1622 1861 2064 2185 1981 2337 2239 2393 2307 2374 2287 2062 2005 1927 1839 1696
2649 2130 1873 1955 1908 2117 1318 1563 1312 1462 45 10 8 4 28 72 59 118 100 294 476 521 349 2193 2262 1668 1542 1673 2006 1904 2004 2153 1922 1963 2105 2400 2350 2218 2138 2162 2191 2075 2081
2371 2155 1799 1788 2122 1698 1437 1353 994 202 78 57 3 0 45 113 54 74 112 30 32 241 659 801 1533 1429 1696 1499 1400 1922 2347 2301 2312 2141 1883 2024 2242 2296 2277 2026 1944 2017 2029
2681 1964 2073 2139 1799 2145 1729 441 167 115 16 82 0 61 48 69 58 45 19 0 0 1 92 519 857 1213 1704 1618 1486 1513 1559 1589 1538 1657 2103 1996 1820 1913 2193 2119 2094 2081 2118
2493 2448 2670 1567 1599 831 495 191 94 15 16 114 35 13 25 207 420 35 3 0 0 0 3 35 410 855 1172 1188 954 257 388 580 1007 1291 1351 1318 1810 1861 1874 1985 1995 2013 2069
2183 2470 2213 2187 1462 503 0 266 134 29 7 61 205 23 21 59 139 119 37 2 0 0 0 0 0 0 0 23 538 3 0 46 157 222 365 779 1012 1351 1662 1810 1757 1807 1852
2164 2247 2300 1169 924 55 542 129 27 88 96 20 30 9 32 44 5 29 98 30 0 2 0 0 0 0 0 0 0 0 0 0 0 0 0 1 29 230 507 900 1580 1610 1670
1595 1393 1269 963 348 0 189 320 39 168 205 6 5 15 368 7 6 0 6 31 44 45 22 1 0 0 0 0 0 0 0 0 0 0 0 0 0 0 0 3 185 660 1585
1611 1425 955 1003 358 34 235 247 168 101 68 159 73 110 23 12 25 24 13 21 25 30 48 30 21 18 4 1 0 0 0 0 0 0 0 0 0 0 0 0 0 5 72
949 2587 1791 1420 653 475 356 254 218 196 75 39 86 50 182 37 26 21 23 23 36 57 70 62 149 109 4 0 5 0 0 0 0 0 0 0 0 0 0 0 0 0 0
919 2825 1735 1309 810 342 410 335 51 13 191 46 12 434 11 48 56 31 38 106 109 65 113 614 246 120 48 1 4 0 0 77 0 0 0 0 0 0 0 0 0 0 0
904 880 1505 1203 898 231 401 205 34 337 63 73 118 507 138 17 17 22 47 418 274 82 100 100 75 322 125 72 86 24 8 18 0 0 0 0 0 0 0 0 0 0 0
2445 2066 1888 1389 817 759 878 538 444 377 215 41 4 317 512 33 32 32 124 72 53 38 33 57 65 216 346 69 99 97 57 110 34 3 0 0 0 0 0 0 0 0 0
3271 2343 2432 1923 1007 813 759 941 500 174 413 621 521 173 380 688 103 19 26 41 17 57 20 16 21 134 1119 741 469 442 169 430 117 43 34 0 0 0 0 0 0 0 0
3527 2689 2351 1862 1081 588 202 871 548 365 128 175 209 644 337 199 1205 1485 168 1236 582 316 90 524 250 23 483 721 1063 1097 304 54 110 44 39 3 0 0 0 0 0 0 0
3692 2478 2362 2035 1102 1005 1051 1098 1050 579 324 392 338 753 572 1129 1280 602 1007 474 278 408 290 45 68 86 79 26 180 765 650 278 231 49 15 12 10 0 0 0 0 0 0
3932 2687 2284 1722 1313 1026 1019 939 978 936 1151 962 861 824 913 1013 1145 1285 1029 1444 1008 565 343 182 102 97 160 190 395 122 124 45 67 89 73 15 45 61 2 0 0 0 0
3669 2501 2123 1427 1209 599 389 1089 668 490 933 842 649 566 891 1009 669 733 838 808 1253 465 252 178 161 144 166 165 191 207 244 213 91 161 130 342 320 317 134 28 77 34 1
3065 2265 1224 721 400 146 118 156 489 192 1133 1130 920 1275 1351 708 449 207 227 181 144 478 584 159 177 160 384 355 142 127 315 161 13 215 321 200 101 102 126 311 164 16 0
2492 1810 986 615 486 595 440 328 202 273 738 1117 1487 1178 1086 793 344 437 464 250 175 88 67 354 561 555 511 533 507 550 403 208 69 13 142 48 138 333 506 191 48 1 0
2257 1519 1049 925 823 733 476 294 217 294 791 907 1405 1710 1808 1554 1036 1019 814 418 556 949 651 264 446 654 579 275 101 55 160 143 70 166 335 207 269 478 468 548 44 0 0
1978 1059 1167 973 949 1111 500 357 220 642 831 1511 1645 1642 1311 1373 682 294 274 192 214 361 215 50 1 0 0 0 0 0 4 12 18 36 79 199 237 223 315 128 90 0 0
1851 1196 1000 1076 1133 1316 624 315 280 438 778 1261 1428 1770 689 253 199 155 83 103 229 339 218 199 168 1 19 22 0 18 53 71 53 51 150 189 45 32 45 32 23 9 0

GFSMA_con_mucape_012.txt.gz
CAPE
2494 967 2632 2794 1974 1138 2174 2634 1990 2510 2370 1572 1266 984 214 242 243 180 1705 2196 2269 1983 2282 2166 2067 2050 2075 1829 1831 1868 1653 1171 854 1101 1417 1495 1593 1463 1327 1411 1370 1142 1061
3257 3031 3016 2333 1871 2012 2781 2332 2649 2522 2640 1874 1602 500 141 297 360 411 444 2011 2557 2357 2771 2340 2504 2314 2031 1721 2021 2051 1886 2020 1759 1347 1410 1629 1472 1646 1806 1808 1522 1159 1067
3352 3331 2849 2857 2332 2192 2382 2123 1628 2491 892 1362 1015 292 309 289 581 227 355 603 1946 2662 2660 3004 2575 2411 2526 1991 1993 2311 2686 2227 2234 2090 1854 1773 2037 1934 2060 1947 1663 1267 1235
3043 3457 2817 1418 2226 1620 2175 1812 1945 1845 499 605 402 535 154 268 230 391 365 147 1032 1336 2382 2616 2584 2383 2260 1929 1969 2266 2103 2248 2613 2449 2321 2199 2349 2435 2322 2093 2008 1846 1741
3353 2662 2769 1675 2534 2693 1926 2040 1749 1723 1119 556 55 199 263 343 305 60 257 274 393 1072 1421 1976 2349 2339 2088 1641 2018 2486 2187 2068 1830 1979 2133 2099 2301 2157 2209 2142 2111 2090 2059
2968 2680 2722 2816 2871 2732 1120 2082 989 757 629 394 83 15 386 406 192 561 87 77 45 380 1294 1198 1663 1621 1964 1583 1604 1764 1969 2403 2181 2064 2018 1964 1985 2140 2207 2183 2095 2008 2128
3232 3021 3013 2431 2316 2053 882 962 1057 598 807 536 367 198 472 374 443 347 0 0 1 19 273 419 1069 1344 1472 1793 1360 1449 1456 1542 1639 2046 2002 2060 2060 2047 1963 1959 2116 2119 2079
3685 2642 2717 2936 2207 2093 1783 1108 625 663 517 912 261 334 121 269 173 11 10 0 0 2 18 200 646 508 1280 1215 526 263 309 582 1027 1340 1482 1455 1540 1919 1892 1720 1755 2016 2084
2827 1899 2737 2535 2539 1312 1300 1307 966 671 339 960 370 400 348 135 357 225 110 0 0 0 0 60 0 0 0 694 240 0 0 0 33 84 253 639 817 946 1179 1245 1766 1767 1701
3084 3279 3073 2881 2248 1263 1846 1239 847 386 1004 463 597 225 233 103 157 218 282 70 47 0 5 0 11 0 0 7 0 0 0 0 0 0 0 0 0 9 109 387 824 1336 1606
2962 2743 3084 2585 1758 777 1837 927 858 583 824 701 307 677 732 532 246 26 59 85 87 71 68 3 0 0 3 0 0 0 0 0 0 0 0 0 0 0 0 0 0 28 331
2570 2874 2266 2137 1686 911 1487 1082 938 725 496 862 608 785 555 294 71 236 128 55 51 101 94 54 79 44 5 7 0 0 0 0 0 0 0 0 0 0 0 0 0 0 0
2161 2603 2285 1879 1500 1250 1769 1304 1429 1062 728 554 1010 493 233 165 282 260 73 77 57 107 109 118 171 181 59 14 0 0 0 0 0 0 0 0 0 0 0 0 0 0 0
1701 1972 1854 1707 1843 1138 1161 1308 1068 450 748 636 234 622 509 413 317 88 169 205 44 56 57 282 158 121 247 97 79 21 0 7 0 0 0 0 0 0 0 0 0 0 0
2829 1762 1720 2108 1474 1266 1279 1496 440 486 820 1036 924 670 457 174 218 277 422 199 172 58 57 62 116 204 86 40 56 22 42 8 194 0 0 0 0 0 0 0 0 0 0
2328 2327 2116 1883 1536 1180 864 1108 395 910 572 635 501 686 598 360 417 387 128 140 228 125 83 139 76 144 219 204 158 69 105 111 42 1 0 0 0 0 0 0 0 0 0
2495 2463 2168 1822 1597 1127 1119 914 601 388 569 541 477 604 507 820 487 336 669 420 178 160 166 31 78 88 105 136 151 159 382 177 84 57 42 23 2 0 0 0 0 0 0
3017 2365 2265 2000 1646 752 1123 609 371 213 728 655 627 628 477 370 1010 934 915 629 677 827 319 237 239 160 429 603 692 152 355 59 58 43 51 23 11 6 6 0 0 0 0
3099 2320 2370 2038 1742 772 983 651 478 570 603 241 444 564 404 742 1215 979 924 770 560 574 620 190 109 123 112 36 36 48 29 214 354 100 24 13 7 4 5 2 0 0 0
3278 3063 2362 2099 1875 928 757 552 737 820 723 437 831 736 676 651 1145 1156 927 1179 1055 942 397 49 113 177 326 179 271 95 33 143 69 23 34 12 3 8 13 5 1 0 0
3870 3494 2930 2296 2041 1031 710 890 897 846 897 649 1245 806 839 1181 886 1058 1214 1011 1149 730 201 25 7 32 53 39 80 52 43 50 39 49 38 9 0 0 0 0 5 7 0
4220 3741 3141 2232 1909 1016 480 396 732 832 995 686 1001 1194 932 716 453 425 218 163 624 596 134 74 42 21 82 152 171 89 40 8 0 0 60 0 0 0 0 0 0 0 0
4194 3698 3328 2319 1834 1074 424 244 295 695 459 644 1384 1191 1067 545 964 1197 413 168 210 173 84 50 37 71 155 241 151 76 61 50 0 0 0 0 0 2 7 19 49 58 65
3985 3478 2717 2576 1892 1324 556 344 344 365 390 702 980 1305 1078 837 1165 1157 1065 1007 477 265 214 118 110 130 216 273 184 47 1 0 0 0 1 6 10 8 1 5 52 38 36
3069 3033 2637 2170 1547 1107 777 778 420 310 278 597 932 844 1033 1278 1147 820 690 722 311 604 494 223 153 206 166 12 23 3 0 0 0 0 27 4 5 25 21 2 0 0 0
3192 2731 1723 2080 1453 905 836 592 620 488 304 766 1099 981 577 803 842 731 365 367 370 390 577 537 240 72 74 47 2 13 11 12 15 46 31 80 24 0 0 0 0 0 0

GFSMA_con_mucape_015.txt.gz
CAPE
922 748 799 887 646 512 730 881 1020 1160 1166 1065 926 383 2 3 40 882 1060 2526 2327 2546 2775 2276 2079 2052 1873 1650 1754 1624 1417 968 900 1338 1247 1163 1238 1374 1415 1112 1202 1247 1247
1506 1396 1421 1236 1249 1102 1353 1550 964 871 1210 799 1057 872 12 30 22 256 1090 1410 2050 2123 2326 2656 2312 2118 2153 1810 1951 1906 1940 1639 1184 888 1462 1887 1605 1603 1680 1265 1239 1040 1195
1582 1566 1251 1564 969 1525 1601 945 1024 991 413 342 182 130 6 15 14 0 88 1118 1413 1916 2771 2573 2398 2346 2531 2013 1853 2127 2484 2385 2067 1804 1593 1547 1731 1737 1940 1794 1833 1633 1389
1607 1753 1603 1186 951 1022 1172 1099 1165 944 518 121 0 2 0 15 20 20 50 826 1099 1172 1711 2082 2185 2136 2057 1741 2021 2109 2223 2550 2426 2363 2226 2090 1985 2188 2196 2248 2007 1825 1691
1718 1237 1692 1378 1126 1221 980 1033 658 455 30 0 0 0 9 3 31 41 98 22 191 909 1165 1631 1860 1827 1499 1397 1716 1927 2060 2393 2335 2444 2362 2272 2217 2170 2007 2094 2128 2113 2078
1932 1479 1135 1414 1322 1302 753 489 353 100 0 0 0 0 0 6 12 34 19 2 296 1114 986 796 860 1029 1583 1492 1403 1822 1931 2168 2224 2090 2016 1763 2068 2227 2320 2166 2064 1974 1729
1507 1496 1607 1351 1697 1183 641 483 139 0 0 0 0 9 16 32 9 15 11 10 4 2 612 603 859 919 992 1652 1565 1488 1622 1357 1379 1717 1613 1520 1546 1383 1575 1940 1935 2117 2090
1786 1528 1278 1311 1428 1192 595 140 4 0 0 30 0 0 24 25 39 14 7 3 7 0 66 0 53 566 607 321 89 263 321 410 720 1124 1418 1381 1403 1414 1504 1444 1215 1193 1779
1826 1189 1508 1370 1119 869 486 192 0 0 0 64 0 0 14 12 14 21 24 5 0 0 0 0 0 4 571 10 0 0 0 0 0 7 82 266 540 646 718 922 1163 1309 1271
1844 1306 1500 1444 1065 886 522 23 45 0 104 0 2 0 0 9 15 39 40 9 10 0 0 0 0 0 266 0 0 0 0 0 0 0 0 0 0 0 0 29 178 438 733
1782 1717 1636 1545 939 372 266 118 29 13 91 115 32 60 4 0 5 1 30 34 43 19 12 0 8 0 0 4 0 0 0 0 0 0 0 0 0 0 0 0 0 0 0
1570 1964 1613 1297 764 42 138 77 82 79 84 38 0 3 0 0 0 0 1 0 13 22 21 32 14 1 0 0 0 0 0 0 0 0 0 0 0 0 0 0 0 0 0
1716 1954 1519 1105 943 28 190 117 113 82 84 23 67 0 15 0 0 0 0 0 0 11 27 34 36 16 7 0 0 3 0 0 0 0 0 0 0 0 0 0 0 0 0
1506 1383 1073 853 667 43 601 276 213 94 99 22 54 9 0 0 0 0 0 0 0 0 1 3 67 39 13 9 0 88 0 0 0 0 0 0 0 0 0 0 0 0 0
1669 1432 907 675 511 341 74 401 280 68 226 98 0 0 0 0 0 0 0 0 0 0 0 7 6 36 28 10 13 11 2 2 9 0 0 0 0 0 0 0 0 0 0
1561 1240 1124 773 742 509 196 469 201 176 28 157 107 51 0 2 8 2 4 1 0 0 0 0 0 0 8 25 38 24 7 51 23 4 0 0 0 0 7 10 0 0 0
1233 1167 1095 1062 710 530 371 445 249 107 153 19 58 0 98 6 19 2 51 1 0 2 2 0 0 0 26 0 0 9 2 12 14 13 0 0 0 0 0 4 11 2 0
1719 1448 1081 1271 1100 685 369 419 317 161 31 195 18 10 1 18 38 11 115 75 181 98 47 1 12 9 0 6 40 47 12 25 43 4 0 0 0 2 6 5 0 0 0
1859 1616 1499 1155 1090 849 526 423 327 176 137 68 162 30 17 1 3 82 84 110 175 88 129 87 31 24 22 37 27 0 0 0 34 66 40 38 12 3 7 4 0 5 2
2541 1945 1514 1327 1170 964 730 485 406 303 98 224 236 269 198 10 13 336 236 264 174 241 147 87 58 23 34 36 32 50 0 0 0 0 5 10 0 0 0 0 0 0 0
3075 2678 2309 1908 1561 1237 947 762 534 317 239 331 280 237 107 111 142 207 311 184 337 339 255 191 72 7 0 0 20 17 2 0 0 0 0 0 0 0 0 1 0 3 0
2947 2996 2653 2287 1951 1681 1535 1313 1003 469 504 517 337 509 363 313 436 581 483 415 373 364 380 240 68 9 0 0 34 31 0 0 0 0 0 0 0 0 0 0 0 0 0
3325 3399 3222 2934 2422 2210 1891 1620 1470 733 529 510 508 517 657 410 229 258 238 370 397 234 304 109 42 33 5 0 50 64 0 0 0 0 0 0 0 0 2 1 0 0 0
3499 3549 3400 3257 2920 2852 2579 2188 1733 1148 563 523 462 586 525 491 289 641 624 640 434 229 260 212 70 51 43 117 105 106 36 0 0 0 0 0 0 0 0 0 0 1 0
3664 3500 3312 3009 3010 2956 2385 1979 1408 886 583 404 226 414 560 463 452 493 443 476 418 452 204 379 434 446 293 197 216 150 14 25 0 0 0 0 0 0 0 0 0 0 0
3570 3367 3418 3232 2869 2156 1525 1098 691 505 315 355 345 248 345 418 480 353 212 219 185 158 192 201 253 222 126 53 23 27 26 12 18 6 0 9 6 0 0 0 0 0 0

GFSMA_con_mucape_018.txt.gz
CAPE
708 496 658 704 729 487 532 743 845 1091 1093 986 1065 593 35 329 800 618 412 1591 1740 2455 2385 2163 2017 1707 1569 1933 1614 1682 1407 813 703 971 1184 1156 1101 911 776 816 806 792 869
804 644 759 1037 925 938 802 1121 947 666 624 271 313 483 690 29 744 573 585 1218 1955 2342 2736 2407 2145 2070 1997 1788 1813 1777 1692 1284 937 1141 1444 1717 1719 1366 796 1082 1144 1209 1087
1107 1117 1235 1181 985 1192 1263 763 890 823 181 25 1 89 23 26 37 365 706 749 1198 2218 2370 2732 2655 2385 2035 2002 1886 2058 2140 2224 1772 1378 1520 1705 1644 1422 1597 1658 1288 1395 1497
1290 1226 1284 769 878 919 911 889 870 863 125 15 0 0 12 32 37 18 119 242 941 982 1725 2065 2131 2198 1918 1684 1779 1939 1775 1962 2047 1921 1776 1664 1239 1567 1694 1993 1777 1962 1910
1432 1249 1098 1000 919 978 810 925 702 378 18 3 0 2 19 26 39 56 68 531 698 868 814 1426 1692 2005 1476 1042 1283 1702 1940 1985 2095 1892 1836 1856 2086 1875 1959 2011 2010 1948 1885
1298 732 1077 1133 904 1104 884 733 239 98 0 0 7 0 13 16 31 32 13 387 730 888 738 678 911 865 1608 1716 1532 1571 1686 1861 1726 1542 1782 1418 1799 1804 1813 2092 2001 1881 1803
1458 941 888 1290 1193 1045 620 401 86 0 0 0 0 0 20 17 17 17 18 567 236 535 658 540 940 1028 1166 1146 1081 1443 1720 1436 1362 1363 1667 1606 1495 1385 1363 1311 1291 1674 1954
1233 1007 1051 1153 1184 1099 641 442 9 0 0 0 0 0 3 19 2 19 22 41 197 235 265 387 455 488 362 183 197 635 670 727 897 966 999 1066 1057 1077 1016 1151 1334 1379 1451
1145 1248 1357 931 942 1124 889 280 17 0 0 30 0 0 0 0 23 15 12 11 4 6 13 15 271 272 132 0 18 0 0 16 10 7 0 75 249 460 510 558 611 628 984
1219 1402 903 1012 803 804 629 448 0 1 3 4 0 0 0 0 1 0 5 0 0 0 0 0 0 110 222 0 0 0 0 0 0 0 0 0 0 0 0 0 5 85 244
1407 1323 1019 1001 857 741 600 207 29 3 33 0 0 1 0 0 0 0 0 0 0 0 0 0 0 4 239 11 0 0 0 0 0 0 0 0 0 0 0 0 0 0 0
1671 1311 1172 1218 886 662 257 23 1 0 57 69 6 37 0 0 0 0 0 0 0 0 0 0 0 0 0 20 0 0 11 0 0 0 0 0 0 0 0 0 0 0 0
1690 1424 1283 1324 958 704 366 47 24 17 1 27 0 0 0 0 0 0 0 0 0 0 0 0 0 2 0 2 0 5 54 0 0 0 0 0 0 0 0 0 0 0 0
1514 1320 1349 1146 990 730 517 56 43 25 26 2 2 6 0 0 0 0 0 0 0 0 0 0 1 3 0 0 0 220 0 0 0 0 0 0 0 0 0 0 0 0 0
1342 1287 1326 1381 1184 854 364 132 130 59 74 28 0 5 0 0 0 0 0 0 0 0 0 0 0 0 3 0 1 2 0 0 15 1 0 0 0 7 22 34 27 18 5
1477 1208 1431 1561 1041 729 428 284 165 164 78 80 21 0 0 0 0 0 0 0 0 0 0 0 0 0 0 0 0 17 0 0 0 4 3 0 0 9 26 43 34 19 8
1538 1349 1281 1196 912 679 575 507 282 182 129 9 51 24 0 0 0 1 3 7 9 7 2 12 0 0 0 17 0 0 1 0 0 0 1 27 19 0 0 24 19 25 19
1554 1410 1454 1339 951 797 700 597 391 200 141 18 0 65 23 0 16 9 9 13 11 13 53 35 16 2 10 14 9 25 45 16 0 0 0 14 33 25 1 3 0 0 0
1746 1491 1485 1219 1108 960 822 700 484 310 171 99 44 4 0 0 3 43 17 17 49 81 66 66 43 33 34 32 42 37 17 15 9 4 0 0 0 0 4 0 0 0 0
2139 1694 1549 1502 1445 1289 1180 1067 915 768 525 242 13 77 35 1 12 5 52 14 70 118 115 100 93 81 57 44 30 22 10 1 1 7 0 0 0 0 0 0 0 0 0
1990 2038 1646 1591 1525 1403 1363 1302 1205 1037 739 595 352 107 126 99 58 54 27 42 157 164 136 136 95 85 75 50 18 0 1 2 1 0 0 0 0 0 0 0 0 0 0
2426 2359 2158 1921 1779 1740 1739 1691 1642 1415 1117 1006 656 273 145 200 233 238 18 32 130 250 179 48 30 50 78 37 11 0 0 0 0 0 0 0 0 0 0 0 0 0 0
2539 2668 2884 3031 2868 2612 2407 2188 1916 1778 1525 1389 1241 424 231 297 335 331 226 265 451 300 217 80 111 83 57 22 7 1 34 38 0 0 0 0 0 0 0 0 0 0 0
2965 2823 2640 2797 2933 2850 2505 2659 2294 2478 2463 1792 1470 572 332 417 504 466 336 213 260 118 72 141 69 145 116 98 144 151 129 111 108 45 1 0 0 0 0 0 0 0 0
3136 3143 3200 3163 2974 2624 2476 3038 2840 2637 2001 1589 1028 444 537 536 514 318 281 305 203 222 254 328 212 217 224 220 164 73 81 63 3 0 0 12 0 0 0 0 0 0 0
3118 3228 3346 3391 3081 2614 2729 2899 2801 1974 1300 662 397 537 453 279 336 270 354 318 136 49 88 117 94 117 154 153 74 0 0 0 0 21 0 0 0 0 0 0 0 0 0

GFSMA_con_mucape_021.txt.gz
CAPE
619 789 401 437 561 298 435 446 629 970 1003 851 492 650 217 313 378 439 329 1202 1907 2209 1746 1639 1976 1569 1551 1627 1633 1331 1653 1402 955 1205 710 1247 995 594 486 657 710 744 662
671 486 395 689 753 775 693 792 929 694 546 198 181 342 351 241 336 559 442 554 1955 2216 2484 1600 1808 1804 1581 1904 1668 1665 1483 1250 768 879 1307 1511 1576 1195 768 799 1083 1218 1175
983 706 645 946 912 922 847 737 688 698 181 40 39 70 27 10 153 613 420 491 879 1842 2497 2501 2185 1937 1591 1583 1863 1883 1801 1827 1503 1254 1585 1555 1544 1416 1370 1160 1274 1227 1258
976 915 961 1083 673 1075 909 786 810 729 195 7 12 0 9 21 23 141 303 517 558 700 1130 2112 2255 2169 1614 1298 1253 1761 2190 1863 1780 2061 1848 1406 1379 1594 1632 1790 1515 1613 1471
1055 1045 991 709 822 800 752 822 735 477 163 3 0 0 12 20 30 27 33 332 489 729 569 1455 1381 1994 1420 1154 1180 1863 1536 1903 1892 1991 1852 1871 1767 1748 1826 1875 2015 1974 1916
1076 1199 957 884 815 886 809 776 732 151 4 0 0 0 16 16 50 49 35 224 478 662 597 508 873 974 1502 1219 1501 1444 1543 1841 1571 1800 1794 2076 1899 1865 1827 1841 1852 1856 1823
1042 1142 702 980 815 925 859 655 330 21 0 0 0 0 11 14 31 21 280 495 593 604 455 442 549 844 1112 1347 1377 1362 1334 1236 1343 1489 1267 964 1316 1615 1633 1591 1242 1664 1721
1163 1122 769 987 1009 1086 753 441 187 7 0 0 0 0 5 0 12 13 202 110 248 442 307 496 768 691 440 380 694 1039 1191 1299 1314 1216 967 881 958 1093 1053 1036 1140 1383 1415
1330 1206 912 916 1065 1063 838 520 231 8 0 12 0 0 0 0 0 0 25 45 49 109 75 131 374 278 140 0 57 49 167 313 273 159 60 25 168 375 531 546 554 579 609
806 1022 946 1107 985 820 762 764 264 0 0 10 0 0 0 0 0 0 0 1 6 2 1 2 159 231 125 1 0 0 0 0 0 0 0 0 0 0 0 0 0 0 30
935 967 957 1127 722 738 1015 698 299 0 0 0 0 0 0 0 0 0 0 0 0 0 0 0 0 10 197 43 8 0 2 0 0 0 0 0 0 0 0 0 0 0 0
1349 1235 1070 1091 826 625 525 418 94 5 6 0 0 0 0 0 0 0 0 0 0 0 0 0 0 0 10 147 26 0 66 28 0 0 0 0 0 0 0 0 0 0 0
1490 1423 1244 1147 1028 875 537 287 2 0 0 15 0 0 0 0 0 0 0 0 0 0 0 0 0 0 0 1 29 96 95 50 0 0 0 0 0 0 0 0 0 0 0
1390 1405 1475 1236 1141 960 569 459 28 4 3 1 0 0 0 0 0 0 0 0 0 0 0 0 0 0 0 0 0 7 0 60 8 0 0 0 18 30 46 54 39 31 11
1296 1470 1461 1356 1250 1135 775 651 146 30 31 0 0 0 0 0 0 0 0 0 0 0 0 0 0 0 0 0 0 0 0 1 6 0 0 0 7 26 58 71 92 88 92
1159 1232 1418 1443 1252 1160 1000 802 261 36 23 12 0 0 0 0 0 0 0 0 0 0 0 0 0 0 0 0 0 0 0 0 0 0 0 0 0 9 30 50 63 62 61
1331 1346 1304 1406 1134 1073 1224 904 368 198 52 56 16 0 0 0 0 0 0 0 2 0 0 0 1 0 0 0 0 0 0 0 0 0 0 0 0 0 0 20 33 32 31
1345 1517 1506 1429 1237 1229 1410 901 591 524 375 110 5 13 0 0 5 0 3 1 7 6 0 0 2 4 22 18 9 9 0 3 8 12 2 0 0 0 0 0 0 0 0
1464 1278 1414 1429 1227 1279 1317 961 759 705 659 434 105 15 0 9 21 1 9 20 19 11 12 19 19 27 41 35 38 37 12 0 0 0 0 0 0 0 0 0 0 0 0
1533 1604 1550 1418 1529 1476 1359 1125 1019 859 783 748 622 391 160 16 79 1 4 23 17 14 29 61 78 78 48 53 52 32 18 0 0 0 0 0 0 0 0 0 0 0 0
1526 1542 1692 1697 1506 1484 1548 1484 1408 1260 1199 1068 874 673 490 274 171 14 5 16 8 10 39 97 79 56 29 2 21 33 13 0 0 0 0 0 0 0 0 0 0 0 0
1531 1556 1535 1605 1735 1691 1600 1574 1576 1515 1420 1392 1299 1070 901 584 199 70 136 121 147 27 37 100 98 58 7 4 20 3 11 2 0 4 0 0 0 0 0 0 0 0 0
1755 1726 1732 1696 1795 2008 1743 1655 1583 1592 1716 1666 1619 1327 1145 1070 280 82 199 219 204 138 71 96 74 4 1 29 28 39 19 26 59 79 21 6 0 0 0 0 0 0 0
2017 1944 1921 1879 1857 1952 1942 1954 2094 2401 2429 2157 1778 1611 1433 1012 519 178 303 314 233 147 173 56 43 24 46 34 92 90 108 95 90 127 82 0 0 0 0 0 0 0 0
2227 2221 2109 2158 2264 2292 2492 2922 2981 2948 2426 2528 2407 1456 1407 807 463 309 464 325 149 146 135 93 71 151 196 105 55 76 106 38 0 0 0 0 0 0 0 0 0 0 0
2424 2393 2463 2465 2504 2521 2628 2774 2845 2555 2820 2869 1928 1526 794 553 540 523 502 389 149 153 103 29 18 37 37 19 7 0 0 0 0 0 0 0 0 0 0 0 0 0 0

GFSMA_con_mucape_024.txt.gz
CAPE
402 654 780 255 426 382 370 366 648 860 1067 702 450 161 110 169 223 214 392 841 1535 1739 1547 1328 1957 1605 1332 1467 1609 1254 1307 1178 1107 1223 864 1130 1031 844 641 525 656 900 624
611 529 560 403 553 591 569 635 842 701 594 201 126 261 319 177 214 404 433 277 1579 1774 1851 1580 1363 1786 1501 1530 1535 1627 1426 1615 1266 1067 1106 1497 1241 1037 805 673 909 1029 1065
739 780 400 516 755 803 777 546 645 744 102 13 61 25 8 21 42 537 534 400 758 1140 1843 1523 1622 1240 1412 1597 1723 1622 1785 1767 1299 977 1464 1496 1493 1453 1426 1141 859 1189 1283
576 915 733 703 875 774 838 670 657 805 409 19 9 6 6 24 26 379 390 545 630 793 1034 1533 1774 1989 1266 1168 1293 1844 1871 1868 1726 2071 1958 1544 1309 1494 1359 1642 1421 1627 1316
700 768 799 786 848 749 742 701 693 459 308 21 10 0 9 15 32 23 30 218 342 922 708 990 1358 1679 1153 994 1232 1228 1336 1738 2060 2150 2139 1975 2004 1899 1896 2057 1947 1898 1919
835 847 833 859 560 755 710 620 692 421 0 2 1 0 6 22 24 35 71 213 497 840 728 788 1230 1225 1239 1242 1254 1152 1145 1268 1757 1919 2013 1865 2123 1916 1835 1654 1789 1829 1721
872 883 896 835 690 603 764 664 455 93 0 0 0 0 5 12 38 17 160 375 667 676 483 510 718 943 1257 979 948 985 1225 1207 1222 1257 1571 1474 1418 1270 1218 1293 1098 1131 1199
830 875 932 841 741 640 832 592 317 105 0 0 0 0 0 0 12 12 153 159 216 357 395 527 859 915 757 829 951 1003 1254 1387 1301 1171 1102 973 991 965 929 859 692 695 1005
895 850 823 910 785 851 925 687 365 116 0 0 0 0 0 0 0 2 17 37 58 70 35 178 455 384 168 22 66 95 190 377 350 187 80 48 35 77 200 265 321 378 407
852 879 999 1036 773 949 867 675 588 194 0 0 0 0 0 0 0 0 0 33 20 24 0 0 129 356 141 25 0 0 0 0 0 0 0 0 0 0 0 0 0 0 14
682 1021 1160 1090 886 945 767 565 658 335 0 0 0 0 0 0 0 0 0 0 0 0 0 0 0 42 309 70 21 0 1 0 0 0 0 0 0 0 0 0 0 0 0
774 789 771 829 908 1004 549 676 771 311 0 0 0 0 0 0 0 0 0 0 0 0 0 0 0 0 7 231 64 20 32 56 14 3 0 0 0 0 0 0 0 0 0
1019 936 899 971 1005 1099 766 578 407 158 0 0 0 0 0 0 0 0 0 0 0 0 0 0 0 0 0 12 182 299 130 79 42 0 0 0 5 13 0 0 0 4 0
1056 1140 1235 1222 1093 1173 936 727 304 90 0 0 0 0 0 0 0 0 0 0 0 0 0 0 0 0 0 0 0 64 234 38 54 4 0 0 11 20 61 94 79 80 51
910 971 1088 1250 1182 1261 1073 836 434 344 7 1 0 0 0 0 0 0 0 0 0 0 0 0 0 0 0 0 0 6 106 25 3 20 1 0 0 15 46 66 74 69 99
820 936 1077 1293 1311 1375 1209 1061 708 603 120 14 9 0 0 0 0 0 0 0 0 0 0 0 0 0 0 0 0 43 14 2 7 10 5 4 9 18 23 40 58 68 70
804 877 1027 1223 1266 1390 1344 1225 894 800 354 12 11 0 0 0 0 0 0 0 0 0 0 0 0 0 0 6 0 0 0 2 2 4 0 3 0 0 3 0 0 0 10
933 959 889 1130 1117 1263 1458 1222 1051 1005 611 256 148 0 0 0 0 0 0 0 1 0 1 9 0 0 0 0 1 15 3 0 1 0 0 0 0 0 0 0 0 0 0
1006 987 841 1090 1249 1363 1403 1274 1099 1216 926 591 567 445 155 34 4 6 0 0 0 1 0 0 6 0 0 1 4 3 1 1 0 0 0 0 0 0 0 0 0 0 0
1030 1072 1085 1361 1474 1522 1464 1402 1202 1403 1229 870 792 737 619 430 230 93 18 0 0 11 11 4 4 3 26 43 14 12 25 5 3 3 1 0 0 0 0 0 0 0 0
1084 1151 1006 1162 1324 1325 1458 1494 1354 1432 1348 1160 1004 976 1017 795 414 364 65 8 0 2 11 9 10 15 43 21 15 2 4 11 6 0 3 0 0 0 0 0 0 0 0
1275 1245 1262 1098 1375 1431 1305 1427 1634 1653 1489 1518 1545 1474 1359 1207 886 516 149 51 0 9 14 13 1 34 40 45 15 11 1 13 7 9 6 15 27 1 0 0 0 0 0
1345 1397 1410 1335 1281 1496 1616 1559 1583 1672 1672 1656 1678 1660 1688 1432 1098 869 551 375 32 81 125 92 36 43 40 83 7 7 3 16 32 28 34 29 30 9 0 0 0 0 0
1296 1339 1405 1478 1382 1368 1477 1575 1647 1777 1832 1786 1753 2011 1924 1564 1457 1234 1015 422 29 107 130 42 61 47 6 21 0 1 20 39 64 78 10 4 0 0 0 0 0 0 0
1546 1516 1495 1569 1616 1529 1499 1518 1566 1950 2041 1971 2407 2600 2257 1889 1468 1154 796 257 36 118 79 40 58 33 20 19 23 5 19 26 12 0 0 0 0 0 0 0 0 0 0
1841 1730 1656 1723 1816 1823 1672 1710 1744 1973 2087 2431 2843 2841 2291 1682 1200 650 353 296 327 283 40 69 40 1 0 0 0 0 0 0 0 0 0 0 0 0 0 0 0 0 0

GFSMA_con_mucape_027.txt.gz
CAPE
1313 1566 1932 1497 1340 1493 1170 1373 2075 1655 1783 1192 864 648 403 638 733 788 755 896 1312 1486 1140 1402 1519 1715 1284 1406 1441 847 1264 916 1028 996 1138 1078 1151 1123 1041 575 617 927 793
1546 1528 1734 1514 1406 1680 1586 1408 1946 1701 529 282 388 1041 927 424 763 992 866 665 976 1385 1364 1215 1332 1635 1332 1489 1481 1529 1342 1443 1351 1129 1361 937 1185 1083 819 628 752 979 1046
1754 1943 1658 1371 1526 1909 1972 1521 1551 1610 507 16 41 216 225 264 308 899 987 739 716 970 1300 1243 1180 1197 1639 1482 1601 1696 1484 1806 1762 1231 1179 1136 1329 1345 1290 1254 957 874 1205
1711 1935 1860 1517 1647 1772 2047 1662 2009 1752 1076 24 45 66 133 237 344 762 842 928 935 582 817 1241 1193 1052 1103 1174 1486 1680 1622 1330 1727 1696 1795 1443 1365 1640 1603 1502 1456 1397 1342
1645 1820 1835 1832 2008 1716 1718 1566 1448 1218 398 59 173 64 163 217 120 166 355 750 977 965 724 708 972 1239 1036 1052 1059 1137 1220 1660 1972 1797 1848 1807 1816 1866 1987 2052 1905 1935 1857
1717 1967 1782 2069 1890 1520 1588 1436 1522 560 96 141 7 50 37 284 308 311 368 593 1195 1276 1040 1114 1046 884 884 949 1114 963 1071 1127 1323 1440 1562 1950 2019 1745 2005 1780 1741 1900 1853
1861 2150 1877 2135 1875 1654 1736 1685 1038 612 54 33 0 68 34 59 47 101 697 500 1068 1026 966 1141 1046 1005 1041 901 997 1010 1300 1316 1224 1050 1169 1363 1487 1320 1191 1203 1178 897 1046
2013 2117 2140 2056 1910 1582 1815 1611 997 240 38 55 24 53 13 44 17 8 500 395 752 310 157 212 1234 1480 1081 840 767 718 1125 1311 1288 1197 965 776 775 838 775 567 419 440 449
2121 2221 2222 2043 2031 1900 1716 1724 937 419 54 161 60 52 16 1 62 0 221 266 450 174 66 195 479 851 901 208 0 3 124 355 77 0 0 0 0 0 0 0 54 99 178
2070 2164 2262 2025 2113 1846 1948 1705 819 420 131 95 40 4 66 232 0 0 0 130 118 85 47 34 153 290 511 26 0 0 0 0 0 0 0 0 0 0 0 0 0 0 0
2038 2042 2238 2176 2213 2044 2015 1560 782 503 240 39 80 1 0 0 0 0 2 0 30 22 22 47 38 114 353 244 66 1 0 0 0 0 0 0 0 0 0 0 0 0 0
1645 1996 2186 2444 2461 2142 2130 1782 1103 752 376 134 174 119 3 0 0 0 1 0 0 0 0 6 25 51 68 246 211 36 10 21 0 0 0 0 0 0 0 0 0 0 0
1418 1952 2154 2257 2151 2176 2004 1688 1290 780 550 282 393 199 169 37 0 0 0 0 0 0 0 2 21 33 36 65 174 276 288 42 41 4 0 0 0 0 0 0 0 0 0
1481 2016 2238 2257 2198 2063 1778 1395 1197 829 416 453 421 216 193 183 69 0 0 0 0 0 0 2 0 23 125 38 32 170 256 71 32 0 0 0 0 0 0 35 70 66 1
1486 1925 2290 2386 2372 2083 1796 1374 938 725 364 422 365 314 152 142 121 16 0 0 0 0 0 10 0 65 80 135 60 80 239 89 0 0 0 0 0 2 14 37 47 64 111
2156 1951 2323 2423 2396 2146 1848 1574 1237 783 535 341 220 322 275 117 94 91 43 11 0 4 0 0 9 21 37 78 32 268 154 0 0 0 0 0 0 0 7 31 49 49 55
2320 2319 2321 2303 2305 2183 1860 1684 1540 1022 712 688 340 360 367 316 94 67 39 18 13 0 0 0 5 67 68 103 36 161 96 232 126 2 0 0 0 0 0 2 2 4 6
2194 2522 2465 2357 2231 2190 2003 1736 1659 1203 949 851 639 434 387 131 217 148 44 131 41 16 0 255 82 91 190 242 416 455 265 49 149 6 0 0 0 0 0 0 0 0 0
2253 2047 2418 2577 2267 2091 2076 1825 1814 1641 1154 1076 829 602 512 393 214 40 72 15 13 112 119 53 71 91 123 140 293 469 486 242 172 12 4 0 0 0 0 0 0 0 0
2267 2364 2514 2665 2430 2082 2043 1831 1792 1822 1538 1269 1032 773 636 573 496 370 184 223 168 146 169 146 105 96 160 269 277 263 224 101 44 32 33 2 0 0 0 0 0 0 0
2269 2396 2489 2587 2460 2049 1777 1922 1827 1838 1725 1523 1324 1093 872 797 784 789 652 447 619 359 153 189 201 196 128 110 34 204 101 67 84 101 163 270 271 166 136 0 0 0 0
2354 2488 2532 2589 2592 2054 1457 1260 1567 1905 1787 1989 1824 1427 1207 1144 1151 1051 919 550 607 693 695 293 296 350 502 54 269 122 94 153 95 65 244 332 432 542 469 421 14 0 0
2417 2484 2466 2545 2610 2617 1317 1196 1175 2062 1881 2138 2043 1877 1511 1510 1532 1448 1156 808 496 184 128 765 693 738 546 200 172 309 238 206 287 525 440 475 539 547 225 80 0 0 0
2560 2567 2531 2539 2594 2555 1428 1115 1210 1862 2260 2243 2076 1907 1683 1637 1630 1715 1272 1104 802 595 214 96 645 863 464 391 198 352 455 548 519 459 547 329 58 68 51 0 0 0 0
2711 2733 2683 2713 2641 2711 1487 1303 1175 1571 2205 2247 2136 1875 1669 1705 1630 1596 1345 1212 1026 941 309 58 56 9 11 14 42 358 331 204 148 88 56 0 3 4 0 0 0 0 0
2676 2645 2802 2802 2273 2777 1634 1373 1338 1926 2186 1967 2069 1804 1831 1833 2306 2159 1630 1264 1107 856 663 141 18 1 24 1 0 247 101 0 0 0 8 0 0 0 0 0 0 0 0

GFSMA_con_mucape_030.txt.gz
CAPE
1716 1769 1883 1484 1628 1514 1355 1290 1026 1199 1241 1237 824 197 100 117 146 157 623 994 1075 1115 974 1260 1635 1332 1567 1519 1408 1259 1025 458 884 1112 1134 1152 1055 1112 962 610 553 787 874
1804 1721 1618 1470 1488 1609 1615 1783 1194 1337 762 448 903 593 54 87 79 117 285 741 1079 1238 957 1145 1330 1636 1508 1420 1349 1329 1172 1323 1208 1101 1181 982 1207 1159 882 650 574 850 939
2171 2527 2149 1604 1486 2021 1470 1549 1123 1024 530 133 418 48 60 128 141 83 273 531 646 951 1127 915 1171 1458 1722 1396 1623 1672 1628 1533 1543 1688 1067 1523 1103 1399 1300 1314 1117 879 985
2051 2457 1741 1349 1828 2063 1387 1489 1079 784 399 125 83 45 40 143 222 168 247 504 298 501 764 775 780 1127 1071 1354 1508 1661 1722 1648 1663 1519 1511 1287 1129 1539 1797 1544 1525 1494 1415
1773 2375 2081 1870 2304 1714 1687 1253 1149 1040 269 164 159 53 31 85 202 52 78 269 444 279 431 722 770 745 837 1031 1020 1025 1319 1571 1817 1669 1618 1639 1880 1864 1542 1853 1775 1706 1646
1718 2383 2010 1625 1604 1532 1446 1373 1094 849 356 166 21 3 47 71 73 65 43 71 446 395 396 717 860 780 828 942 1009 880 924 1062 1197 1235 1281 1461 1782 1897 1965 1575 1628 1728 1708
2271 2720 2203 1964 2158 1633 1536 1387 1247 1089 226 131 3 27 46 51 54 51 54 53 56 57 44 201 381 478 672 972 909 899 1179 1250 1244 1156 1370 1271 1286 1280 1140 960 937 1123 843
2544 2654 2738 2092 2072 1721 1985 1903 1449 627 228 2 22 38 43 38 31 47 46 36 23 24 3 3 706 693 642 1154 517 515 1186 1291 1293 1156 789 553 530 552 457 438 352 490 439
2523 2890 2515 1792 2301 2338 1833 2165 1792 1161 139 21 156 118 18 30 30 18 122 44 34 27 14 26 34 306 248 1 0 4 66 155 0 0 0 0 0 0 0 0 2 25 53
2420 2524 2570 2486 2862 2091 2012 2639 1821 1242 1153 12 54 4 253 546 26 39 12 36 19 27 17 16 30 37 44 23 0 0 0 0 0 0 0 0 0 0 0 0 0 0 0
2425 2170 2592 2836 2852 2643 2336 2610 2033 1887 1062 54 1 0 16 0 58 14 46 34 74 27 43 33 36 51 61 36 39 1 0 0 0 0 0 0 0 0 0 0 0 0 0
2036 2375 2400 2881 2912 2707 2640 2716 2470 1931 1611 515 16 80 0 0 0 5 5 18 36 88 44 19 35 42 55 109 109 33 16 0 0 0 0 0 0 0 0 0 0 0 0
1204 2735 2650 2779 2667 3118 2732 2771 2779 2041 1975 1208 566 92 61 25 0 0 0 1 4 13 16 9 25 28 22 62 108 112 192 6 0 0 0 0 0 0 0 0 13 8 11
1621 1759 2305 2509 2660 2674 2881 2769 2649 2256 1739 1551 876 494 58 104 98 16 0 0 1 0 1 20 4 8 4 6 97 781 150 161 64 22 0 0 0 0 0 31 49 98 100
1737 1832 1992 2521 2496 2683 2794 2892 2525 2378 1488 1526 851 830 307 46 134 65 37 1 0 1 14 60 0 6 1 7 120 278 373 470 179 46 9 0 0 1 1 20 78 129 161
2787 2282 2181 2333 2466 2710 3006 3067 2545 2394 2051 1370 771 540 754 68 108 115 59 14 2 0 0 10 4 4 5 2 78 255 234 116 114 19 0 0 0 0 11 30 34 43 50
3571 3013 3072 2550 2399 2801 3062 3194 3077 2413 2358 1929 1362 729 873 738 94 48 86 84 63 36 0 7 3 136 443 439 53 69 138 152 75 14 2 0 0 0 2 3 2 0 0
3456 3790 3340 3251 2792 2659 2986 3010 3008 2399 2489 2232 1981 1515 889 588 783 359 132 998 368 203 0 234 107 195 603 534 524 678 298 56 58 19 10 0 0 0 0 0 0 0 0
3844 2722 3498 3946 3357 3026 3288 3016 2919 2978 2625 2557 2289 2047 1490 765 852 485 389 235 116 146 275 36 32 235 149 354 569 738 626 617 235 21 0 0 0 0 0 0 0 0 0
3900 3854 3700 4175 3794 3190 2984 2699 2720 2940 2997 2637 2590 2331 1922 1416 1005 931 545 523 319 164 290 155 72 26 246 416 254 108 536 596 297 136 18 1 0 0 0 0 0 0 0
3798 3987 3954 4050 4097 3123 2551 3566 3408 3076 3428 2937 2739 2589 2282 1720 909 936 865 981 1382 621 376 236 227 165 200 248 489 288 199 309 353 487 310 205 167 219 278 54 58 63 0
3910 3974 3903 4053 4080 3067 1998 1807 2615 3219 3733 3771 3240 2791 2536 1406 1057 842 888 942 894 1274 1318 340 268 495 987 576 571 358 210 198 141 343 428 465 428 478 487 447 153 65 1
3973 4032 3987 4011 4151 4043 2025 1711 1660 2947 3607 3635 3449 3220 2739 2310 1511 1471 1172 1195 1066 939 541 1093 1035 1221 854 1289 1116 779 738 512 511 384 835 618 345 417 343 163 0 0 0
3974 4092 4037 4095 4145 4075 2592 1824 1523 2767 3683 3765 3584 3556 3885 3506 2435 1812 1709 1510 1386 1308 895 576 816 952 1525 943 1061 775 841 677 638 533 908 438 186 29 89 30 1 0 0
3665 3693 3554 4120 4375 4226 2707 2318 1735 2572 2936 3985 3671 3512 3594 3550 2621 1740 1878 1923 1715 1453 1182 1049 809 496 509 289 273 482 406 711 599 249 412 34 6 13 7 0 1 0 0
3556 3107 3511 3910 3417 4265 3137 2410 2069 2261 2849 2715 3804 3971 2227 2889 2390 1844 1580 1815 2004 1783 1305 1034 840 607 179 24 1 194 286 257 105 5 29 0 0 0 2 0 0 0 0

GFSMA_con_mucape_033.txt.gz
CAPE
2001 1822 1624 1754 1614 1741 2019 1795 1352 1444 1093 878 902 979 100 3 44 420 257 895 946 919 1277 1465 1445 1390 1458 1488 1337 1286 707 459 1031 1252 1241 1186 1026 1021 922 621 488 636 967
1630 1950 1654 1926 1919 2043 1308 1287 1359 1260 1128 750 380 433 68 65 18 321 346 688 1406 1109 1028 1138 1609 1628 1408 1527 1576 1229 1230 1214 929 975 1096 1114 1192 1099 909 746 505 675 940
2074 2187 1665 1528 2105 2532 1609 1640 1362 1611 577 251 168 16 47 89 30 37 644 370 668 1551 1035 1082 1244 1631 1772 1460 1552 1538 1512 1474 1523 1561 1501 1273 1190 1290 1312 1227 1313 1020 837
2186 2445 1784 1436 2049 1846 951 2006 740 380 735 29 44 46 178 28 78 2 143 618 616 290 1207 1191 1092 1284 1402 1435 1676 1646 1700 1616 1711 1794 1740 1582 1182 1285 1743 1631 1264 1317 1487
1848 2493 1214 1177 2288 1963 1404 653 1077 756 46 48 39 53 58 22 257 34 27 45 368 491 357 1410 1400 1059 1029 1090 1137 1186 1542 1519 1755 1772 1561 1750 1687 1786 1939 1798 1678 1780 1662
1804 2390 2334 2091 1592 1901 1831 1370 1262 272 389 18 28 8 51 57 58 68 23 284 49 41 451 947 618 820 1282 1207 1113 899 957 1092 1235 1382 1377 1400 1321 1833 1937 1930 1884 1920 1785
2003 2487 2324 2759 1864 2488 1684 1351 1306 914 688 25 11 27 42 26 32 41 54 54 47 62 19 134 986 598 604 1328 1024 956 1160 1216 1292 1323 1450 1384 1362 1254 1191 1095 1113 1288 1391
2150 2557 2953 2358 2226 1648 1886 1936 1420 1253 37 0 182 39 38 30 37 45 34 22 31 20 7 12 82 1067 920 640 539 789 1312 1441 1437 1096 665 555 642 653 555 405 387 623 480
2232 3457 2545 2250 2464 2560 3146 2250 1603 1042 265 0 413 273 191 99 18 1 17 36 5 15 4 4 31 83 339 1 21 67 240 148 2 0 0 0 0 0 0 0 0 0 0
2280 2473 2477 2032 2848 2162 2768 2244 1784 1605 1262 60 0 21 602 652 452 124 45 24 20 14 4 38 31 23 38 22 2 32 36 30 4 0 0 0 0 0 0 0 0 0 0
2594 2041 3206 2890 3157 2774 3384 2420 2358 2162 1094 529 0 0 0 0 0 118 181 263 20 21 52 26 64 116 80 50 1 0 12 0 0 0 0 0 0 0 0 0 0 0 0
2328 3464 2722 3743 3848 3516 2553 2756 2856 2406 2096 898 194 49 23 41 65 44 17 442 272 307 26 32 27 32 77 85 58 14 16 0 0 0 0 0 0 0 0 0 0 0 0
1012 2948 3754 3646 2877 3868 3103 3534 3892 2783 2338 1810 1326 122 47 64 12 0 0 2 2 29 46 5 26 27 15 22 101 61 81 0 0 0 0 0 0 0 0 0 8 40 63
1141 2760 3858 3465 3433 3530 3310 4009 3024 2711 2842 1998 1412 1375 187 114 102 82 35 0 20 1 10 13 10 12 17 13 166 398 68 24 1 6 6 0 0 14 53 80 68 23 58
1331 2928 3542 3601 3579 3578 3862 4082 2681 3537 3026 2374 2098 1701 704 49 104 89 31 0 0 19 78 352 1 354 3 39 137 70 133 134 168 72 2 15 41 23 33 93 98 151 285
3617 3627 3149 3271 3471 3765 3927 4317 3227 3633 3546 1986 1008 2194 1899 128 154 94 43 21 0 0 5 50 47 40 78 40 149 45 122 298 310 114 10 0 0 0 3 18 45 122 216
4402 3761 4087 3664 3708 3792 3985 4382 3978 3703 3624 3309 2489 2464 2153 2223 113 56 74 52 43 41 4 0 9 798 448 335 218 321 169 594 52 0 0 1 0 0 0 15 28 28 13
4201 4405 4284 4201 3972 3808 3980 4255 3998 2588 3707 3201 2626 2695 1960 832 2090 1797 228 1555 451 737 76 1678 696 426 1065 1547 1437 1610 402 34 217 24 12 0 0 0 0 0 0 0 0
4402 4196 4284 4471 4324 3948 4019 4410 4289 3990 3784 3670 3464 3331 2717 2201 2260 733 845 426 243 496 486 181 113 175 269 535 1037 1419 1416 1138 453 37 5 2 0 0 0 0 0 0 0
4392 4329 4275 4403 4410 4297 4028 4109 4185 4195 3988 3799 3715 3664 3426 2811 2199 2333 1666 1605 1161 643 538 251 140 66 177 887 442 256 421 637 593 146 56 27 32 1 0 0 0 0 30
4357 4407 4369 4378 4566 4398 3585 4064 3864 3998 4138 4172 3966 3914 3728 3025 1897 1923 1369 1582 1470 851 319 272 290 304 137 413 886 631 602 183 590 146 463 290 733 236 240 41 62 91 128
4476 4467 4464 4380 4376 4091 2830 2490 3152 3961 4130 4318 4211 4130 3848 2418 1759 1330 931 1107 1461 2066 1756 830 709 768 2151 1282 620 386 526 195 290 752 440 458 955 833 366 179 119 64 37
4534 4520 4471 4529 4479 4476 3022 2303 2177 3789 4117 4033 4326 4294 3920 2713 2394 2196 1293 868 734 847 1034 2247 1981 1867 2173 1970 1905 984 1443 1050 570 629 776 405 350 301 59 1 0 0 0
4592 4594 4599 4656 4632 4514 3521 2679 2114 2993 3735 3929 4072 4258 4310 3464 3477 2976 2725 1515 1348 1150 1163 1165 1665 2057 2086 2005 1058 1607 1475 1220 1017 598 1150 264 238 47 0 0 0 0 0
4605 4555 4610 4724 4717 4575 3588 3226 2565 2671 3202 3552 3735 4154 4213 4284 3424 2221 3123 2985 2137 1674 1332 1402 1159 963 836 657 663 803 497 691 601 379 866 237 25 0 0 0 0 0 0
4567 4299 4481 4632 4293 4683 3958 3354 2960 2907 3106 3276 3593 4079 3077 3645 3523 2837 2807 3163 2677 2091 1602 1296 1185 917 900 780 536 743 434 278 316 163 502 43 8 0 0 0 0 0 0

GFSMA_con_mucape_036.txt.gz
CAPE
1446 1364 1787 745 1838 1385 873 1351 1862 1301 2121 1047 957 938 128 41 313 95 551 1663 1561 1947 1583 1559 1417 1419 1361 1469 1123 1055 421 861 1270 1199 1274 1144 1093 1070 869 662 450 479 895
1985 2290 2711 1655 1834 1436 880 1879 2934 2029 542 1099 1119 947 103 451 177 216 427 1168 1766 1695 1888 1859 1651 1538 1497 1584 1581 1209 1365 589 636 1019 989 1194 1303 1111 1070 945 627 547 844
3019 1369 2646 2426 2483 3008 2891 2671 794 1087 772 255 697 723 302 43 418 97 250 291 1250 1825 1791 1852 2105 2161 1660 1509 1595 1635 1565 1744 1545 1586 1772 1388 1604 1422 1426 1371 1347 1405 1170
2951 3494 2387 1653 963 1699 2694 1027 2237 1101 1207 1030 280 205 196 252 206 389 288 469 630 595 1448 1840 1986 1922 1429 1654 1571 1648 1742 1882 2108 2167 2035 2020 1721 1781 1918 2203 1861 1712 1813
2748 2950 2211 947 2343 2656 2239 2099 1878 1094 1212 709 27 517 519 31 42 52 480 547 687 259 383 1720 1965 1976 1411 1313 1352 1450 1698 2139 2142 2212 2034 2134 2095 2073 2072 2021 1941 2011 1979
2739 3205 2303 2520 3000 2759 1740 1726 2341 1569 1044 696 12 128 70 271 62 331 140 184 668 563 289 572 1324 1148 1676 1677 1292 1067 1052 1224 1396 1389 1587 1679 1702 1899 1921 1980 1852 1877 1669
2991 3644 2161 1141 2410 2550 2692 2530 2014 1330 891 276 681 296 252 46 50 39 66 51 199 211 207 924 953 547 1196 1498 1228 1094 1113 1172 1459 1563 1391 1559 1372 1261 1207 1059 1068 1140 1343
3187 3365 2908 2527 2614 1149 2680 2188 2155 1666 1113 328 867 189 178 207 43 41 118 44 117 37 15 782 510 1083 676 622 927 1431 1760 1683 1310 1055 834 814 798 691 527 419 450 612 567
2958 3077 2890 2845 2636 2619 2227 2270 2434 2551 1069 271 1385 1215 138 30 255 139 59 18 62 7 9 328 534 1097 583 13 397 578 677 461 59 0 0 1 14 2 0 0 0 0 0
2820 2861 2891 3504 3389 2579 2717 2893 3121 2718 1987 320 260 567 1142 1105 369 18 305 110 189 13 229 41 97 248 596 8 4 12 10 0 7 0 0 0 0 0 0 0 0 0 0
3006 3050 3031 3322 3690 3350 2962 2500 3222 2920 2675 1846 507 387 747 990 819 916 199 253 183 177 195 244 77 44 322 0 0 0 0 0 0 0 0 0 0 0 0 0 0 0 0
2708 3467 3234 3162 3598 3343 3478 2953 3417 3512 3115 2751 1686 1046 499 329 569 520 654 326 343 502 326 94 206 181 258 54 6 1 0 0 0 0 0 1 0 0 0 0 0 0 21
2388 2802 3464 3419 3040 3172 3412 3647 3457 3754 3250 2900 2126 1641 1232 1240 904 769 364 448 386 334 421 297 393 242 237 617 63 0 20 0 0 0 0 0 0 3 25 40 6 21 45
1714 2952 2781 3180 3075 2954 3206 3919 3747 3302 3148 2792 2949 1914 1322 1352 952 693 576 878 319 310 570 207 132 519 437 325 2 11 0 0 0 0 0 0 0 0 10 102 179 254 141
2227 3502 2905 3130 2856 3265 3519 3810 2997 3453 3547 2871 2497 2505 1738 1112 1104 920 852 607 670 534 720 904 253 212 654 220 77 1 76 0 0 0 0 0 0 0 0 44 109 172 137
2420 3742 3135 3026 3194 3068 3677 3509 3338 3479 3261 2893 2218 1978 1807 678 652 1091 757 781 577 474 394 577 553 390 131 544 305 503 429 77 1 0 0 0 0 1 10 31 53 15 35
4141 2962 3801 3214 3270 3295 3313 3603 3117 3012 3577 3044 2101 2192 1728 1389 1471 1024 774 807 903 714 463 402 1137 1405 917 413 120 416 271 415 45 0 5 6 0 0 1 0 0 0 0
3182 4257 3687 3381 3411 3162 3294 3285 3316 2545 3323 3051 2514 1982 2011 1418 1654 1782 1770 890 744 1084 893 1100 845 1159 1253 913 1083 1080 331 5 251 149 6 3 6 0 0 0 0 0 0
3838 3286 3993 3906 3245 3180 3159 3273 3259 3226 2335 3197 3009 2522 2147 1706 1556 930 1165 1057 988 1143 1408 673 758 1002 1294 1315 1012 1020 1278 805 636 66 6 8 16 9 0 0 0 0 0
3454 3668 3533 3472 3818 3317 3249 3170 3286 3559 3216 2899 3257 3000 2712 2161 1534 1589 1231 917 1138 1079 713 847 677 481 982 948 871 681 729 735 602 279 46 18 22 6 11 5 3 0 0
3421 3551 3630 3611 3506 3697 3348 3228 3249 3515 3493 3051 2970 3348 3043 2723 2105 1607 1387 1531 786 972 876 428 333 527 595 816 648 618 291 242 493 564 228 13 84 66 36 32 26 56 27
3837 3782 3820 3703 3687 3585 3355 3084 2974 3320 3556 3367 3272 3215 3204 2827 2612 2026 1577 1100 1302 734 499 247 346 485 638 875 1429 604 347 343 307 482 237 371 606 602 303 336 189 64 13
4051 4029 4011 3966 3710 3695 3437 3243 2857 3129 3227 3283 3241 3261 3317 3020 2698 2456 2089 1697 1007 1014 734 641 931 1312 1814 1583 1467 1242 1084 981 533 589 378 210 502 281 451 16 0 0 0
4163 4119 4174 4101 4021 3863 3510 3364 3035 2650 3087 3145 3203 3198 3254 3169 2931 2688 2297 1987 1660 1026 911 888 1364 1179 1740 1599 1542 1529 1210 1138 1006 729 543 177 293 324 21 1 0 0 0
4213 4311 4243 4271 4191 4029 3709 3464 3273 2915 2718 2922 3162 3299 3212 3243 3114 2718 2513 2137 1971 1713 1070 747 656 1174 1251 1144 1343 918 923 577 510 404 477 275 202 94 0 0 0 0 0
4351 4304 4316 4274 4156 4196 3872 3732 3433 3112 2633 2628 2809 3221 3120 3122 3176 3050 2508 2488 2085 1874 1448 1078 796 803 1105 1051 941 772 573 417 241 239 425 269 84 0 0 0 0 0 0

GFSMA_con_mucape_039.txt.gz
CAPE
714 814 1140 766 785 565 550 918 923 1004 576 474 87 40 285 119 136 644 1393 2233 2080 2144 1954 1422 1314 1158 1014 858 799 649 1062 1197 1281 1287 1315 1211 1262 1144 776 668 513 503 880
958 1059 1387 1135 932 720 646 1074 1094 985 460 437 60 133 82 60 93 209 558 1101 2096 2146 1911 1904 1466 1520 1526 1665 1435 1352 959 503 889 1270 1096 1356 1572 1312 1152 1068 845 608 853
1027 1034 844 1168 919 944 916 1316 138 680 378 329 59 42 43 64 66 94 282 686 1343 2101 2195 2286 2340 2197 1739 1662 1754 1646 1575 1826 1347 1416 1687 1686 1783 1694 1605 1545 1428 1302 1337
1826 1173 1117 966 1036 1389 1479 1305 991 305 412 170 76 72 50 54 45 126 210 293 730 915 1911 2185 2259 2028 1776 1620 1838 1770 2046 2142 2223 2290 2081 1864 1603 2027 1876 2039 1742 1879 1689
1761 1648 836 788 994 1450 1118 575 1159 636 327 294 47 53 48 54 54 135 151 272 322 510 675 1777 1983 1792 1456 1401 1529 1523 1835 2136 2353 2306 2169 2063 1912 1930 1870 1790 1667 1654 1677
1555 1572 1204 809 1319 1030 960 464 300 128 111 17 22 58 25 28 48 183 208 294 197 169 302 719 1063 1065 1402 1627 1826 1613 1526 1651 2180 1913 1451 1724 1699 1759 1759 1547 1613 1518 1485
1592 1502 1442 955 1256 1133 1001 992 422 459 115 0 3 33 44 40 32 37 150 248 149 166 109 173 464 539 1009 1562 1123 912 1071 1274 1441 1438 1373 1492 1365 1337 1274 1145 1106 1083 1077
1631 1556 1461 1101 1370 1255 1268 1166 1023 528 405 0 63 54 9 6 15 25 32 121 156 68 84 167 302 390 751 559 704 1544 1804 1765 1278 1010 913 768 659 508 475 336 425 457 335
1886 1640 1430 1463 1457 1162 1007 1196 1012 1009 0 0 41 180 27 5 8 18 6 28 35 14 4 500 326 219 261 184 847 1189 1376 1113 344 0 0 0 8 14 1 0 0 0 0
1399 1761 1587 1312 1530 1329 1148 1018 1193 955 59 0 0 37 134 146 0 0 0 4 1 8 155 335 279 134 182 0 182 226 268 0 0 0 0 0 0 0 0 0 0 0 0
1229 2109 1648 1771 1579 1790 1305 1072 1835 871 758 196 0 0 0 0 16 0 4 1 0 0 0 0 255 132 50 0 0 0 1 0 35 79 17 0 0 0 0 0 0 0 0
1380 1892 2151 1816 1726 1765 1423 1495 1708 1229 993 1234 135 17 0 0 0 0 11 7 0 0 0 0 0 31 8 0 0 0 4 0 21 21 32 51 92 23 0 0 0 0 9
1531 1938 2196 1844 1913 2020 2024 1411 1865 2015 1388 1301 1179 45 194 0 74 0 18 0 0 0 0 3 2 0 0 0 0 0 10 0 0 0 0 4 36 48 98 81 14 16 38
1680 1491 2295 1923 1903 1787 1878 1995 1983 2048 1820 1234 1590 711 57 226 106 0 0 0 0 5 13 15 27 0 0 1 0 0 0 0 0 0 0 0 0 0 1 22 77 108 49
1236 1629 1873 2383 1885 1681 1650 1954 2475 1934 2347 1742 1073 1458 685 84 168 65 9 11 2 0 32 16 35 30 0 67 4 0 0 0 0 0 0 0 0 0 0 0 0 19 46
732 1499 1864 2058 2086 1877 1883 2003 2663 2485 2110 2195 1651 1252 1219 644 93 96 86 22 19 0 9 96 10 46 93 17 28 0 0 0 0 0 0 0 0 0 0 0 0 0 0
1624 1292 2144 2028 2031 2100 2283 2242 2191 2452 2616 2335 2060 1617 1248 935 200 72 228 77 58 5 0 2 42 94 91 96 17 19 26 118 23 0 0 1 0 0 0 0 0 0 0
1464 2434 2454 2178 2331 2067 2057 2699 2364 2246 2184 2409 2294 1851 1390 1060 610 269 676 137 45 151 22 0 277 333 111 33 50 65 33 39 12 12 25 14 4 3 0 0 0 0 0
2589 1756 2802 2476 2359 2448 2493 2206 2495 2331 2190 2336 2303 2123 1675 1282 877 452 454 629 408 49 440 181 202 434 352 238 261 169 84 17 21 148 111 0 0 7 13 0 0 0 0
2195 3064 2284 2804 2501 2419 2366 2477 2386 2440 2390 1927 2450 2593 2278 1854 1451 1024 643 381 475 553 448 511 205 106 193 618 189 181 226 347 164 203 164 126 2 0 4 11 0 2 16
2535 2405 2744 2707 2806 2530 2499 2376 2487 2474 2457 2457 1996 2504 2630 2426 2067 1682 1000 708 330 356 492 158 150 217 89 431 618 313 200 197 281 269 214 158 41 0 10 12 6 10 22
2146 2445 2696 2476 2756 2828 2734 2560 2478 2506 2525 2593 2609 2100 2582 2703 2670 2412 2031 1555 806 214 146 562 192 64 108 183 351 385 284 262 284 233 222 193 17 3 20 3 29 21 22
2962 2643 2441 2795 2654 2797 2911 3004 2800 2564 2536 2653 2684 2618 2218 2442 2779 2781 2616 2400 2015 1477 868 193 313 267 99 120 319 382 294 244 109 69 89 58 78 55 38 44 38 0 0
3080 3194 3131 2843 3037 2944 2912 3017 3104 3038 2715 2597 2868 2836 2737 2592 2490 2729 2817 2742 2545 2309 1887 1477 365 56 166 317 548 580 463 335 198 121 85 117 72 57 29 0 0 0 0
3165 3207 3411 3375 3254 3230 3250 3135 3135 3193 3091 2870 2766 2852 2985 2889 2797 2783 2842 2818 2731 2601 2431 2137 1659 912 670 1007 754 738 640 535 311 192 164 99 87 77 66 0 0 0 0
3265 3322 3310 3550 3500 3466 3407 3391 3383 3180 3043 2936 2866 2742 2853 2933 2951 2923 2871 2781 2812 2664 2528 2388 2096 1601 1217 891 752 537 732 738 512 235 154 182 95 107 60 8 0 0 0

GFSMA_con_mucape_042.txt.gz
CAPE
321 441 642 808 677 691 387 681 771 784 638 68 105 732 696 449 478 1049 1436 2173 2427 1980 1525 1199 712 566 774 1131 1376 1403 1468 1283 1365 1338 1245 1257 1199 1023 706 646 513 467 716
568 628 706 551 648 469 482 730 737 615 313 67 77 307 601 244 213 929 1298 1665 2265 2511 2074 1431 1393 1282 1328 1161 1104 1000 683 1097 1396 1423 1148 1322 1337 1187 1148 1078 948 740 720
823 775 880 871 570 638 513 765 680 385 50 116 52 135 135 40 67 266 661 844 1608 2408 2395 2021 1861 1764 1590 1795 1737 1424 1527 1053 838 1047 1185 1253 1287 1328 1355 1476 1452 1411 1262
797 879 796 813 685 903 943 1075 544 210 100 80 67 43 44 48 46 69 244 407 769 1139 2174 2140 1873 2013 1582 1628 1676 1776 1782 1742 1997 1850 1837 1670 1568 1401 1644 1541 1333 1429 1637
1259 599 754 778 720 908 951 666 789 566 217 139 74 47 69 71 58 76 153 118 318 696 1132 1686 1466 1926 1440 1561 1666 1684 1661 1862 1894 1840 1818 1694 1676 1645 1625 1545 1453 1542 1307
1367 1179 693 500 789 984 930 646 241 55 108 96 40 47 53 64 56 67 86 125 116 288 388 786 772 1125 1254 1521 1324 1576 1350 1377 1348 1436 1828 1666 1646 1601 1409 1366 1138 1020 960
1297 1250 1057 945 1091 1062 848 235 171 49 9 0 34 32 43 34 39 64 95 182 149 98 176 324 479 527 810 1255 1152 931 814 928 1049 1092 1095 1224 1217 1237 1061 963 881 912 702
1157 1094 1026 833 853 945 919 761 690 244 8 0 24 3 4 0 4 72 94 185 60 105 63 71 117 219 670 707 501 1122 1262 1366 1241 924 809 642 527 339 193 267 239 60 0
1170 1155 979 829 1042 1214 981 893 834 328 0 0 16 15 1 0 3 14 39 167 59 78 36 86 190 158 488 210 776 1019 1228 1085 785 183 0 0 0 0 0 0 0 0 0
1173 1336 1072 1021 1368 1261 1086 854 854 662 0 0 0 34 62 2 0 0 0 15 37 72 43 161 223 119 126 34 236 585 1031 492 52 0 0 0 0 0 0 0 0 0 0
1216 1184 1243 1303 1039 1403 1024 851 1034 921 0 0 0 0 0 0 0 0 0 0 0 0 4 62 261 176 58 2 0 44 473 0 0 39 2 0 0 0 0 0 0 0 0
870 1159 1303 1296 1245 1226 1378 1168 1078 1261 718 0 0 9 0 0 0 0 0 0 0 0 0 123 192 224 78 1 0 0 106 0 0 7 2 10 32 8 0 0 0 3 26
557 1047 1592 1327 1335 1411 1338 964 1183 1288 652 884 238 32 0 0 0 7 0 0 0 6 22 9 13 102 58 1 0 0 44 0 0 0 0 0 4 50 132 25 0 16 26
664 780 1408 1716 1760 1463 1367 1226 1268 1538 1226 954 835 242 117 107 68 45 0 0 1 10 20 35 28 11 12 0 0 4 0 0 0 0 0 0 0 0 0 2 11 13 17
1072 977 1341 1510 1814 1545 1450 1586 1287 1362 1692 1058 639 1071 317 49 97 175 19 15 8 7 25 63 45 45 28 0 0 4 0 0 0 0 0 0 0 0 0 0 0 0 0
984 1276 1184 1784 1756 1634 1429 1584 1844 1636 1675 1853 1443 686 875 578 108 103 203 27 10 6 19 20 92 36 23 16 21 54 0 0 0 0 0 0 0 0 0 0 0 0 0
1206 1083 1328 1489 1776 1754 1652 1411 1446 2185 2182 1828 1961 1724 951 640 382 135 133 107 85 23 6 0 17 35 34 27 10 98 29 19 0 0 0 0 1 0 0 0 0 0 0
966 1523 1327 1470 1760 1832 1789 1619 1408 1759 2339 2200 1982 2095 1976 1553 988 401 146 96 194 66 25 23 0 321 83 98 58 23 25 32 24 29 27 14 11 29 13 0 0 0 0
970 1262 1477 1537 1700 1781 1807 1784 1616 1662 1844 2145 2195 2213 2176 1963 1630 1134 634 91 296 302 72 43 47 119 296 140 89 45 41 44 78 45 32 30 83 46 55 4 0 0 0
1474 1330 1745 1983 1913 1897 1799 1791 2006 1945 1796 1887 1948 2046 1929 2044 2051 1772 1263 670 208 291 439 130 136 108 176 176 59 61 65 58 152 55 74 141 117 45 9 16 2 0 0
2192 1777 1657 1917 2142 2140 2103 1980 1796 1868 2084 2081 1968 2045 2183 2182 2148 2062 1970 1816 1231 466 210 345 271 192 163 188 213 65 71 74 80 81 53 82 73 71 18 18 27 1 0
1463 2081 2176 2071 2039 2275 2300 2312 2190 2074 1989 1975 1974 1955 1909 2113 2221 2356 2383 2350 2200 1899 1204 230 194 233 173 88 179 163 111 80 105 73 84 89 81 88 64 20 28 29 0
1860 1456 1758 2154 2159 2360 2523 2466 2453 2358 2253 2150 2089 2054 2087 1972 2116 2156 2237 2394 2500 2484 2282 1685 1118 436 144 80 36 146 156 138 180 122 145 86 70 75 76 26 55 52 19
2445 2265 1818 1843 2211 2165 2345 2681 2738 2644 2478 2401 2367 2313 2252 2274 2179 2166 2284 2171 2298 2468 2575 2491 2181 1833 1308 854 360 21 49 88 182 298 194 138 56 55 31 40 39 43 0
2442 2608 2605 2421 2118 2176 2419 2467 2657 2799 2764 2746 2668 2629 2621 2596 2545 2476 2342 2344 2287 2140 2170 2468 2476 2313 1934 1595 1171 724 74 36 73 329 176 103 102 85 41 22 25 9 7
2704 2666 2707 2846 2868 2753 2617 2770 2799 2723 2616 2618 2680 2808 2855 2876 2868 2848 2778 2668 2551 2469 2352 2226 2187 2239 2316 2296 2043 1597 966 101 57 261 413 231 219 83 42 55 23 2 1

GFSMA_con_mucape_045.txt.gz
CAPE
410 603 551 458 590 657 393 559 626 652 213 56 481 608 496 491 285 797 1384 1724 1768 1659 813 542 689 977 1146 1359 1343 1547 1402 1339 1261 1250 1153 1233 1104 907 630 700 694 489 647
368 420 491 589 604 482 344 468 718 471 100 44 116 690 447 506 425 833 1187 1649 2110 2039 1540 1059 796 672 842 875 941 769 1137 1261 1409 1380 1171 1283 1246 1171 1098 1135 1035 988 1109
559 614 615 572 583 540 417 464 243 160 49 36 92 391 438 182 210 695 896 1154 1677 1738 1636 1415 1354 1241 1420 1406 1230 1232 1067 586 583 765 999 1000 1171 1222 1256 1327 1211 1154 1324
669 573 782 808 546 578 649 835 547 155 50 36 48 81 136 36 36 254 535 745 1161 1398 1910 1839 1626 1662 1539 1500 1583 1514 1448 1454 1392 1593 1586 1544 1404 1396 1374 1384 1220 1209 1168
639 675 823 895 692 856 713 853 598 390 97 83 33 46 42 45 42 58 117 209 429 731 1053 1510 1730 1695 1435 1081 1025 1012 1363 1690 1680 1512 1499 1575 1322 1321 1360 1268 1198 1168 1165
1032 490 645 686 623 941 763 388 481 195 158 63 30 36 52 61 50 92 120 45 128 347 562 642 752 751 1123 1177 1435 1218 1108 1081 1200 1123 1212 1174 1187 1069 1063 796 748 754 799
1115 736 585 465 734 830 613 341 43 19 54 51 32 25 32 49 46 83 75 149 72 99 121 286 351 409 503 1183 1018 1059 837 789 861 960 955 979 1031 1008 792 601 554 441 321
1288 1175 799 798 903 804 701 413 197 82 9 7 23 19 21 14 12 44 90 148 133 85 93 78 128 147 290 603 460 785 795 846 1107 802 653 506 333 133 19 0 0 0 0
935 986 851 741 831 930 751 589 563 40 0 0 4 0 0 0 3 11 63 80 165 102 94 20 42 60 228 393 343 739 1195 1122 806 524 54 0 0 0 0 0 0 0 0
795 959 816 562 853 929 730 851 726 482 0 0 0 65 11 0 0 0 0 34 147 70 56 39 61 95 120 161 139 417 1013 721 702 0 0 0 0 0 0 0 0 0 0
767 977 1021 814 871 1193 1092 949 569 434 32 0 0 0 11 0 0 0 0 0 22 23 13 31 63 150 114 81 9 27 723 529 49 34 3 0 0 0 0 0 0 0 0
702 926 1081 981 912 945 1151 1023 665 485 334 0 0 0 2 1 0 0 0 0 0 0 0 0 6 168 155 86 16 25 382 267 0 18 12 38 21 0 0 0 0 0 0
664 742 1019 1045 1140 983 1030 1061 1002 1030 849 183 0 0 0 0 0 0 0 0 4 19 12 9 16 166 236 128 67 60 145 98 0 0 0 0 34 131 200 102 4 0 0
360 597 865 1047 999 1102 1154 1150 945 932 1151 676 440 44 32 0 0 6 27 10 11 17 24 15 37 86 157 195 84 4 0 0 0 0 0 0 0 1 22 60 55 25 0
437 323 568 1106 1207 1215 1386 1305 1059 948 1228 1195 662 612 204 74 105 147 65 39 25 32 22 38 49 62 61 64 86 43 5 15 0 0 0 0 0 0 0 0 0 0 0
433 470 525 700 1002 1332 1545 1558 1174 1168 1180 1344 1334 706 685 585 109 73 199 157 47 27 28 32 46 76 88 114 51 27 17 23 20 0 0 0 0 0 0 0 0 0 0
485 672 737 895 1045 1111 1362 1594 1345 1345 1323 1407 1453 1520 1118 626 615 378 136 179 264 157 60 48 19 37 62 100 42 34 23 11 28 7 2 0 0 0 0 0 0 0 0
680 431 837 972 1215 1288 1306 1460 1517 1393 1626 1620 1825 1767 1783 1701 1242 693 283 146 166 225 198 154 97 43 1 18 15 20 30 14 30 34 17 2 0 0 0 2 0 0 0
736 864 1067 988 1095 1311 1385 1361 1385 1542 1429 1604 1755 1959 1870 1817 1775 1760 1625 1250 252 69 160 179 188 133 82 65 31 5 9 21 1 20 29 12 1 10 0 11 7 1 0
1332 1133 881 858 1171 1273 1467 1505 1527 1562 1605 1503 1692 1863 1940 1963 1881 1800 1867 1831 1576 914 50 11 151 245 151 60 66 56 38 12 1 1 4 36 4 1 4 20 1 9 5
1279 1395 1459 1240 1180 1264 1340 1453 1589 1660 1660 1626 1522 1592 1705 1823 1908 1897 1692 1586 1658 1645 1478 928 233 56 173 187 86 50 19 6 13 17 9 24 24 3 41 39 24 1 8
1470 1213 1055 1089 1348 1509 1670 1686 1724 1662 1768 1744 1654 1631 1674 1877 1907 1925 1942 1910 1781 1759 1668 1692 1629 1298 827 163 44 59 27 15 17 31 6 18 18 34 15 30 55 17 20
1197 1562 1535 1227 1283 1396 1744 1965 2003 1949 1985 2006 1867 1734 1750 1757 1832 1879 1905 2048 2051 2052 2078 1768 1532 1381 1173 1035 807 387 69 22 19 22 20 9 53 31 56 24 18 13 15
1576 1458 1389 1647 1679 1680 1718 1907 2142 2129 1999 2063 2054 2030 2036 2042 2067 2083 2082 2083 2068 2002 1856 1791 1746 1642 1595 1616 1643 1478 1127 851 598 295 26 2 16 95 95 52 71 87 53
2051 1894 1779 1631 1454 1693 1908 2091 2192 2267 2200 2194 2181 2224 2280 2298 2308 2350 2419 2483 2492 2468 2404 2368 2211 2055 1937 1856 1841 1863 1786 1592 1284 987 535 54 26 34 221 129 91 126 77
2234 2305 2325 2262 2122 1969 1760 1931 2009 2066 2020 2098 2203 2346 2430 2469 2507 2577 2675 2735 2803 2733 2571 2500 2501 2454 2452 2439 2356 2240 2119 1874 1812 1574 1244 760 165 21 104 158 106 45 77

GFSMA_con_mucape_048.txt.gz
CAPE
496 542 429 202 592 613 379 513 643 468 122 313 418 573 604 313 459 836 1253 1202 1554 1170 556 897 1131 1141 1141 1191 1160 1262 1172 1150 1020 1054 1049 1159 1023 975 758 972 1009 862 803
346 435 446 561 547 498 343 512 749 306 68 45 193 507 355 390 502 913 1171 1815 1755 1808 698 507 500 578 770 1015 1013 891 1123 1087 1214 1279 1116 1133 1243 1252 1170 1156 1197 1107 1163
335 437 540 564 536 407 449 449 220 41 47 58 106 498 323 310 514 808 1154 1149 1518 1361 1358 1212 974 783 814 764 793 928 732 483 493 524 784 936 1105 1072 1121 1183 1136 1040 1072
487 606 614 664 504 550 564 627 240 63 63 67 80 196 229 95 298 575 685 835 1273 1562 1480 1248 1060 1171 1234 1282 1509 1196 1158 1165 1220 1250 1285 1269 1222 1211 1166 1194 1004 973 993
536 524 686 736 583 784 593 822 569 100 108 80 60 81 74 35 48 140 312 395 615 974 1091 1258 1480 1512 1138 1042 1099 1086 1013 1264 1143 1261 1285 1175 1059 885 1010 900 716 732 731
645 668 757 720 669 804 665 330 402 257 111 54 41 51 51 46 50 68 71 131 222 489 612 799 922 895 1171 1153 1471 1233 1135 965 1000 971 926 887 741 681 739 667 677 703 589
930 717 539 618 745 657 611 530 60 47 93 44 28 34 47 49 58 58 73 79 80 164 145 305 485 548 525 982 1161 1107 870 774 794 861 802 766 781 705 464 302 227 64 0
1096 903 537 540 764 707 508 282 77 73 38 30 23 8 20 18 20 34 64 94 100 81 102 119 237 256 273 560 597 617 635 638 979 700 504 333 204 71 0 0 0 0 0
1111 1235 1034 730 744 670 580 523 281 42 7 22 11 0 1 1 0 7 19 50 83 108 71 63 83 120 194 391 318 651 811 1038 778 451 53 0 0 0 0 0 0 0 0
599 882 966 680 716 766 715 664 566 409 15 0 0 26 0 0 0 10 0 0 23 112 75 65 100 91 166 264 140 275 428 544 689 21 0 0 0 0 0 0 0 0 0
472 876 823 714 569 823 793 773 806 426 200 0 0 18 16 0 0 0 0 0 0 35 40 22 61 172 177 191 124 60 228 481 289 12 0 0 0 0 0 0 0 0 0
409 665 919 854 773 823 957 937 849 323 256 0 0 0 0 0 0 0 0 0 0 0 19 9 5 85 282 239 127 62 94 397 178 0 0 17 9 0 0 0 0 0 0
370 492 724 833 927 856 861 976 1015 713 356 238 0 0 0 0 0 0 0 0 0 1 9 3 0 32 209 316 196 312 241 142 110 0 0 0 22 93 191 165 63 1 0
163 424 570 798 882 910 994 933 983 1036 813 720 585 83 7 0 0 0 0 0 10 13 12 136 16 19 123 354 336 206 179 3 2 0 0 0 0 21 51 105 189 163 44
118 256 513 844 858 963 957 1043 1024 1024 994 1017 913 599 306 98 20 1 0 33 47 31 33 81 57 21 26 135 418 396 292 55 0 0 0 0 0 0 0 0 1 0 0
356 394 434 732 951 991 969 999 1258 1261 1037 1136 1133 1064 720 552 321 90 106 124 62 32 38 0 22 4 43 91 105 366 170 85 18 0 1 0 0 0 0 0 0 0 0
83 384 417 486 671 944 1089 1104 1276 1552 1259 1125 1187 1239 1220 844 529 510 326 99 79 136 164 159 93 47 49 62 100 183 99 54 12 0 0 0 0 0 0 0 0 0 0
34 227 487 539 781 883 1011 1112 1255 1498 1571 1351 1306 1289 1407 1457 1456 1356 1197 467 173 88 94 151 196 191 186 144 71 51 47 0 0 3 0 0 2 0 0 0 0 0 0
183 223 440 614 758 1071 1170 1106 1228 1329 1582 1668 1610 1602 1686 1517 1662 1664 1569 1503 1317 703 199 53 74 74 147 134 126 87 52 82 8 0 8 3 6 10 4 2 0 2 14
425 408 452 561 762 960 1258 1343 1307 1315 1308 1510 1687 1724 1732 1767 1781 1782 1606 1608 1510 1526 1590 1554 1220 700 210 29 25 103 134 37 28 10 6 9 6 8 8 12 6 1 24
510 479 494 556 760 979 1144 1435 1526 1492 1481 1471 1533 1699 1816 1699 1483 1609 1774 1673 1449 1459 1364 1197 1042 872 969 984 889 572 361 188 181 52 16 43 15 12 32 5 26 15 12
934 846 815 735 713 837 856 1075 1298 1633 1659 1613 1590 1569 1671 1605 1594 1607 1625 1648 1662 1595 1354 1213 1019 1045 962 789 749 752 749 729 446 180 1 35 17 34 28 19 6 24 46
1144 1144 993 923 1030 1194 1123 1116 1212 1518 1674 1748 1771 1773 1729 1641 1545 1771 1599 1709 1821 1912 1893 1879 1708 1686 1642 1566 1463 1329 1141 1002 905 840 821 860 445 222 67 3 11 40 25
830 1227 1332 1126 980 1037 1048 1268 1341 1376 1658 1773 1777 1850 1899 1970 1910 1906 1919 1993 1916 1970 2051 2101 2138 2202 2232 2265 2204 2127 2088 1981 1870 1729 1563 1425 1270 991 595 171 16 19 97
1214 1147 1213 1500 1542 1361 1077 1149 1348 1345 1622 1798 1952 1980 1955 2017 1875 1878 1909 2048 2144 2131 2208 2340 2438 2532 2524 2431 2413 2478 2421 2303 2036 1950 1739 1864 1625 1519 1333 1055 321 0 56
1735 1615 1578 1481 1403 1591 1523 1544 1567 1472 1543 1742 1969 2063 1876 1930 2014 2090 2125 2216 2330 2503 2671 2751 2682 2574 2475 2401 2334 2368 2303 2225 2157 1989 1717 1570 1498 1308 1600 1195 1070 812 3

GFSMA_con_mucape_051.txt.gz
CAPE
1466 1268 1121 1205 1641 1467 1499 1591 1576 1187 1066 1233 963 1234 1245 1151 906 449 557 1274 1017 659 724 1241 1296 1077 1138 1072 976 1004 999 941 932 1055 1108 1133 988 1004 1049 1108 1073 985 999
1350 1471 1556 1576 1551 1388 1381 1667 1723 871 618 448 1290 1145 1151 1029 842 581 575 771 917 1014 506 405 499 636 714 906 901 858 986 984 1092 1207 935 761 890 900 1038 982 1087 976 958
1274 1478 1500 1488 1364 1457 1369 1409 1109 661 392 663 1483 1325 1101 997 489 632 852 1304 1046 1031 1116 649 562 463 562 599 581 618 549 432 369 365 571 1063 1102 1063 978 1014 979 891 774
1106 1725 1596 1556 1539 1568 1657 1309 913 491 466 599 963 938 982 734 489 578 605 912 1078 815 1130 1057 992 1130 1089 1268 1148 1115 1039 1047 1130 1111 1035 1010 816 882 897 898 951 872 798
1117 1561 1772 1702 1778 1808 1688 1544 1439 625 435 356 448 643 535 253 221 207 492 649 840 871 910 1217 1296 1194 960 849 908 891 879 976 1082 882 771 1077 985 746 662 648 559 670 688
1205 1622 1953 1974 1716 1973 1636 1288 1667 261 775 414 88 262 274 270 174 411 352 236 403 668 661 982 857 734 965 1077 1209 1276 1140 1019 965 922 870 755 677 613 677 632 633 437 237
1483 1859 1523 1740 1602 2492 2159 1316 828 610 106 178 160 120 43 48 358 343 493 386 332 427 403 486 715 511 494 649 996 920 836 751 785 834 695 663 697 560 353 184 79 0 0
1881 1948 1691 1521 1999 1729 1723 1488 1287 246 95 108 136 95 81 60 84 204 462 539 658 555 449 393 459 687 599 555 520 542 569 520 960 652 420 244 167 53 0 0 0 0 0
1955 2192 1907 1610 1991 2365 1600 1741 1342 939 62 172 256 78 53 38 68 114 388 605 848 811 702 736 491 546 722 619 420 213 669 967 832 427 62 7 0 0 0 0 0 0 0
1829 2252 2335 2001 2006 1879 1970 1846 1561 1048 322 188 229 309 51 159 26 54 206 369 622 770 790 684 504 624 797 721 337 193 270 577 668 127 0 0 0 0 0 0 0 0 0
1778 1746 2132 2042 1873 1938 2148 1854 2023 1831 563 135 211 615 722 54 25 68 25 155 351 479 660 714 462 571 887 889 617 223 284 534 496 208 0 0 0 0 0 0 0 0 0
1529 1713 1831 2046 2030 1872 2120 1975 1991 1906 1154 124 156 566 437 369 170 55 29 201 190 289 407 648 624 558 666 909 914 342 276 334 393 108 42 95 65 4 1 0 0 0 0
1274 1573 1943 2116 1999 2223 2181 2224 2257 2021 1661 1091 530 41 139 223 199 213 187 201 258 382 394 475 552 680 575 833 959 831 690 210 257 72 0 20 83 177 198 132 61 29 10
860 1497 1915 1973 2096 2188 2154 2288 2166 2146 1996 1706 1641 874 361 208 106 182 214 282 362 525 560 912 715 663 636 789 1013 938 813 275 42 2 0 0 1 20 83 170 255 295 183
522 1140 1654 1832 1971 2100 2222 2355 2164 2392 2359 2324 2102 2149 1495 903 562 269 254 293 404 468 416 493 547 966 847 879 965 1095 1182 749 252 3 0 0 0 0 0 0 2 0 0
812 728 1534 1738 1935 2022 2243 2448 2074 2382 2531 2260 2063 2271 2236 1678 1248 877 741 520 422 473 548 486 546 681 823 596 742 841 1064 664 402 111 1 0 0 0 0 0 0 0 0
1110 1319 1616 1732 1880 1999 2127 2374 2297 2240 2570 2585 2414 2408 2498 2390 1837 1420 1108 893 757 630 635 605 698 652 935 1147 945 827 756 860 630 125 15 0 0 0 0 0 0 0 0
1178 1343 1585 1801 1824 1815 1941 2171 2100 1746 2352 2660 2673 2562 2432 2271 2454 2310 1824 1754 1435 1198 843 1688 1214 913 1384 1320 1350 1311 934 421 524 226 41 0 0 0 0 0 0 0 0
1387 1139 1281 1846 1880 1825 1884 1982 2051 2156 2239 2399 2734 2775 2673 2568 2655 2367 2571 2259 2016 1773 1346 1032 1094 938 963 824 1043 1362 1028 1221 643 214 42 0 0 0 0 0 0 0 0
1685 1415 1502 1846 1845 1873 1920 2017 2095 2239 2372 2344 2611 2798 2818 2829 2876 2933 2864 2859 2683 2515 2433 2028 1792 1664 1575 1676 1045 902 870 842 777 495 208 140 53 1 0 0 0 0 0
1860 1913 1686 1698 1662 1594 1449 1881 2081 2251 2418 2510 2547 2709 2726 2571 2250 2509 2719 3478 3196 2600 2271 1948 1809 1697 1665 1642 1787 1477 1371 1375 1502 1160 841 687 505 242 90 0 0 0 0
1880 2212 2004 1807 1683 1381 794 949 1642 2185 2537 2620 2625 2668 2748 2023 1875 1718 1671 1655 1951 3444 2838 2544 2300 2386 3423 2695 2358 2212 2078 1906 2224 1947 1339 1098 1109 958 881 677 377 2 0
1986 2177 1857 1859 2136 2258 1034 926 1046 1910 2420 2667 2869 2738 2516 2092 2011 2524 2173 1821 1654 1678 1669 2963 3475 3529 3692 3712 3676 3102 3230 2801 2488 2059 2116 1693 1546 1399 1389 1309 1161 1010 301
2504 2314 2099 2301 2352 2322 1403 931 809 1386 2524 2941 2990 2843 3018 3137 2913 2575 2784 2840 2967 3016 2471 1860 2146 2892 3457 3766 3815 3711 3744 2941 2399 2235 2085 1919 1873 1811 1466 1594 1501 1438 1312
1984 2247 2243 2354 2493 2550 1462 1208 1091 1705 2048 2845 2948 2897 3081 3161 2612 2253 2544 2965 3361 3366 2352 2246 2150 2279 2672 2658 2548 2540 2494 2383 2341 1933 1909 1661 1570 1504 1441 1301 1158 1187 1214
2247 1798 1894 2485 2144 2732 1823 1227 1040 1582 2146 1964 2753 3054 2010 1956 2231 2066 2210 2606 3299 2937 2921 3268 3498 2970 2827 2699 2645 2743 2658 2677 2650 2381 2469 2093 1980 1662 1125 1355 1062 1889 911

GFSMA_con_mucape_054.txt.gz
CAPE
1271 1207 1370 1287 1231 1194 1201 1251 1265 1286 1528 1057 960 1063 857 805 528 268 810 1054 781 705 1105 1472 1215 1191 1194 1106 920 976 997 999 1186 1180 1249 1159 1143 1004 946 842 965 940 983
1482 1500 1353 1332 1296 962 932 997 1230 630 363 459 1145 1063 969 798 651 592 672 767 1146 718 478 482 583 694 706 927 898 847 939 953 976 893 588 431 606 894 740 769 727 791 707
2043 1642 1651 1752 1381 1672 1554 1329 988 649 137 250 960 1144 984 760 749 756 873 1089 938 1185 939 541 482 453 539 638 574 601 625 479 308 339 682 1108 911 774 807 764 885 843 844
1854 1621 1627 1288 1536 1097 548 576 305 139 151 95 405 660 807 575 700 762 773 856 770 1048 909 1012 957 1098 1063 993 915 901 1036 1064 1128 1141 981 852 846 717 806 764 635 631 640
1619 1232 1173 1238 1866 789 520 267 115 89 117 72 190 422 460 321 415 311 594 687 806 741 733 1200 1115 991 896 844 1039 941 838 913 989 886 675 818 881 709 590 505 601 646 572
1684 1267 1390 1221 1247 755 614 345 380 482 136 93 74 151 230 311 376 373 253 156 280 440 346 720 1017 1067 1093 955 1153 1309 1118 1031 920 858 793 640 575 568 570 545 420 177 7
1847 1544 1265 1354 945 918 1179 1453 1082 1179 221 265 75 84 159 305 450 328 226 107 339 339 273 400 751 299 873 846 822 812 717 696 765 798 560 523 540 417 245 108 0 0 0
2106 1952 1734 1495 947 701 1201 1265 1155 436 273 250 103 64 65 24 40 116 194 272 340 325 344 247 240 521 322 29 381 497 472 389 874 575 305 153 102 16 0 0 0 0 0
2082 2257 2187 1657 1473 1318 798 1054 1555 830 285 396 756 170 25 61 24 153 399 352 617 512 435 562 361 299 415 353 388 341 323 879 700 345 33 0 0 0 0 0 0 0 0
2034 2194 2383 2129 1665 1131 1415 1077 1543 1023 931 177 370 142 634 551 132 332 207 302 438 470 591 559 470 541 550 552 368 118 367 741 611 174 0 0 0 0 0 0 0 0 0
2205 1990 2446 2382 2220 1235 1428 1627 1639 1643 744 348 48 202 455 81 199 197 173 320 354 344 393 614 425 435 667 636 565 604 287 624 676 567 18 0 0 0 0 0 0 0 0
1944 2255 2205 2503 2384 1637 1652 1668 1765 1867 1616 930 153 344 156 208 253 233 135 345 282 309 318 404 478 511 525 762 903 768 476 387 469 422 166 145 76 3 0 0 0 0 0
962 1675 2424 2601 2238 2602 2222 2663 2200 2207 2387 1312 1180 153 185 286 408 437 379 250 336 442 545 613 588 672 577 657 700 912 823 284 226 149 21 45 129 143 122 98 57 3 6
730 1065 2180 2259 2417 2288 2268 2440 2225 1985 2255 1880 1959 1215 243 217 220 309 453 467 499 685 749 1291 735 766 883 927 864 1106 840 299 65 0 0 0 1 9 74 139 231 348 417
671 887 1388 2090 2052 2212 2399 2406 2047 2478 2289 2424 2077 2070 1852 769 605 443 470 507 494 651 496 1055 344 1208 876 860 986 1165 1251 789 409 125 1 0 0 0 0 0 7 34 89
1396 975 1274 1554 1533 1876 2297 2596 2059 2320 2647 2268 2056 2175 2317 1181 1054 901 793 703 661 679 630 392 542 674 1006 987 691 1237 1250 956 781 587 343 56 0 0 0 0 0 0 0
1598 1840 1443 1324 1332 2032 2236 2527 2323 1999 2719 2805 2462 2209 2790 2833 1974 1160 1072 1033 923 853 816 587 494 718 1678 1943 1634 1489 1287 1334 931 477 347 223 94 1 0 0 0 0 0
1852 2000 1879 1676 1481 1745 2244 2561 2438 1748 2229 2552 2765 2759 2655 2249 2980 2818 1786 2006 1671 1780 1068 2518 1605 808 1831 2123 1896 2005 1720 1202 877 359 345 228 111 27 0 0 0 0 0
2110 1890 1964 2008 1816 1702 2145 2488 2555 2281 2099 2322 2538 2786 2777 2822 2859 2419 2308 1996 1928 2132 2403 2059 1910 1482 1422 1588 2076 2916 2851 2293 1483 821 476 230 143 32 4 0 0 0 0
2303 2203 2187 2128 2028 1744 1668 2087 2251 2403 2313 2313 2545 2630 2950 3150 3269 3407 3374 3289 3204 3025 2831 2364 1950 1622 1408 1817 1666 1781 1948 1766 1644 1453 1129 875 731 618 461 243 69 49 32
2403 2339 2330 2297 2155 1883 1349 1933 1982 2053 2359 2442 2445 2792 2918 2861 2687 2980 3290 4365 4637 3382 2404 1906 1693 1615 1612 1689 2297 2043 2353 2360 2610 2531 2352 2222 2120 1751 1273 740 579 491 340
2859 2836 2331 2397 2309 1819 930 794 1233 1805 2088 2498 2634 2751 2879 2376 2415 2327 2306 2254 2199 3779 4600 3089 2321 2379 4340 3599 2760 2722 2551 2840 3319 2868 3241 2858 2700 2616 2288 1967 1191 983 1047
3020 3289 2516 2573 2997 2769 1276 767 715 1493 1767 2534 3272 2738 2525 2030 2449 2938 2349 2085 1955 1826 1683 2684 3637 3844 4287 4474 4953 4982 4156 4178 4281 4105 4124 3573 3087 2999 2947 2597 2021 1689 1345
3331 3155 2852 3299 3341 3097 1769 1311 835 1631 2355 2703 2928 2838 3460 3227 2731 2233 2602 2760 2893 3153 2871 2515 2648 2896 3058 3215 4136 4247 4356 3701 3657 3694 3700 2904 2993 2968 2772 2579 1892 1493 1372
3093 3081 2910 3235 3278 3548 1893 1608 1374 1755 1845 2887 2899 3182 3438 3570 2839 2385 2800 3272 3245 3174 1879 1863 2031 2127 2174 2368 2768 2731 2792 3061 3254 3314 3540 3470 3507 3407 3309 2915 2623 1683 1252
3210 2819 2876 3260 2691 3369 2562 1851 1485 1858 2354 1971 3056 3668 2230 2192 2471 2261 2798 2858 3418 2579 2357 2776 2912 3023 3515 3491 3227 3073 2887 2723 2973 2871 3330 3731 3174 2763 2091 2067 1758 1663 1100

GFSMA_con_mucape_057.txt.gz
CAPE
1495 1595 1588 1079 982 1034 489 937 1553 1525 476 808 1215 1304 343 470 230 668 526 815 817 1113 1508 1546 1134 1294 1118 944 867 903 899 877 1084 982 936 764 674 589 704 674 712 760 707
1853 1995 1184 1448 2142 1966 1826 1729 1960 1051 969 504 857 1175 848 635 889 1076 563 913 910 533 473 574 574 586 621 809 616 681 519 605 593 409 249 433 756 935 827 749 832 824 782
1656 2292 1070 1630 1953 1567 1312 841 242 98 81 639 1053 1141 514 1202 653 1010 1342 946 1161 1020 673 536 495 454 530 598 570 597 615 519 299 316 682 1007 823 671 785 692 769 758 714
1873 1907 1639 1460 875 1121 1068 514 581 1090 84 795 776 1063 888 601 536 662 1173 1481 1227 1236 1016 1084 1040 967 890 975 961 900 1030 787 876 893 938 830 857 797 704 579 495 532 597
1628 1754 1489 1486 1641 1100 933 730 1591 337 59 277 396 566 956 254 904 85 301 832 732 1092 1451 1567 1354 977 787 802 926 1036 850 853 907 948 704 704 828 670 479 408 526 562 285
1437 1861 1797 1066 1585 1434 420 1412 275 1390 521 383 60 157 536 227 106 302 80 131 97 308 1068 1299 1105 791 1352 816 1048 1282 1117 975 850 779 685 509 428 457 467 456 196 12 0
1544 1864 2089 1464 1478 1890 587 800 96 500 69 34 36 55 32 15 151 112 84 203 143 226 21 311 718 1291 1043 1428 676 734 633 655 667 640 470 386 422 369 235 43 0 0 0
1916 1572 1648 1425 1494 1435 1352 927 1025 671 198 306 531 417 174 49 97 134 71 65 235 244 286 210 224 241 212 873 1361 573 364 322 711 545 265 111 114 19 0 0 0 0 0
1748 1947 1609 2222 1558 1929 1145 1376 1361 2657 919 50 328 830 268 286 313 46 134 258 444 648 403 524 317 308 399 518 266 382 450 417 637 317 45 0 0 0 0 0 0 0 0
1781 1903 1876 1722 2119 2096 2619 1828 1683 2207 2232 367 35 52 1101 405 722 1102 217 237 366 430 602 600 704 520 556 650 374 605 671 1123 809 264 6 0 0 0 0 0 0 0 0
2064 1683 2257 1818 2052 1626 1786 1819 1790 1900 1024 1422 116 79 376 56 817 1089 582 360 368 274 422 769 440 521 970 699 689 719 563 638 858 942 353 26 0 0 0 0 0 0 0
1919 2287 2047 2817 2112 1903 1970 1976 1949 1709 2681 1573 1206 513 248 453 492 179 104 540 285 346 278 357 513 491 542 887 1013 589 465 457 476 585 615 288 159 32 0 0 0 0 0
763 3142 3271 3022 2492 2556 2241 1934 2361 1972 2101 1500 1801 341 281 293 338 356 306 292 311 439 587 599 605 658 578 679 711 1132 749 298 260 185 187 157 172 206 191 159 145 75 22
601 3613 2623 2217 2365 2424 2352 2895 2150 1989 3036 1948 1880 2350 587 223 221 280 474 596 686 776 1040 1034 835 905 919 965 1134 972 873 380 227 16 2 4 4 30 103 151 210 265 318
817 1105 2124 2258 2118 2057 2666 2926 1816 3020 2518 2431 2641 2433 1714 649 589 422 452 524 610 825 892 1881 450 1194 745 724 1015 1427 1915 1066 694 514 290 17 0 0 0 7 23 66 141
2622 1450 1960 1651 2122 2630 2736 3675 2594 2768 3134 2309 1651 3396 2939 1307 1228 872 743 667 638 601 625 590 616 1059 932 898 860 1196 1264 802 803 817 704 538 329 80 0 0 0 0 0
3267 3041 2668 2304 2271 2357 2785 3881 3639 2641 2746 3285 3005 2531 3519 3844 2112 1320 960 844 815 790 754 710 617 1360 2715 3289 2664 2422 1773 2260 1477 797 632 555 424 284 154 4 0 0 0
3029 3488 3141 2931 2432 2099 2970 3568 2624 2300 2691 2782 2926 3505 2553 2232 3997 3922 2319 3596 1923 2367 1172 2675 1751 1601 2871 2961 3191 3513 1987 1742 1883 1117 1011 696 404 348 211 69 4 4 0
3721 2432 3266 3532 3039 2417 3145 3457 3639 3268 2975 3032 2988 3319 3228 3529 4145 2836 3631 2216 1623 2341 2355 2163 2299 2148 2239 2116 2623 3450 3612 3134 2269 1608 1332 1154 1156 1406 1643 1645 1524 810 472
3722 3615 3693 3655 3370 2961 2772 2733 3208 3399 3353 2821 3163 3288 3382 3700 4176 4536 3838 4493 3716 3315 2543 2330 2352 2414 2464 2846 2405 2283 2596 2660 2687 2172 1941 1907 1847 1824 1809 1630 1658 1657 1634
3654 3841 3954 3817 3673 2856 2078 2842 3170 3324 3636 3308 3274 3432 3307 3292 2612 3646 3240 4051 4127 3745 2712 2795 2570 2245 2041 2089 2778 2592 2717 3206 3627 3152 2858 3216 3195 3573 3367 2639 2551 2386 2126
3842 3976 3885 3911 3801 2191 1436 1222 1968 2736 3338 3583 3691 3682 3738 2452 2243 2174 2393 2490 2491 3927 4722 3208 2608 2514 3618 3493 3140 2999 3386 3224 3534 3255 4407 4537 4313 4107 3960 3784 2961 2384 2123
3964 4176 4061 3980 4029 3906 1605 1175 865 2212 2916 3302 3632 3798 3280 1881 2637 3722 2707 2350 2351 2273 2109 2966 3416 3548 3716 4121 4589 4651 3437 3933 4536 4266 3917 4054 3745 3868 3924 3145 2890 2497 2108
4002 4124 4168 4208 4201 3964 2434 1562 1092 2153 2289 2855 3517 3678 3987 3719 3716 3463 3988 3768 3524 3696 3466 2639 2718 3308 3978 4226 4454 4089 4193 4191 4322 4111 4106 3886 3999 4011 4277 3995 3002 2215 1636
4138 4095 4170 4312 4379 4263 2392 1989 1504 2021 2166 2922 3123 3202 3577 4082 3479 2671 3323 3554 3901 4082 2310 1759 1939 2706 2929 2717 2090 2664 3022 3729 3764 3492 3876 4244 4050 3827 2980 2664 2488 1351 1249
4179 3612 3926 4310 3995 4506 3419 2261 1779 2253 2449 2153 3218 3586 2499 2288 2705 2757 3286 3714 3880 4056 3820 3370 3312 2713 2583 2764 3458 3488 3618 3491 3781 3740 3901 3760 3273 2599 2380 2757 2492 2783 2169

GFSMA_con_mucape_060.txt.gz
CAPE
885 778 1118 674 751 1124 550 735 999 1555 540 843 1243 911 684 958 432 354 963 1941 2061 1893 1583 1155 1131 1091 1096 732 807 713 721 797 865 818 418 245 305 695 739 625 709 816 812
1113 1436 1016 1023 366 608 1568 1655 1059 1327 291 863 420 856 561 1061 726 413 450 933 1370 1528 1593 884 675 588 583 553 528 826 342 351 307 184 156 535 913 757 743 756 755 882 831
1680 2489 1236 2281 2274 207 2191 1008 1510 1177 886 889 1045 765 1398 1343 1034 1279 571 732 987 1224 1045 835 713 510 526 470 442 459 521 571 415 385 675 951 773 789 698 756 718 572 611
2642 923 808 429 1210 2463 113 178 1283 640 910 347 828 247 525 1073 1307 1312 1529 1114 1199 956 1263 1249 1117 875 556 872 869 936 921 924 794 824 843 756 681 819 651 498 441 498 509
2499 653 86 665 2387 522 1527 736 1558 1077 52 893 239 321 711 1013 525 753 1408 1802 1719 906 1001 1660 1751 1634 950 815 878 997 906 791 1085 1016 858 699 712 549 422 380 449 296 2
2297 2201 1719 2672 2785 583 1390 1973 409 989 1067 210 40 136 132 1024 660 1009 521 989 1263 1449 1353 887 1311 1065 1514 1182 1124 1322 1192 992 904 747 626 465 370 405 410 366 112 0 0
2473 3326 2578 2218 1696 173 625 1915 1459 670 858 467 472 918 589 337 312 1005 624 486 402 1075 1202 1505 1074 1144 720 1783 1273 1203 972 659 745 589 498 308 370 371 302 86 0 0 0
2857 2992 2735 2557 1441 860 1729 1934 393 712 1662 954 1050 704 565 377 670 74 841 601 656 476 486 624 1010 1185 1400 722 896 1266 720 618 572 562 315 144 150 123 28 0 0 0 0
2770 2698 2867 2639 2405 2072 2359 2006 1315 2207 1602 641 1124 1171 787 140 656 665 339 844 821 412 948 940 844 789 722 1229 1526 1009 807 481 857 482 183 50 75 15 0 0 0 0 0
2854 3035 2972 2966 2698 905 2396 2441 2123 1913 563 1385 1286 840 988 789 541 463 1191 1066 864 809 967 1467 774 850 1086 1171 1005 825 731 441 1184 824 298 81 80 16 0 0 0 0 0
3287 2645 2893 3187 2765 2785 2833 2453 2104 2307 2433 1388 1624 1065 1261 1369 1749 900 696 1145 1030 1156 1379 1199 1128 933 1195 1100 868 629 436 607 973 1036 789 321 126 0 0 0 0 1 3
2983 3213 2896 3243 3433 2611 2404 2854 3064 2753 2760 2999 1923 2062 913 964 1149 1210 1087 949 1129 977 1118 1263 921 939 1374 1277 1321 1130 603 433 507 595 726 590 313 136 4 0 0 0 0
1918 2851 3535 3201 2987 3515 3164 2899 3167 3072 3189 3240 2843 2432 1200 407 300 1631 1093 1725 1043 1323 1134 995 1366 1301 1089 1461 1268 813 662 383 289 165 186 291 260 245 235 205 195 132 54
1653 2639 3180 2848 3231 3261 3084 2920 3150 3083 2981 3158 3188 3105 2403 1894 1018 1206 1426 1579 1426 1795 2175 1483 1624 1604 1514 1428 1834 977 665 470 443 396 292 150 33 37 81 138 141 168 239
2276 2731 2970 3421 3150 3328 3116 3164 2597 2764 2640 3181 3070 3469 3102 1999 1466 1142 1480 1513 1812 1357 1462 2241 1951 2038 1479 1708 1919 1096 1155 804 625 622 631 609 472 276 96 6 0 0 16
2317 2983 3218 3005 3182 3518 3661 3541 2905 3118 3051 2578 2911 3004 3198 2189 2121 2241 1766 1973 1950 1635 1409 1396 1950 2171 1723 1131 1749 2037 1900 1358 1033 819 778 757 770 604 428 460 478 420 430
3990 3306 3733 3274 3062 3062 3650 3645 3077 3174 3116 3141 3463 3570 3235 3060 3103 2994 2757 1960 1818 2187 1759 1583 2207 1840 2884 2909 2343 2276 2524 2128 1801 1480 1429 1385 1296 1216 1287 1300 1413 1536 1323
2608 3728 3292 3877 2998 3074 3135 3235 3240 2037 3053 3151 3465 3228 3516 3302 3996 3608 3090 3100 3315 3556 2733 2294 2247 1777 1766 1937 2812 3230 2965 1938 1595 1748 1728 1728 1530 1593 1647 1800 1716 1661 1540
3151 2567 3370 3047 3292 2801 2820 2963 3249 2963 2864 3336 3277 3414 3237 3513 3689 3664 3726 2929 2418 2672 2416 2319 2163 2843 2847 2705 2289 2853 3321 2828 2462 2137 1970 1797 1956 1711 1800 1867 1836 2443 2233
2269 2679 2769 3190 3068 2793 2480 2555 3251 3180 3006 2795 3297 2949 3414 3592 3564 3932 3558 3471 3438 3442 3009 3009 2449 2251 2411 2577 3249 2806 2457 2478 2145 2900 2417 1923 2058 2769 3389 3308 3156 3073 2770
2489 2755 2854 3078 3133 2974 2460 2315 2561 3062 3181 3052 2903 3206 3151 3281 2944 3429 3376 3658 3649 3620 3324 3171 2954 2985 2472 2384 2492 2523 2868 2946 2735 2815 2660 3326 3550 3339 3365 3460 3113 2830 2849
2438 2815 2966 3054 3209 2930 2211 1651 2007 2335 3209 3096 3020 2966 3480 2308 2108 2064 1998 2428 2583 3312 3154 3415 3349 3061 2766 2802 2936 2588 2704 2790 2625 2772 4110 3284 3352 3570 3479 3409 3258 3228 2805
2731 2795 2941 3109 3215 3222 2212 1592 1520 2127 2382 2856 3081 3004 3043 2476 2407 2986 2201 1750 1876 2089 2190 2396 2554 2610 2568 2499 2731 3242 3165 3221 3251 3070 3135 3504 3468 3632 3528 3587 3232 2282 1592
2717 2958 3006 3074 3204 3247 2843 2032 1390 1514 2166 2551 2654 2885 3159 2883 2698 3179 3128 3134 2747 2552 2435 2279 2212 2241 2543 2833 3297 3367 3387 3406 2673 2966 3616 3456 3272 3415 3512 2579 2020 1910 1819
2945 2952 3081 3206 3214 3237 2957 2562 1967 1279 1625 1980 2080 2596 3255 3106 2706 2409 2207 2592 2907 3229 3155 2987 3069 3128 2962 2826 2883 3008 2456 2584 2934 3313 3671 3271 3333 3175 2478 1935 2166 1530 916
2938 3050 3044 3185 3230 3415 3137 2827 2446 1767 1631 1847 2207 2449 2029 1797 2052 2733 2790 2899 2806 2755 2867 3028 3109 2762 2762 2665 2399 2678 3085 3563 3558 3422 3792 2985 2813 2248 2220 2294 885 1043 983

GFSMA_con_mucape_063.txt.gz
CAPE
271 206 494 406 434 674 780 223 575 486 226 468 401 316 316 469 913 1290 1412 2044 2223 1837 1476 1563 1257 1410 1069 796 663 581 611 809 747 707 266 216 605 788 759 741 761 933 880
631 488 274 365 201 481 374 233 709 993 572 423 198 389 483 422 296 798 1039 1438 2215 2106 1585 965 1086 906 633 486 829 907 297 244 183 145 172 592 865 692 628 782 703 638 614
36 760 740 439 399 523 1068 306 815 665 403 301 234 458 562 429 514 537 476 628 1049 1900 1552 928 1014 892 497 533 375 311 383 559 604 626 773 897 733 739 681 536 498 427 485
561 537 327 594 501 779 458 105 413 285 586 436 470 477 582 765 568 448 631 572 491 467 1264 1396 1295 1181 639 700 961 1001 903 1279 911 896 892 728 608 714 578 383 363 419 153
904 102 61 569 1154 521 219 272 200 315 177 142 151 342 482 686 682 507 761 836 832 918 499 1346 1476 1391 773 876 914 906 878 1050 1055 1200 1171 927 704 465 353 340 351 150 0
1097 906 406 506 306 283 314 1158 217 135 182 87 183 199 182 382 537 513 892 1136 872 1178 512 641 1145 1266 1755 1258 1380 1444 1224 1336 1170 937 724 511 377 344 350 331 119 0 0
1453 785 1106 1175 693 74 280 1137 464 531 82 74 103 187 188 249 211 253 417 600 873 837 757 885 733 659 736 1644 1615 1538 1081 868 860 752 547 350 340 377 378 200 26 0 0
1462 1186 734 1232 818 94 466 652 77 65 722 35 143 320 116 23 148 130 202 346 222 820 958 791 658 683 889 578 914 1459 1466 1092 602 637 531 346 292 275 226 91 0 0 0
1322 1607 1030 1128 597 1067 956 705 509 1009 734 316 58 156 138 115 409 207 219 193 241 602 796 786 1053 844 1036 735 776 1164 1239 591 908 634 455 277 334 270 102 31 0 0 0
1332 1390 1586 1285 1109 817 1079 846 1083 908 630 243 416 45 216 167 112 136 230 326 264 379 365 408 470 527 459 717 1238 861 876 517 652 1151 670 420 347 155 22 3 0 0 0
1649 1405 1419 1725 1249 721 910 1131 922 1118 1221 1370 986 480 122 37 165 162 173 480 334 285 464 581 513 581 545 644 536 557 691 490 389 1105 1146 953 571 62 0 0 0 0 0
1637 2021 1304 1544 1170 1246 1107 1253 1643 1294 1037 1590 1562 1150 290 87 215 233 383 360 202 253 527 480 475 585 507 623 734 803 1030 528 391 606 696 795 764 471 36 0 0 0 0
1846 2010 1453 1721 1763 1259 1443 1401 1494 1910 1513 1643 1815 1256 964 773 198 623 447 563 385 358 498 684 582 586 665 620 678 955 1011 496 410 319 265 266 392 419 404 320 265 240 165
1284 1492 1553 1578 1620 1914 1369 1556 1294 1756 1414 1950 1302 1819 1257 743 950 325 128 295 345 499 855 684 682 532 620 706 747 1013 605 632 454 406 539 363 312 279 415 471 536 544 578
1155 1366 2116 1544 1567 1769 1673 1547 1422 1860 1811 1800 1786 1572 1808 1059 743 804 287 317 360 376 827 902 1088 1040 588 612 697 983 705 569 597 960 1241 1262 1304 1170 1170 1054 1047 1293 1346
1308 1356 2164 1591 1941 1780 1447 1747 1177 1520 1538 1383 1071 1832 1409 1229 879 1642 1395 644 800 588 483 581 518 977 1424 1044 1024 1041 698 818 1240 1379 1464 1491 1529 1511 1597 1611 1561 1630 1617
1381 1988 1918 2309 2135 1877 2073 2011 1426 1736 1502 1290 1374 1700 1735 1514 1113 1498 2423 2037 1396 813 756 676 1131 1395 1116 965 776 1133 1245 1243 1437 1592 1657 1561 1740 1981 1838 1600 1442 1828 2088
877 1931 2061 2041 2043 2055 2162 2094 1911 1604 1761 1836 1677 1884 2055 1992 1736 1638 2030 1877 1821 1978 1755 1158 860 819 1607 2100 1963 1819 1888 2015 2021 1866 1676 2257 2238 2026 1638 1858 2573 3206 2940
676 1900 2063 1972 1894 1769 1718 2071 2131 1849 1742 1899 1919 2227 2010 1936 2347 2560 2593 2287 2304 2084 2638 2393 2171 2247 2365 2007 1858 2057 2106 2103 2357 2487 2487 2150 1833 1947 3171 3118 3075 2917 2947
1893 1103 2071 1697 2013 1575 1754 1881 1953 2076 2075 1858 2276 2066 2094 2142 1974 2118 2377 2516 2349 2333 2162 2135 2179 2180 2525 2463 2306 2132 2426 2424 2324 2197 1985 2032 2511 3247 2963 3119 3233 3232 3187
760 2062 1463 2299 1835 2058 1731 1637 1826 2175 2178 2116 1950 2007 2330 2169 2493 2617 2673 2741 2815 2805 2773 2765 2756 2928 3328 3018 2500 2392 2287 1692 1833 2299 2195 2581 3033 3061 3384 3445 3476 3370 3052
1418 838 1529 1731 2302 2096 2046 1808 1553 2060 2398 2208 2206 2220 2203 2352 2315 2382 2489 2802 2922 2973 3035 3228 2944 2537 2412 2175 2050 2051 1846 2078 2419 2422 2950 2714 2834 3346 3374 3339 3571 2642 1548
781 1702 1348 1511 1751 2095 2192 2160 1846 1429 1590 2310 2335 2218 2255 2217 2308 2364 2247 2106 1941 1786 1886 2067 2054 2010 2008 2031 2075 2162 2080 2343 2539 2516 3001 2933 3247 3196 2944 3179 2299 1565 831
1023 739 1437 1775 1912 1968 2352 2279 2132 1725 1453 1513 2220 2399 2258 2165 2190 2124 2035 2133 2186 2087 1967 1892 1920 2158 2395 2462 2582 2317 2299 2602 2882 2941 3007 3261 3380 2961 2959 2152 1568 1012 688
1430 1157 1499 1729 2013 2108 2302 2500 2289 1849 1509 1483 1646 1778 2227 2381 2326 2309 2115 2095 2549 2903 3124 3175 3066 2858 2662 2519 2527 2447 2634 2588 2530 2970 3205 3430 2955 2713 2156 1759 1447 515 484
1413 1771 1531 1874 2044 2102 2241 2442 2482 2194 1684 1366 1357 1648 2066 2059 2072 2089 2147 1997 1937 1761 1590 1835 2034 2130 2374 2591 2729 2427 2109 2671 3069 3228 3220 3014 2858 2099 2187 1853 820 328 147

GFSMA_con_mucape_066.txt.gz
CAPE
51 292 523 691 570 509 347 82 120 339 462 379 518 666 630 673 888 1215 1453 1616 1936 1876 1457 1412 1317 1318 1155 977 728 515 562 760 617 537 161 337 820 675 613 718 629 857 680
128 326 165 192 278 281 666 219 234 510 404 411 399 336 499 525 959 1147 1234 1427 2190 2049 1455 1287 1073 1116 821 567 1066 823 375 259 137 126 174 595 833 730 713 712 614 519 528
363 461 9 105 89 219 335 197 287 557 643 249 224 225 298 216 581 703 831 982 1638 1777 1581 985 971 835 612 559 426 240 231 490 701 817 845 833 797 718 758 512 425 375 337
86 510 188 309 406 608 606 175 596 620 265 173 352 318 320 265 338 368 458 575 823 1206 1750 1568 1373 933 632 594 690 953 1061 962 1010 619 763 807 653 748 627 405 332 340 5
349 143 109 299 543 537 106 62 414 160 256 250 300 560 352 435 376 385 465 490 413 310 310 1095 1545 1481 728 731 935 983 926 962 1164 1028 982 868 731 437 347 286 281 106 0
280 116 282 411 108 258 252 429 93 109 205 273 210 341 434 597 512 405 521 588 681 702 580 251 830 890 1448 1108 1281 1132 1199 1302 1325 1059 849 639 414 310 326 298 129 2 0
743 723 399 691 240 91 528 166 46 260 112 67 117 168 206 302 467 456 514 757 899 805 1045 440 467 651 737 1822 1800 1707 1198 1036 1009 860 833 613 293 326 334 300 98 0 0
992 522 907 869 139 120 565 89 54 301 209 45 82 135 60 27 262 288 296 466 689 866 878 621 715 373 513 515 707 1585 1686 1231 824 718 690 639 282 257 266 238 75 0 0
1232 851 896 894 367 55 352 235 218 362 118 111 59 147 163 18 203 111 155 215 296 269 711 724 818 583 491 790 486 1028 1500 1095 1016 626 627 841 587 299 170 164 54 0 0
1108 1235 861 727 440 628 652 580 928 519 252 97 160 57 130 113 68 25 128 167 271 296 445 522 789 897 757 871 703 761 965 947 762 880 897 931 818 268 85 100 36 0 0
1026 1105 1272 964 706 473 635 624 664 833 961 923 541 578 97 30 106 133 144 167 243 171 319 326 298 350 525 495 553 716 1042 706 586 577 905 1349 1156 455 70 35 69 30 0
1146 972 1077 1228 766 526 592 835 907 943 762 1090 1079 720 517 75 78 278 240 302 274 402 510 491 429 444 539 471 468 815 820 684 461 332 354 770 1040 1051 350 204 258 283 380
1258 1299 1039 1175 889 706 844 871 1094 1345 846 1080 1266 752 597 603 386 341 181 337 338 294 385 522 468 421 500 623 606 1008 1086 710 504 646 951 986 936 915 851 720 687 1247 1168
1267 1275 1297 1068 1241 1003 1101 938 1214 1146 1312 1384 1312 1158 1055 412 634 602 126 165 290 427 623 660 556 571 506 529 608 618 690 645 1013 1111 1220 1294 1326 1332 1385 1148 1102 1251 1227
1016 1291 1557 1252 1253 1293 922 1156 1165 1035 1425 1209 1494 911 1226 1032 427 384 1358 185 195 226 481 775 560 673 1015 736 607 526 674 905 1126 1246 1308 1458 1377 1550 1524 1629 1679 1462 1380
1049 1036 1602 1457 1151 1250 1230 962 1106 1137 1434 1209 1264 1255 1049 928 487 578 1396 1415 501 463 461 540 645 554 1154 942 883 895 857 1085 1400 1519 1605 1580 1488 1952 2027 1885 1635 2308 2624
1086 1116 1422 1528 1376 1222 1243 1240 1149 901 1208 1234 989 906 1225 1503 1206 993 1158 1640 1604 1462 816 558 524 1120 923 777 1835 1928 1709 1726 1859 1887 1987 2048 2145 2092 1750 1846 3132 3035 2934
804 1165 1350 1578 1479 1304 1318 1220 1366 1191 1164 1411 1087 972 1419 1665 1727 1634 1329 1520 1340 1348 1491 1331 1141 1851 1855 1865 1684 1650 2227 1932 2097 2272 2234 2124 1964 1980 2624 2947 2881 3224 3228
607 1583 1538 1723 1618 1504 1535 1601 1577 1454 1322 1399 1425 1380 1260 1534 1681 1871 1782 2063 2034 2109 2376 2441 2376 2068 1864 1697 2363 2549 1970 1917 1852 1671 1607 1695 2260 2519 2826 3172 3301 3428 3273
132 847 1675 1580 1519 1669 1786 1707 1733 1666 1562 1410 1365 1496 1620 1734 1666 1592 1985 1969 1908 2051 1944 1871 1825 1839 2077 2453 2824 2807 2710 1731 1550 1445 1733 1847 2560 2695 3010 3224 3221 3255 2186
457 301 1066 1662 1615 1460 1427 1393 1455 1558 1611 1527 1503 1550 1725 1867 1945 1734 1896 1978 2054 2120 2169 2237 2331 2385 2642 3013 2885 2315 1840 1632 1794 1811 1857 2104 2670 2942 3199 3077 3002 1496 1221
178 539 920 1130 1476 1610 1452 1410 1379 1449 1520 1503 1422 1490 1682 1617 1799 2083 2073 2223 2265 2277 2326 2442 2475 2539 2758 2486 1897 1757 1852 2081 2001 1876 2188 2382 2755 3086 3157 2764 1637 1287 637
81 280 593 1217 1361 1454 1506 1526 1343 1193 1431 1507 1508 1528 1625 1723 1867 1887 1989 2110 2005 2195 2503 2387 2331 2274 2010 1761 1795 2156 2271 2220 2116 2110 2484 2578 2848 3147 2838 2176 1411 995 144
748 409 549 540 1057 1440 1794 1790 1623 1497 1328 1319 1594 1786 1892 1871 1845 1897 1902 1881 1883 1913 1892 1831 1810 1802 1796 1985 2481 2644 2281 2249 2201 2439 2756 2760 2999 3022 2383 1441 1307 506 63
1043 982 580 1036 851 777 1117 1540 1813 1790 1574 1505 1427 1226 1582 1621 1711 1862 1900 1840 1800 1910 1926 2212 2520 2719 2832 2905 2570 2359 2322 2342 2421 2410 2721 3117 3010 2520 1795 1515 1387 257 16
1217 1138 1046 857 1190 1384 1430 1458 1686 1561 1474 1549 1510 1412 1347 1497 1642 1803 1866 1828 1848 1781 1662 1520 1465 1783 2164 2168 2050 2241 2575 2501 2154 2965 3088 3234 2982 2228 2195 1678 1002 166 1

GFSMA_con_mucape_069.txt.gz
CAPE
248 421 445 601 392 539 402 172 282 350 364 507 517 596 562 577 826 1076 1425 1443 2086 1492 1221 1269 1170 1165 1092 939 751 403 468 605 411 306 134 254 800 760 730 733 746 634 590
275 358 571 548 503 406 570 274 228 411 590 525 607 351 513 536 757 960 1157 1176 1521 1650 1442 1432 1148 1309 868 516 896 765 437 263 99 176 297 686 914 729 772 715 552 420 345
183 310 219 151 276 226 551 532 374 533 739 336 516 413 435 389 659 872 904 1121 1354 1612 1423 1062 991 940 713 503 465 356 272 457 791 994 903 785 759 644 741 548 317 329 13
338 504 75 98 148 284 416 455 402 482 524 290 304 312 260 207 428 479 445 523 857 1202 1614 1663 1385 892 592 560 611 751 993 1038 944 828 721 858 828 706 498 373 269 219 0
230 490 145 292 416 491 567 241 483 440 273 256 334 302 315 275 314 247 283 245 246 314 312 697 1790 1495 716 726 782 977 1034 1082 1148 948 1019 846 680 373 253 226 210 60 0
322 187 138 325 630 487 84 97 327 197 212 212 273 485 354 372 482 367 353 395 446 413 329 208 126 769 1195 949 1227 1217 1023 1172 1500 1250 1048 753 501 240 250 234 129 11 0
309 44 294 307 78 183 270 245 66 123 178 183 223 308 253 223 469 532 414 408 535 609 597 737 402 248 407 1022 1795 1589 1266 1035 955 1143 1253 1022 456 195 239 246 142 10 0
676 520 343 768 143 237 126 116 98 177 122 84 107 119 89 39 121 335 419 365 483 622 788 735 741 500 432 284 386 1009 1704 1402 781 816 1155 1209 729 399 383 379 224 31 0
877 612 799 708 536 121 95 36 61 70 28 37 58 138 132 5 73 95 113 191 177 272 484 677 703 613 621 337 383 596 1405 1418 1032 647 1027 1272 1145 721 361 389 231 42 0
1164 1141 757 823 408 74 353 479 563 236 44 23 52 57 109 108 39 0 86 91 138 124 196 279 497 638 777 710 530 750 715 894 1183 930 811 1259 1354 1129 423 337 326 64 13
1045 1161 861 862 486 528 367 506 675 441 630 238 184 462 82 32 21 75 111 157 125 186 180 250 322 388 417 607 535 444 803 985 970 1022 930 959 1279 1375 573 371 424 493 601
1211 1026 1017 1021 819 448 547 523 592 710 812 842 706 562 369 64 48 166 201 223 290 353 363 341 354 426 482 549 538 712 958 948 896 830 977 1051 1021 1156 966 858 785 807 1006
1111 1173 896 1145 856 623 509 580 853 929 717 866 941 451 450 459 294 179 142 210 350 254 325 409 388 382 432 514 602 592 732 716 872 1004 1080 1098 1175 1188 1177 1210 1240 1283 1372
1056 1224 1021 1014 1169 899 593 783 868 1195 1304 758 991 1099 909 359 499 793 99 111 176 311 386 729 667 594 811 770 621 561 510 702 964 1046 1314 1516 1572 1488 1436 1664 1870 1796 1440
992 1220 1147 1073 992 1016 853 882 914 1078 1143 1179 1120 1147 763 934 431 208 1229 248 173 183 209 654 542 491 802 918 703 798 1010 952 1340 1659 1744 1803 2001 2046 1999 1862 1542 1888 2949
820 1024 1190 1215 1238 1127 1172 938 1176 1116 1048 1197 1234 1273 1115 707 561 173 927 1405 801 440 388 322 519 572 902 931 965 1574 1521 1607 2007 1887 2144 1906 1604 1585 1656 2392 2907 2878 3085
878 905 1000 1268 1355 1388 1200 1249 883 1004 1120 1226 1098 1078 1122 899 1147 893 853 1180 1234 1406 1220 1049 955 1083 1339 1747 1702 1412 2201 2368 1830 1809 1736 1389 1469 2198 2482 2755 3109 3220 3235
728 1055 1004 1206 1306 1383 1344 1134 1125 1038 1065 948 1199 1149 877 988 1261 1456 1423 1251 1450 1222 1256 1218 1311 1743 2048 1709 1486 2070 2514 2257 2563 1542 1402 1444 1724 2521 2678 2967 2999 3099 3017
185 572 874 996 1228 1240 1228 1266 1109 1096 1189 1216 1137 1446 1364 1123 1265 1576 1579 1617 1617 1923 1907 2038 2118 1842 1635 1642 2034 2415 2749 2588 1566 1598 1737 1579 2000 2614 2943 2901 2922 2892 2057
427 222 820 1058 1242 1254 1242 1267 1188 1225 1302 1393 1380 1299 1300 1373 1459 1420 1364 1529 1864 1874 1701 1735 1742 1844 1985 2076 2253 2526 2287 1702 1664 1984 1616 1731 2310 2734 2988 2769 2583 1426 909
284 352 328 1119 1409 1375 1399 1319 1302 1368 1396 1535 1562 1508 1437 1419 1530 1665 1665 1652 1395 1651 1886 1948 1988 2043 2132 2141 2190 2388 1997 1663 1972 1887 1696 1863 2453 2753 3003 2612 1699 983 435
38 119 200 254 869 1235 1333 1384 1376 1420 1543 1530 1495 1461 1462 1459 1525 1640 1813 2160 2217 2237 2012 1945 2018 2058 2053 2112 2076 1886 1608 1809 2274 1982 1962 2096 2446 2763 2912 2075 1147 915 168
120 25 24 139 292 689 1186 1359 1294 1250 1241 1167 1138 1180 1240 1248 1330 1440 1562 1554 1727 1920 2008 2159 2158 2056 2052 1972 1778 1687 1801 2408 2386 1920 2013 2230 2332 2728 2504 1514 1188 804 134
351 268 233 103 167 355 676 1195 1382 1375 1281 1173 1165 1165 1189 1193 1298 1503 1608 1664 1698 1723 1750 1876 1863 1876 1864 1941 2162 2219 2524 2546 1971 1899 2154 2719 2520 2794 2284 1202 1130 974 82
675 664 604 508 390 257 561 918 1093 1083 1179 1186 1137 1147 1213 1322 1411 1515 1650 1732 1680 1729 1763 1678 1634 1734 1828 2001 2324 2388 2451 1988 1779 2010 2104 2444 2744 2843 1845 1404 1248 1010 34
991 968 922 836 761 609 470 478 1160 1000 976 1169 1231 1254 1274 1182 1268 1406 1485 1406 1380 1425 1578 1558 1527 1567 1646 1580 1549 1712 1851 1863 1919 2314 2240 2791 3004 2543 1916 1596 1382 548 1

GFSMA_con_mucape_072.txt.gz
CAPE
384 389 326 482 358 543 391 235 429 520 541 587 663 628 764 725 874 1179 1503 1516 1646 1204 1241 1240 984 1070 989 881 732 385 400 412 327 146 135 306 812 793 856 845 634 417 190
136 351 465 535 502 458 526 300 342 460 762 547 593 611 646 717 940 1098 1254 1329 1521 1720 1401 1358 1138 1198 961 583 587 928 612 240 164 419 722 894 802 755 687 607 371 298 6
169 287 395 435 377 341 510 596 431 567 611 433 637 457 598 649 829 1008 1046 1155 1298 1511 1521 1318 1005 994 827 601 498 518 411 531 952 1026 790 682 786 671 656 478 257 226 0
158 297 261 140 222 324 457 523 424 557 446 371 421 400 404 311 603 773 742 735 858 1237 1458 1772 1447 990 745 590 650 736 973 1086 1011 890 788 958 851 657 334 279 218 105 0
327 434 117 175 408 518 494 274 477 551 336 408 381 404 412 381 345 222 318 397 402 677 497 487 1116 1521 878 824 883 904 1026 1380 1583 1326 1087 959 672 377 195 199 174 35 0
190 335 196 327 459 395 472 140 362 291 282 310 403 570 561 460 447 476 333 298 330 332 339 259 230 304 954 1044 1066 1247 1322 1161 1516 1482 1560 1188 697 347 144 207 152 23 0
330 141 206 320 383 361 143 216 181 330 318 371 420 410 459 362 293 477 566 422 399 515 542 571 612 591 474 692 1043 1280 1269 1315 1188 1284 1451 1402 935 491 273 231 186 30 0
280 69 177 443 121 225 366 239 97 220 219 165 197 254 194 32 23 75 137 373 384 514 789 877 829 799 731 695 568 812 1221 1301 1274 935 1217 1407 1403 958 520 327 301 96 11
599 573 365 493 148 214 104 126 109 161 145 155 152 203 274 101 67 45 44 84 144 193 289 590 869 904 866 727 594 587 976 1065 1322 1349 1109 1297 1416 1359 990 554 387 299 160
785 765 491 541 472 236 173 103 308 134 35 75 108 82 121 161 84 177 67 55 59 189 158 246 398 686 926 899 806 1014 910 863 985 1175 1395 1404 1216 1498 1648 1211 668 520 717
875 990 720 729 461 236 288 575 582 325 265 74 172 414 137 77 21 179 216 183 136 145 234 265 364 441 476 564 583 569 593 741 869 1187 1356 1606 1493 1293 1361 1622 1409 982 1023
929 909 1015 860 660 461 386 348 503 593 783 743 517 546 534 137 77 169 229 194 188 339 284 313 338 385 441 496 528 536 732 818 772 808 928 1153 1374 1457 1410 1337 1694 1509 1604
680 1018 917 961 803 724 390 519 554 628 529 849 1008 589 446 500 378 134 139 221 309 310 536 695 522 508 714 722 658 570 571 555 722 930 1541 1652 1740 1792 1790 1804 1792 1826 1516
651 814 987 872 870 819 629 552 582 869 920 759 938 1098 878 535 414 625 739 136 396 185 293 669 692 596 735 905 750 828 1457 1553 1405 1791 1819 1941 1414 1257 1300 1403 1526 2213 2821
705 950 915 988 846 945 926 616 754 827 989 1087 1050 1023 929 990 658 238 827 923 281 531 477 493 793 603 868 1101 1227 1570 1419 1810 2281 1846 1707 1482 1209 1518 2292 2566 2702 2830 3045
639 912 980 951 1005 947 994 909 824 905 960 978 1031 1060 1009 873 670 439 788 1016 1236 976 746 503 666 855 1164 1572 1772 1705 1552 2291 2224 2374 1773 1442 1370 2099 2534 2798 3023 3115 3084
733 831 988 1126 1000 910 968 1032 968 834 947 1046 1038 1011 1101 998 946 864 735 1101 1040 1100 1250 1280 1246 1294 1541 1944 2185 1879 2118 2478 2436 1622 1690 1568 1577 1999 2616 2932 2915 2956 2866
432 705 858 1095 1156 1062 1049 1188 1218 1073 842 884 1048 1068 1069 978 1051 1093 1296 1344 1293 1388 1419 1417 1625 1709 1758 1784 1852 2247 2292 2419 2029 1676 1950 1483 1645 2268 2775 2850 2682 2288 1436
222 343 641 948 1152 1193 1111 1131 1252 1204 1071 986 1023 1063 1176 1228 1230 1322 1407 1458 1570 1675 1827 1761 1774 1698 1619 1761 2117 2290 2381 2498 1670 1795 1775 1579 2018 2587 2861 2727 2276 1211 662
166 242 371 651 978 1151 1168 1191 1175 1161 1154 1090 1130 1214 1335 1258 1379 1472 1343 1549 1597 1748 1784 1694 1660 1806 1827 1910 1879 1967 2511 2394 1775 1860 1845 1771 2230 2654 2770 2687 1904 836 441
21 91 206 597 907 1195 1149 1224 1236 1252 1237 1225 1263 1210 1242 1312 1308 1346 1558 1844 1613 1629 1701 1757 2048 1878 2161 2218 2440 2211 1898 1710 1911 2051 2077 2424 2442 2627 2735 2520 1640 901 543
36 0 36 323 781 950 1126 1204 1207 1321 1359 1413 1422 1368 1415 1336 1374 1384 1341 1358 1497 1982 2102 2092 2347 2086 2387 2025 2138 1897 1687 1862 1965 1943 2170 2497 2569 2499 2685 2429 1469 966 716
37 9 5 28 255 657 732 1134 1251 1337 1383 1386 1448 1500 1305 1230 1102 1414 1166 1160 1206 1352 1444 2185 2223 2308 2306 2416 2101 2069 1883 2041 2033 2063 1952 2269 2450 2268 2442 2485 1312 955 828
218 175 109 69 62 140 250 618 921 831 1247 1273 1250 1220 1273 1345 1232 1273 1391 1488 1528 1416 1333 1357 1379 1750 2206 2241 2054 1977 1749 1667 1648 1868 1827 2416 2420 2286 2636 2381 1487 1011 946
522 440 352 298 255 219 192 154 443 538 794 1095 1156 1216 1213 1211 1025 1015 1336 1545 1677 1699 1379 1442 1438 1515 1565 1487 1475 1532 1422 1383 1805 1847 1979 2193 2200 2669 2852 2113 1395 1161 1014
633 732 751 732 705 654 618 544 425 290 330 497 877 1009 849 972 961 986 1038 1473 1531 1606 1628 1656 1194 1210 1296 1321 1303 1241 1259 1453 1974 1890 2124 2141 3017 2602 2530 1828 1452 1198 956

GFSMA_con_mucape_075.txt.gz
CAPE
1171 1185 1222 1140 1248 1386 1191 1105 1333 1413 1633 1461 1449 1581 1464 1007 736 817 1099 1609 1575 1338 1280 1263 1034 1125 954 940 700 576 447 348 231 208 427 690 920 863 676 589 413 338 2
1052 961 1137 1237 1321 1273 1209 1161 1437 1470 1725 1361 1540 1525 1272 832 817 909 810 1110 1438 1833 1570 1494 1303 1082 1172 730 495 568 695 438 496 871 1161 748 815 771 673 559 309 244 0
891 1295 1325 1368 1244 1335 1585 1586 1339 1573 1246 1394 1481 1338 1220 1062 634 796 749 893 1052 1446 1587 1519 1185 1023 965 760 653 694 729 872 1187 1015 879 775 877 775 633 460 250 184 0
908 1266 1148 1101 1109 1296 1428 1480 1330 1454 1198 1202 1334 1162 1134 831 754 790 772 815 703 904 1228 1742 1869 1440 985 796 793 870 931 1117 1198 1170 1094 984 859 640 376 290 222 125 0
1107 1192 1240 1005 1418 1464 1404 1043 1456 1470 1218 1203 1017 1106 999 919 917 543 798 833 874 925 860 554 793 1029 1227 1032 1051 1124 1183 1386 1435 1265 1395 1251 961 581 278 232 235 68 0
1189 1250 995 1295 1505 1346 1313 862 1495 1230 1158 1160 894 1106 1360 1323 1367 1318 1223 962 984 1050 1060 1234 1225 932 629 960 1170 1223 1249 1386 1725 1676 1682 1546 1111 713 292 201 243 129 0
1119 1215 1155 1353 1438 1424 1323 1265 1210 1457 1118 1162 1152 936 1117 1287 1221 1222 1314 1362 1286 1248 1317 1526 1745 1478 1275 964 1003 1148 1182 1330 1360 1674 1623 1672 1627 1122 667 380 313 248 49
1510 1093 924 1325 1228 1198 1528 1554 1238 994 962 856 895 929 658 522 463 501 742 1020 1317 1261 1192 1368 1646 1843 1891 1593 1367 1052 1189 1368 1535 1479 1948 1590 1712 1668 1257 755 575 454 423
1591 1565 1185 1570 1331 1266 1191 1353 1121 1496 958 852 884 860 733 541 805 593 870 715 986 994 1102 1201 1316 1595 1837 1750 1667 1470 1275 976 1018 1416 1814 2213 1748 1615 1646 1352 986 904 684
1766 1726 1695 1727 1518 1006 1201 895 1176 1218 1032 931 848 639 953 926 638 583 785 606 832 836 1055 1137 1021 1243 1560 1557 1469 1589 1219 1028 1171 1288 1524 2088 2324 2010 1699 1726 1555 1247 1214
1835 1872 1852 1861 1850 1528 1644 1847 1810 1566 1069 698 620 1250 1195 747 735 875 856 965 1014 1038 1124 1131 1118 1229 1377 1494 1421 1267 1021 840 837 1100 1237 1486 1760 1796 2167 2216 1988 1930 1759
2027 2092 2014 2062 1712 1613 1518 1664 2083 1955 2037 1855 1425 1661 1473 925 780 1048 1044 1299 1277 1218 1172 1164 1393 1305 1322 1388 1270 890 961 998 1291 1469 1753 1766 1525 1219 1230 1466 1680 1980 2219
1582 2046 2237 2452 2421 1933 1800 1785 1949 2032 2004 1716 2324 1598 1562 1542 1160 1202 911 1008 1086 1301 1298 1553 1662 1782 1622 1917 1683 1071 1625 1454 1824 1981 1638 1614 1508 1280 2081 2412 2419 2395 2756
1534 1955 2330 2175 2202 1989 1807 1850 1804 1764 1966 1855 2097 2570 1814 1667 1485 1411 1700 1181 818 904 1129 1648 1647 1461 1862 2133 1871 1841 2295 1980 2250 2045 2107 1749 1344 1619 2315 2544 2737 2935 3120
1285 1884 2004 2276 2182 2197 2126 2041 1652 2325 2459 2237 2176 2189 2086 1866 1717 1404 1515 1539 1297 1016 972 1173 1133 1660 2004 2193 2315 2683 2687 2195 2203 2281 1802 1790 1345 1869 2231 2646 2991 3042 3051
1746 1635 2067 2193 2310 2321 2252 2245 1879 1942 2190 2085 1897 2322 2322 1764 1806 1585 1337 1449 1532 1677 1255 1494 1617 1983 2413 2551 2160 2849 2793 2647 2548 2106 1834 1574 1547 1841 2325 2811 2871 2840 2737
1980 2034 2121 2128 2261 2334 2412 2477 2355 2104 2237 2338 2202 2305 2313 2471 1711 1643 1555 1699 1904 1731 1503 1192 1975 2193 2789 3099 2953 3144 2520 2447 2284 1889 1753 1470 1695 2141 2556 2915 2692 2227 1577
1819 2073 2195 2270 2295 2328 2403 2446 2350 1953 2195 2026 2054 2266 2136 1915 2356 2361 2158 2333 2064 2343 2178 2246 2463 2306 2692 2888 3187 3363 2835 2190 2964 1861 1800 1588 1833 2439 2758 2851 2445 1960 669
1563 1573 1919 2180 2326 2351 2409 2450 2519 2428 2393 2251 1982 2112 2141 2305 2488 2083 2454 2295 2180 2460 2590 2613 2474 2412 2538 2590 2768 2803 2916 3023 2394 1765 1915 1818 2078 2389 2658 2730 2321 1751 664
1329 1410 1658 1878 2099 2397 2464 2435 2422 2517 2539 2387 2291 2167 2152 2227 2365 2644 2668 2733 2581 2644 2501 2713 2225 2155 2349 2467 2657 2120 2088 2128 2549 2423 2224 2049 2013 2620 2467 2661 2404 1629 1118
1070 1172 1341 1473 1708 1750 1751 2190 2360 2491 2538 2444 2348 2334 2225 2010 1748 1887 2005 2356 2541 2544 2305 2349 2206 2048 1953 1850 2052 1951 1914 2188 2643 2618 2612 1881 2131 3048 2920 2431 2573 1602 846
1079 1124 1026 1372 1408 1161 689 776 1569 2187 2383 2422 2498 2496 2426 1519 1329 1132 1159 1236 1463 2533 2438 2058 1583 1819 2778 2447 1766 1973 1945 2114 1883 1768 2634 2044 2251 3121 3252 2027 2510 1792 877
1146 1169 1027 1024 1482 1708 841 571 912 1499 2041 2381 2521 2544 2393 1860 1818 2327 1700 1225 1158 1093 1154 2404 2454 2350 2727 2372 2588 2790 2452 2415 2359 1947 2572 2180 2262 3043 3012 2044 2543 1863 917
1086 1043 984 1178 1311 1256 586 538 619 1304 2112 2315 2414 2356 2566 2639 2397 2229 2352 2256 2275 2255 1814 1249 1655 2149 2439 2567 2882 2956 2788 2715 2388 2128 2716 2418 2186 2995 2990 2359 2390 1726 1190
845 799 841 984 1226 1383 353 177 244 936 1132 2172 2382 2290 2570 2505 2230 1599 1972 2161 2283 2265 1549 1382 1267 1446 1487 1317 1312 1901 2012 1886 1555 1327 1719 2313 2363 3038 3368 2847 1607 1385 1287
1118 960 839 860 600 1087 565 420 317 378 994 861 1582 2053 1307 1505 1595 1374 1424 1893 2236 2098 1707 1459 1650 1348 1153 1004 961 1085 1896 1933 1602 1434 1573 2229 1908 2599 2731 2790 1797 1985 1145

GFSMA_con_mucape_078.txt.gz
CAPE
1075 1084 1369 1274 1409 1435 1389 1528 1732 1998 1975 1714 1625 1491 935 411 479 653 1044 1213 1478 1272 1187 1139 963 1086 842 893 598 810 776 739 440 660 1115 1118 842 872 680 785 380 311 0
1005 1193 1362 1349 1476 1374 1432 1573 1897 1833 1519 1689 1718 1564 1145 899 979 1075 1192 1315 1389 1713 1518 1425 1373 965 985 880 719 682 754 707 880 1281 1002 918 925 895 745 604 349 221 0
1493 1367 1245 1316 1446 1725 1834 1776 1556 1558 1261 1240 1579 1456 1234 1007 1066 1115 914 996 1332 1089 1450 1494 1250 1019 973 894 837 829 926 1058 1256 1186 1140 1000 986 817 679 409 331 156 1
1679 1588 1248 1137 1399 1442 1496 1391 1413 1105 1065 1019 1056 945 965 922 1109 1102 968 959 801 766 1271 1434 1783 1733 1335 1047 1019 1098 1110 1122 1267 1222 1336 1379 1093 788 508 287 299 188 20
1774 1662 1394 1311 1648 1422 1180 1156 1258 1108 1015 873 811 900 944 980 1085 842 1127 1190 1018 878 758 1269 845 985 1051 1200 1242 1238 1270 1434 1525 1374 1283 1244 1269 997 626 270 262 271 61
1900 1649 1260 1548 1798 1289 1030 1218 1440 1280 1026 950 622 660 638 712 941 894 946 921 1035 1245 1091 1340 1362 1009 1203 932 1056 1261 1343 1523 1667 1760 1926 1912 1646 1234 899 547 367 338 349
1733 1893 1332 1784 1750 1369 1680 1544 1575 1523 640 956 428 369 316 559 575 554 635 671 941 1030 1136 1320 1649 1268 1214 1648 1458 1383 1369 1367 1612 1814 2197 2226 1884 1934 1711 1231 957 757 535
2080 1712 1510 1539 1718 1291 1786 1778 1660 748 404 708 773 664 225 479 346 268 320 436 646 734 794 1006 1269 1544 1711 1367 1413 1507 1588 1538 1583 1701 2242 2402 2350 1896 1845 1637 1334 1184 1075
1819 1903 1648 1500 1964 1938 1088 1999 1612 1656 481 1082 1518 1198 930 382 635 434 791 366 774 572 754 984 1057 1371 1790 1658 1621 1594 1976 1293 1323 1560 1808 2382 2447 2440 2128 1781 1542 1356 1167
1724 1729 1858 1995 2150 1325 1508 1681 1344 1677 1877 567 866 621 1424 1448 749 540 588 447 483 483 763 783 855 1088 1450 1432 1192 1440 1434 1271 1257 1121 1274 1670 1968 2131 2309 2436 2227 1772 1574
1477 1561 1804 2019 2145 1804 2176 1681 1757 1996 1089 831 347 562 1197 859 1451 1146 469 251 341 481 794 962 954 998 1408 1754 1787 1412 1040 1406 1280 1656 1603 1373 1485 1589 1826 2211 2365 2396 2362
1757 1886 1523 1805 2006 1688 2190 1925 1630 2056 2029 1879 1093 906 576 669 868 1015 785 834 760 973 1108 1188 1204 1465 1712 1868 1655 1364 1567 1362 2102 1877 1833 1785 1652 1251 1614 2224 2561 2698 2773
1458 2401 2203 1703 1682 2115 2161 2025 2443 1855 1734 1104 1748 1114 850 969 1296 1453 1219 965 1003 1029 1273 1343 1496 1638 1669 1943 2167 1849 2063 1930 2098 1945 2076 1691 1404 1655 2066 2388 2782 2990 3068
1402 1759 2554 1722 1779 1841 2069 2458 1528 1243 1688 1083 1461 1968 1291 1143 1494 1501 1565 1416 920 954 1368 1716 1711 1579 1795 2118 2118 2170 2164 2118 2120 2246 1612 1810 1310 1719 1900 2400 2858 2836 2829
1195 1830 2240 2174 1800 1797 1882 2253 1692 1840 1829 1888 1763 1622 1634 1205 1534 1554 1561 1454 1432 1099 1015 1883 1214 1721 1912 1966 2128 2554 2648 2026 2481 2251 1729 1481 1535 1732 1991 2474 2839 2606 2267
1755 1469 2358 2363 2088 2264 2386 2516 1789 1881 2074 1842 1652 1793 2199 1270 1543 1610 1476 1446 1491 1445 1241 1081 1481 1858 2746 2712 2181 2796 2648 1963 2248 1906 1715 1411 1626 1964 2399 2711 2710 2211 1615
1694 2188 2522 2414 2312 2223 2325 2855 2488 1912 2312 2042 2129 2180 2439 2270 1784 1230 1389 1371 1474 1587 1529 1071 1360 1590 2753 3094 3035 3228 2689 2374 1444 1689 1642 1603 1695 2062 2600 2716 2506 1908 1630
1760 2231 2562 2653 1884 2067 2343 2809 2522 1827 2084 2018 2106 2298 2277 1799 2397 2246 1714 2038 2256 1851 1824 2123 2353 1695 2294 2674 2854 3275 2451 2064 2338 1665 1412 1803 1844 2133 2483 2608 2426 1966 1539
1714 1594 2152 2679 2509 1997 2479 2704 2806 2611 2252 2158 2030 2336 2164 2168 2358 1707 2038 1706 1784 2010 2003 1794 1721 1476 1841 2318 2645 3142 2566 2548 1621 1277 1133 1605 1884 2326 2430 2441 2444 2174 1478
1751 1607 1741 2129 2439 2242 2221 2629 2851 2927 2509 2219 2556 2584 2461 2028 2217 2657 2690 2752 2670 2512 2451 1920 1707 1654 1711 2015 2366 1785 1298 1197 1468 1626 1505 1339 1230 2178 2626 2713 2172 2299 1633
1783 1792 1622 1735 2020 2099 2058 2685 2802 2754 2773 2827 2645 2881 2699 2276 1562 1750 1908 3297 3140 2591 1960 1619 1594 1625 1504 1441 2242 1277 1240 1176 1682 1371 1720 1625 1162 1485 2295 2881 1766 2226 1749
1871 1904 1837 1567 1464 1071 713 1039 1451 2482 2715 2907 2846 2710 2816 1979 1797 1589 1478 1298 1191 2485 2457 1458 905 1103 2587 2097 1365 1172 1208 1170 1152 928 1605 1100 1168 1210 2570 3269 1636 2158 1794
1827 2012 1881 1821 2002 1833 485 334 647 1364 1664 2304 2591 2520 2251 1765 2227 2503 1731 1216 1145 1069 1112 2547 2549 2507 2785 2380 2927 2513 3255 2171 2058 1452 1704 1432 1430 1413 2306 2614 1747 1930 1358
1743 1767 1803 2166 2026 2089 999 630 403 1189 1661 2223 2546 2458 2841 2943 2154 1970 2364 2340 2574 2493 2101 1630 1786 2127 2629 2476 2898 3027 3078 3046 2594 1928 2483 1316 1346 1213 2238 2787 2535 1414 1317
1948 1756 1710 1868 2180 2253 1231 778 566 1089 995 1962 2210 2732 2994 3265 2457 1825 2326 2825 2685 2561 1226 1851 1730 1567 1409 1419 1422 1730 1475 1260 812 578 716 671 854 1163 1727 2226 2460 1986 1320
1708 1780 1731 1766 1478 1930 1472 1096 611 917 1007 1029 1922 2599 1611 1824 1912 1750 2445 2882 2986 2624 1323 1241 1589 1181 1149 1220 940 1265 1830 1580 968 648 762 986 745 767 1317 1922 2828 1926 1482

GFSMA_con_mucape_081.txt.gz
CAPE
1831 1818 1808 1449 1592 1673 1298 1810 2347 2000 1804 1307 1106 815 294 441 547 790 361 1409 1323 1024 1049 983 793 1000 1003 689 624 665 809 827 796 1115 1091 939 850 859 757 676 470 184 0
2144 1692 1999 2264 2095 2681 2113 2520 1743 3057 2165 1292 1553 1011 817 894 1107 1349 1395 1151 1948 1476 1172 1262 1220 888 750 797 810 818 885 963 1128 1082 1037 985 930 854 725 569 471 157 2
1847 2618 1607 1459 1965 1744 2024 1698 1831 2119 1530 1072 1486 1033 933 1006 911 912 1074 1429 1398 1450 1144 1111 1078 951 899 897 883 887 990 1054 1071 1119 1161 1252 1082 867 639 454 366 263 37
1484 2123 1752 1652 1288 2502 1948 2252 2782 2276 1085 1570 1021 1345 701 830 858 760 722 984 693 1355 1513 1440 1390 1447 1374 1194 1108 1153 1202 1266 1356 1283 1127 1147 1125 1016 753 465 295 313 354
1699 2373 1705 1565 1878 1658 1327 1273 1713 1359 1271 1237 878 687 573 676 1083 584 859 773 593 782 933 1968 1614 1400 1228 1250 1297 1301 1285 1321 1464 1549 1446 1339 1230 1179 1104 975 941 616 466
1909 2201 1382 1375 1858 1516 1395 1543 2858 1729 1054 1151 433 389 486 400 387 559 828 840 793 1088 974 1068 1581 1505 1677 1412 1203 1204 1333 1456 1725 1970 2309 2442 2280 2033 1919 1653 1284 1279 895
1833 1887 1951 1598 1636 1838 1754 1403 1526 1334 1474 377 1659 543 231 387 541 299 490 529 706 868 670 1106 1491 1256 1528 2275 2101 1622 1608 1624 1670 2120 2568 2561 2497 2354 1948 1889 1595 1372 1334
1984 1737 1887 2123 1925 1525 1725 1575 2210 2151 108 1282 1040 1249 892 404 242 314 297 287 544 538 619 981 826 1262 1630 1369 2191 2574 2471 2001 1938 2041 2430 2450 2505 2500 2409 1987 1763 1566 1148
1719 1894 1783 2336 1838 2181 1574 1760 1487 1479 1750 478 1777 1037 1233 1021 908 534 588 393 483 524 622 789 841 1306 1574 1594 1879 2382 2370 1913 1753 1657 1791 2137 2148 2181 2233 2285 2228 1924 1603
1611 1667 1776 1833 2061 1721 1883 1709 874 2401 2451 1480 634 1224 1317 1579 1857 1090 299 264 357 605 675 849 986 1008 1276 1825 1418 1574 1365 1106 1149 1404 1589 1691 2146 2249 2388 2407 2379 2542 2472
1627 1350 1914 1938 2022 2105 2417 1675 1703 1796 1795 1303 1049 657 790 372 676 1261 383 227 309 493 804 1106 848 966 1403 1779 1709 1358 1405 1197 1782 1709 1491 1820 1626 1887 2086 2528 2641 2808 2771
1541 1735 1596 1976 1954 1884 2141 1990 1872 1934 2019 2911 2106 1128 1120 700 1312 1688 771 995 683 904 992 1057 1098 1216 1380 1790 2029 1613 1766 1820 1826 1802 1975 1339 1604 1435 1775 2254 2632 2882 2971
1626 2632 2123 2181 1830 2008 1957 2167 2289 2017 1970 1405 1772 1727 1687 1028 633 1628 1654 635 1380 992 1334 1214 1207 1307 1509 1835 2319 1857 2551 1980 1935 1996 1648 1612 1292 1369 1624 2094 2745 2679 2583
1742 2919 2168 1867 1844 1838 1949 2127 1889 1853 2674 1602 1550 2920 2040 1027 774 969 2203 1388 1656 865 1300 1910 1508 1424 1648 1899 1928 2100 2142 2031 1936 2065 1705 1546 1229 1466 1925 2468 2748 2291 1682
1511 2082 1670 1821 1837 1855 1927 2274 1984 2596 2144 2167 1899 1958 1939 1412 633 864 859 1115 1623 2125 1888 2072 1036 2213 2020 2040 2037 2709 3082 2257 1667 2088 1638 1262 1287 1551 2224 2568 2560 2003 1555
1589 1103 1745 2546 2161 1806 2000 2355 2732 2529 2007 1841 1212 3239 2852 1274 1180 871 1022 1063 1163 1294 1371 1316 1199 1955 2459 2752 2269 2928 2846 2328 2007 1990 1497 1319 1270 1640 2293 2508 2420 1920 1550
1796 1742 2147 2618 2254 2650 2240 3207 3078 2483 2330 2047 2319 2243 2285 3447 1858 1117 872 885 1026 1213 1305 1303 1575 1924 3296 3965 3715 3768 3051 3542 1907 1588 1569 1540 1471 1757 2195 2408 2364 2010 1624
1946 1998 2352 2327 2396 2046 2608 2670 2377 1788 1873 2204 1939 2273 1936 1633 3476 3430 1980 3569 2305 3061 1919 3436 2515 1790 3269 3685 4292 4798 3116 2224 2444 1488 1222 1309 1537 1763 2200 2436 2294 2196 1701
2404 1529 2258 2867 2510 1963 2856 2882 2663 2767 2341 2316 2324 2301 2098 2535 3382 2304 2981 1879 1563 2142 2372 2227 2026 1618 1831 1813 2607 3940 4357 3229 2009 901 802 1077 1459 1658 2175 2486 2615 2010 1910
2629 2335 2432 2895 2575 2064 1984 2318 2848 2843 2781 2564 2492 2804 2620 2547 3199 3392 2901 3558 2855 2546 2044 1506 1406 1692 1957 2707 2106 2318 1936 1394 1441 959 960 1329 997 1275 1908 2342 2557 1593 2016
2848 2890 2917 2651 2752 2091 1864 2635 2661 2846 2905 3282 2849 2900 3232 2556 1603 2285 1855 3142 3723 2870 1666 1296 1383 1449 1420 1696 2520 1788 1679 1457 1865 1012 815 991 729 1018 937 1981 2647 2152 1816
3283 3553 3048 2995 2673 1409 680 952 1793 2980 3398 3857 3229 3231 3296 2237 1999 1756 1245 1153 1325 3087 4138 1925 1281 1155 3237 2005 1087 1059 1473 1168 1268 1312 1319 1204 1089 961 1143 1292 2219 2270 1584
2571 3442 3320 3139 3267 3167 1248 435 776 1627 2505 3342 3593 3625 2948 1503 2338 3261 2114 1466 1211 1035 842 2645 3580 3339 3201 3635 3918 4405 3175 3070 2299 1751 1906 1347 1360 1134 968 1462 2179 2218 1956
2657 2824 3144 3482 3594 3176 1795 1085 544 1761 2092 2556 2849 3509 3805 3356 3270 3066 3409 3154 2897 2942 2506 1370 1824 2583 3189 3531 3753 3334 4265 4348 3375 3039 3352 1906 1214 1136 1050 1155 2026 2320 2197
2272 2185 2262 2947 3007 3496 2088 1487 1163 1419 1303 1971 2422 2671 2706 3388 3098 2181 2869 3341 3585 3352 1515 1961 1862 1949 1704 1317 1258 1439 1206 1169 993 688 801 610 787 989 950 1022 820 2148 2126
2017 2735 2017 2555 2035 2923 2403 1929 1549 1476 1850 1597 2353 2528 1502 1441 1894 2123 2707 3128 3269 3172 3371 2169 1585 1645 1618 1518 1222 1137 1427 1101 889 934 833 685 592 828 1080 954 1284 1990 2128

GFSMA_con_mucape_084.txt.gz
CAPE
2358 1405 531 1419 1015 1736 978 1106 1261 1109 1583 1826 1457 701 467 1158 635 745 960 1834 1835 1629 1044 816 674 944 963 703 702 723 808 851 959 1108 917 850 826 856 748 578 425 104 0
2637 803 1155 1285 1514 2632 1535 321 1540 2709 1162 1673 1373 1331 1112 1157 1609 1060 889 1469 1894 1586 1409 1325 1137 800 682 707 732 736 784 888 995 1050 1061 1106 1092 914 687 478 315 211 14
1839 1012 446 1126 1640 3259 3010 1299 2443 1793 1841 1431 1723 978 1394 1421 1205 1478 1254 1103 1657 2270 1670 1339 966 905 871 876 901 902 1044 1291 1118 1178 1410 1376 1438 1302 1046 861 518 311 222
2353 2382 1257 1260 1978 1179 1942 788 2435 2092 1827 1931 1482 1435 1643 1139 1369 1344 1348 1514 1302 1185 1747 1878 1615 1382 1300 1293 1212 1224 1323 1576 1765 1903 1936 1844 1765 1690 1678 1465 1094 1163 608
2018 2882 2229 1429 2781 1021 2057 1464 1773 1751 1829 1106 524 1601 1606 1472 1317 947 1394 1535 605 1434 1356 1961 2144 2068 1586 1524 1456 1538 1678 1890 2049 2269 2358 2363 2278 2121 1970 1896 1676 1211 1079
2604 2187 2611 2918 447 2523 2107 828 2265 1220 1846 307 477 834 1341 1033 1372 1491 1301 1157 1197 1288 1528 1955 1753 1585 1985 2231 2111 2025 1987 2119 2289 2514 2612 2629 2584 2550 2355 2012 1880 1614 990
2931 2724 2569 2822 783 2473 1052 2825 2661 2772 2274 2408 2841 1785 1337 736 868 1250 1347 845 1288 1367 1326 1651 2317 1728 1358 2257 2503 2362 2441 2504 2582 2658 2691 2667 2665 2672 2569 2381 1984 1856 1666
2679 2574 1886 2343 1204 1388 2909 2626 641 2669 1852 2356 1931 2314 1042 1269 973 656 1013 843 784 1147 1268 1582 1725 1748 1983 1930 1873 2508 2704 2672 2783 2895 2731 2526 2432 2391 2331 2291 2275 2334 1927
2971 1744 2328 2796 2256 2482 1964 2682 3083 1907 1960 2121 2298 1469 1734 1359 2264 1091 917 772 860 1415 1112 1041 1657 2023 2063 2180 2764 2900 2838 2130 2213 2100 2060 2250 2293 2313 2346 2350 2494 2503 2536
2713 2411 2935 2410 1651 993 758 2455 2255 1807 2782 2297 2409 1861 1943 1100 2045 1671 1210 586 1153 856 1103 1811 1356 1841 1901 2391 2421 2376 2252 1468 1193 1632 1579 2025 2315 2331 2575 2633 2670 2839 2767
2915 2032 3190 3011 2569 1925 1237 2090 2690 3285 2368 2068 1813 2009 2104 2500 1949 1921 1413 961 1305 1272 1150 1590 1318 1437 1966 2319 2605 1376 1235 1799 1675 1670 1733 1727 1753 1946 2384 2814 2917 2794 2845
2612 3076 2951 3026 2590 1012 670 3316 2830 2838 3020 3728 3254 2737 2253 915 1397 1797 1940 1815 1478 1570 1792 1502 1470 2005 1982 2999 2007 1880 1697 2103 1924 1604 1876 1445 1322 1457 1884 2358 2782 2563 2424
1002 2067 2884 3355 2959 3003 2312 2854 3199 3082 3200 2923 3430 2863 2774 1859 736 2455 2198 2417 1209 1842 2344 1861 1755 1888 1836 2308 2490 2071 2857 1998 2051 1723 1852 1517 1147 1343 2001 2518 2639 2111 1423
1111 2077 2499 2815 3099 2666 2463 2836 3343 2915 3007 2795 2646 3000 2856 2414 2342 2509 1861 2655 1701 2204 2452 2876 2545 2392 2698 2910 2172 2046 2817 2296 2295 1818 1944 1524 1126 1390 2112 2539 2465 1801 1445
838 2097 1161 2608 2883 2890 2624 2726 2345 2982 2907 2842 3014 2984 3147 2331 1859 2057 1741 1857 2121 2296 2246 2596 2174 2997 3088 2945 2590 2850 3493 2974 2468 2147 2098 1493 1083 1470 2085 2469 2387 1866 1497
1086 662 919 1323 2971 2962 2755 2927 2486 2308 2705 3022 2479 2892 3095 2200 2208 1747 1020 2242 2584 2338 2132 2134 2041 3528 3535 3044 2811 3303 3638 2998 2844 2541 1712 1485 1099 1468 1995 2294 2350 2102 1619
1683 907 0 884 2626 3131 2811 2951 2352 2162 2200 2434 2693 2629 2765 3302 2676 2471 2278 2379 2006 2382 2415 2266 2710 2943 2820 3454 3288 3885 3863 3629 2886 1863 1602 1407 1184 1365 1822 2179 2525 2143 1819
3149 2991 2355 2580 2872 2698 2540 2676 2751 2150 2319 2662 2685 2178 2398 2380 3340 3182 2723 2600 2839 2847 2697 2567 2465 2091 2176 2086 4541 4099 4156 2905 2591 1976 1443 1298 1125 1234 1635 1993 2435 2027 1926
3016 2662 2650 3165 3040 3108 3194 2956 2740 2864 2754 2285 2693 2660 2828 3115 3178 2472 3523 3000 2438 2539 2542 2609 2083 2703 2166 1868 2296 3292 4130 3863 3628 1026 854 918 821 1105 1373 1775 2294 2067 2057
3139 3026 3019 3246 2852 3025 2993 2873 3121 3021 3377 2587 3001 2990 3222 3148 3150 3197 2980 2994 2863 2898 2430 2469 1884 1620 1587 1829 2850 3040 2758 1764 1655 1649 985 862 812 903 1121 1415 1998 2388 1972
3096 3255 3189 2911 3226 2963 2259 2598 2870 2985 2676 2513 2868 2903 3123 3087 2522 2981 2617 2740 2672 2716 2579 2189 1809 1791 1845 2736 2190 2064 1617 2284 1510 1587 1273 1350 913 485 675 1138 1565 2302 1929
3259 3275 3035 3130 2817 1993 1316 1265 1670 2215 3059 2986 2534 3019 3229 2577 1956 1736 1537 1203 1124 2826 2962 3256 2588 1718 1813 2229 2496 2682 2360 1647 1455 2071 1781 1321 984 662 1338 857 912 1941 1783
2374 2893 2991 3129 2970 3019 1946 1331 763 1957 2862 3012 2971 2950 2935 1846 1567 2672 1708 1555 1353 985 784 1101 1487 2001 2391 2387 3004 3240 2972 2814 2565 1861 1934 1535 1683 1766 1652 659 987 1712 1806
2252 2247 2422 2818 2888 2949 2497 2064 1609 1208 1488 2057 2218 2712 2897 2334 2468 2651 3045 2912 2108 1828 1566 1117 748 754 910 1236 1965 2036 2020 2104 2652 2849 2637 2295 2167 2083 1927 608 874 1307 1703
944 1459 2127 2287 2485 2773 2274 1912 1979 1613 1454 1460 1477 1969 2129 2140 2812 2438 1611 2302 2787 3088 2603 2166 1969 1516 1075 791 828 1217 1325 1065 769 513 726 570 366 812 1265 697 333 606 1276
739 691 1074 2012 2009 2159 2236 1946 1751 1839 1935 1871 1788 1709 1055 1090 1666 1306 1298 2430 2005 1742 1832 2067 1887 1357 1540 1419 1240 1154 1097 1330 1078 869 577 607 705 538 696 1573 485 262 1078

GFSMA_con_mucape_087.txt.gz
CAPE
889 774 723 1005 1045 485 691 135 725 1147 852 984 252 115 716 653 754 940 1108 1808 2239 1941 755 715 838 1019 887 668 692 718 797 879 968 1132 1016 997 929 868 692 512 407 125 97
564 638 682 895 720 1156 829 439 845 1405 832 722 394 289 460 699 672 802 737 1147 2155 2076 1452 1137 1019 752 667 706 761 787 815 942 1070 1067 1119 1151 1255 1218 928 937 930 687 398
356 571 450 620 1068 1391 899 986 1162 1579 998 755 710 588 670 590 602 723 764 860 1337 1875 1467 1499 1693 1291 889 880 918 978 1265 1707 1383 1411 1901 1776 1666 1611 1322 1136 648 544 727
662 738 416 760 849 762 1050 665 972 686 710 888 703 494 803 523 429 758 956 1015 1006 1038 1923 2112 1982 1812 1201 1248 1335 1366 1949 2064 2055 2165 2255 2319 2270 2175 2021 1883 1365 834 604
1296 1249 995 759 1345 917 940 1030 763 875 904 650 881 901 714 442 587 879 943 982 940 1029 815 1427 2189 2029 1671 1762 1733 2194 2466 2394 2247 2296 2479 2587 2601 2590 2485 2245 2063 1867 1302
1288 1012 1684 1145 936 1009 983 1066 814 517 699 349 429 462 623 555 571 638 524 593 918 1131 1044 950 1413 1557 2112 2319 2738 2681 2625 2527 2423 2398 2465 2487 2561 2629 2619 2537 2385 2126 1862
1591 1458 1336 438 782 945 790 1569 1326 1466 1608 1316 1158 877 709 145 314 586 611 653 702 1022 1232 1096 1107 1238 1142 2183 2342 2616 2711 2853 2932 2892 2805 2674 2559 2452 2332 2270 2227 2389 2260
1363 1431 1273 1121 770 928 1516 1127 648 1293 923 661 953 547 421 354 332 291 650 775 666 916 1097 1019 1419 1398 1223 1244 1484 2299 2606 2787 3154 3116 2782 2324 2182 2245 2223 2134 2412 2551 2487
1529 1123 1125 1090 637 766 850 1102 1618 695 972 1004 968 663 868 672 1296 355 204 409 170 730 821 967 1015 977 1103 1451 1975 2214 2672 2329 2409 2334 2345 2351 2281 2227 2355 2414 2549 2810 2753
1741 1564 1358 1224 1348 768 688 707 1633 1299 536 703 1177 686 910 428 991 702 536 218 459 598 556 720 846 977 1160 1381 2150 2310 2706 2109 1813 1559 2045 2390 2304 2342 2543 2721 2730 2688 2742
1749 1441 1308 1238 881 851 426 1066 1534 1436 1669 2040 1911 1476 1217 1155 1546 974 712 227 299 531 714 823 832 970 1195 1626 1639 1723 1826 1874 2017 1760 1596 1760 1871 1981 2324 2770 2960 2676 2479
1313 1041 1702 1241 1171 925 723 1297 1577 1618 1808 1527 2078 1574 1510 1251 1146 1239 1160 1182 408 587 816 903 836 1089 1175 1676 1706 1852 1935 2114 1982 1994 1606 1561 1273 1467 1998 2507 2387 1918 1659
1067 1301 1596 1518 1228 906 418 1012 1662 1588 2058 1374 1471 1718 1540 1636 1915 1530 913 1389 1133 1087 1236 961 932 1002 1297 2013 1883 1926 2209 2210 2199 2218 2026 1788 1200 1193 2005 2477 2243 1617 1256
403 795 1014 1233 1631 1143 1263 1542 1455 1622 1458 1608 1106 1114 1240 1537 1372 1123 1471 781 823 1312 1328 1697 1331 1167 1790 1965 1863 2213 2677 2472 2559 2321 2203 2287 1405 1135 1914 2361 2244 1798 1409
1147 1328 1120 1393 1448 1518 1138 1596 1404 1640 1575 1382 1309 1433 1290 1434 1182 1310 1600 592 1034 853 1211 1279 1513 2119 2063 2266 2151 2125 2631 2842 2506 2606 2615 2026 1509 1043 1692 2188 2286 2016 1547
714 809 821 1043 1428 1604 1495 1379 1188 1255 1370 1449 1761 1321 1477 1634 1388 1703 1668 1768 1658 1259 932 1192 1526 2688 2132 1906 2032 1945 2674 2573 2555 2744 2465 1613 1373 1035 1395 1999 2283 2022 1751
731 655 436 829 1132 1435 1523 1515 1387 1198 1554 1379 1078 1508 1108 1731 1079 1588 1730 1483 1349 1827 1441 1512 2047 1770 1219 1151 1658 1667 2433 2725 2476 2386 2108 1885 1279 979 1106 1698 2055 2092 2065
930 1021 858 19 757 1122 1739 1516 1374 1526 1291 1186 1180 1671 1272 1450 1580 1832 1718 1422 1747 1588 2019 1496 1392 1448 1782 1956 1636 1793 2818 2810 2747 2652 2456 1448 1089 939 891 1369 1784 2157 2172
1259 1264 1006 1036 1209 1384 1424 1685 1393 1475 1686 1297 1215 1416 1647 1393 1632 1720 1177 1788 1789 1498 2029 1907 1679 1759 1699 1224 1030 1409 1751 2423 1840 1376 816 847 665 747 709 943 1411 1941 2158
1963 1664 1792 1554 1776 1770 1891 2079 1744 1294 1339 1839 1620 1933 1858 1305 1337 1541 1532 1276 1484 1632 1679 1490 1439 1476 1342 1350 1516 1893 1538 1561 1391 1111 621 1441 987 772 543 659 1035 1457 1987
2133 2044 1923 1983 2282 1913 1763 1883 2056 1859 1882 1776 1864 1698 2053 2231 2286 2044 1825 1557 1486 1490 1572 1736 1951 2081 2097 1760 1467 1948 1584 1715 1366 877 1635 1408 827 830 778 636 969 913 1670
1499 1978 2126 2112 1958 1945 2125 1920 1839 1596 2008 1881 1651 1630 1958 2113 2393 2326 1604 1897 1750 1787 1773 1773 1798 2039 1982 1917 2042 1902 2128 1580 1262 1472 1760 1151 1488 1483 1432 1370 1313 695 973
1322 1381 1414 1552 1794 2098 1893 1457 1235 1198 1285 1708 2016 1944 1912 1632 1983 2085 1861 1546 1461 1226 1200 1047 706 594 776 801 1119 1295 1093 1374 1384 1225 1504 1816 1734 1876 1519 1522 1422 774 743
807 934 1198 1379 1557 1614 1762 1910 1899 1357 1207 1228 1240 1873 2027 1877 1956 1793 1779 2100 2089 1866 1746 1718 1548 1364 1301 1185 921 599 716 1188 1202 1537 2051 1704 850 1406 833 947 1066 510 638
608 773 800 873 1092 1415 1507 1454 1506 1415 1468 1412 1261 1184 1279 1518 1884 2108 2124 2181 2161 2086 2323 2277 2160 2243 2147 1842 1359 1188 1149 1308 909 686 628 521 362 268 190 604 406 250 509
220 385 451 651 958 1106 1249 1192 1333 1347 1264 1436 1548 1535 1441 1216 1069 1096 1179 1177 980 1059 1462 1711 1730 1494 1831 1915 1663 1580 1375 1086 892 770 541 506 451 196 383 397 629 428 263

GFSMA_con_mucape_090.txt.gz
CAPE
645 791 834 668 545 477 587 564 758 972 796 619 352 859 719 578 436 631 1017 1479 2116 1180 699 724 782 796 808 684 759 790 807 841 878 1020 1112 1116 1137 1041 935 935 629 604 706
650 530 598 680 818 769 643 590 806 1115 965 270 486 499 536 500 592 556 744 1155 1899 2005 1204 904 846 873 834 800 784 838 855 914 1067 1170 1191 1276 1292 1446 1344 975 660 588 252
418 323 684 648 970 1184 828 772 1014 1329 1066 554 508 525 473 402 375 433 769 706 1268 1740 1355 1316 1595 1371 976 955 930 996 1187 1540 1459 1486 1956 1900 1917 1664 1517 1422 1067 693 615
311 250 420 648 946 981 928 539 806 685 718 691 612 470 596 473 465 609 736 799 786 931 1368 1889 2313 1979 1295 1310 1382 1495 2077 2418 2437 2385 2443 2535 2590 2695 2573 2263 1889 1375 1097
880 906 566 716 938 615 779 913 617 782 865 643 675 764 618 482 505 538 746 858 779 845 684 1098 2303 2313 1643 1743 2072 2496 2783 2770 2565 2442 2508 2601 2710 2766 2832 2676 2657 2256 1876
1234 1220 780 818 944 989 906 941 745 503 722 421 495 454 549 647 530 666 768 947 856 864 862 913 998 1470 2255 2330 2927 3200 3098 2942 2754 2661 2731 2734 2778 2728 2591 2476 2524 2659 2322
1189 1298 1372 728 586 516 614 1110 1014 913 1246 1164 659 701 465 501 548 563 650 632 808 903 1091 962 1022 967 1016 2247 2463 2630 2856 3081 3153 3298 3134 2710 2386 2373 2313 2200 2422 2578 2469
1235 1083 1117 377 690 871 1454 1018 920 659 644 702 852 434 301 142 229 441 630 666 700 769 947 1035 1087 1105 1170 1169 1308 1879 2542 2859 2904 3376 2863 2449 2367 2322 2258 2329 2595 2773 2679
1210 1362 1099 903 727 694 813 931 1292 890 784 768 967 611 743 498 764 293 445 684 757 721 805 932 1053 1034 1113 1364 1489 1797 2528 2228 2648 2880 2634 2517 2359 2296 2474 2573 2717 2650 2737
1216 1066 1112 970 1007 374 597 543 1285 922 532 1325 1045 1125 1065 799 1004 487 379 450 326 497 682 783 761 900 1177 1369 1513 2173 1898 2308 2359 2023 2278 2429 2391 2343 2735 2883 2786 2443 2325
1351 1381 1230 943 824 650 453 693 1460 1190 1660 1480 1605 1229 1082 870 1465 1074 853 276 424 548 811 801 706 941 1098 1434 1543 1742 1902 2080 1922 1986 1937 1798 1958 2038 2452 2934 2613 2302 2152
985 1271 1100 1031 676 744 596 1103 1434 1459 1467 1224 1361 1255 1222 1305 1568 1256 1023 1090 531 665 789 893 885 960 1142 1389 1686 1803 1896 2241 2044 2030 2059 2183 1982 1465 2074 2503 2125 1667 1184
1109 1074 1309 1174 996 695 573 1112 1342 1421 1281 1474 1000 1098 1005 1300 1397 1168 1273 929 1006 1295 1083 963 847 1012 1196 1498 1769 1847 1897 2385 2276 2296 2105 2256 2179 1195 1774 2279 2141 1711 1344
804 1050 1275 1394 1167 947 844 1126 1222 1241 1141 1265 1234 1214 615 962 886 1141 1420 748 729 1156 1139 1528 1290 1188 1791 1874 1894 1865 1868 2432 2597 2357 2479 2594 2213 1529 1346 2136 2261 1949 1560
188 860 748 1175 1279 1306 745 1390 1337 1341 1490 1261 1062 1140 1026 1247 1243 1342 1286 1457 1414 1030 1027 1145 1728 2003 1776 1697 1449 1697 1691 1950 2449 2210 2420 2179 2006 1537 1017 1857 2057 2083 1785
514 1138 997 1061 1133 1364 1290 1060 1358 1052 1148 1223 1238 1504 1364 1264 1548 1297 1342 1181 1152 1407 1059 1150 1799 2064 1476 1419 1832 1510 1260 1719 2317 2570 2387 2190 1678 1379 972 1430 1790 2067 2073
678 926 794 805 875 1166 1426 1167 1070 1031 1111 1194 1043 1252 1112 1146 1192 1099 1546 1232 1319 1379 1278 1514 1689 1488 1747 1724 1524 995 1368 1698 2429 2420 2188 918 1094 1176 1022 1037 1452 1683 1948
880 705 710 435 767 974 1160 1344 1238 1273 1101 892 1325 1074 1273 1011 976 1271 1766 1073 1569 1461 1448 1437 1575 1430 1272 1232 1228 1242 1468 1699 1840 1563 1298 1256 847 900 895 800 1025 1285 1622
833 681 851 757 259 444 700 1440 1513 1106 1112 1301 1280 890 1059 1253 1187 956 1300 1285 1092 1209 1416 1442 1270 1259 1132 1328 1725 1495 1395 1307 1447 1433 1220 1243 1104 842 691 529 539 879 1126
1375 1016 1017 985 855 977 1042 1067 1417 1381 1238 1095 1327 1448 1414 1424 1485 1164 1281 1257 1314 1225 1102 1209 1197 1321 1642 1860 1860 1665 1488 1238 1174 712 578 1222 794 962 1187 1152 927 796 980
1336 1430 1349 1419 1559 1361 1412 1389 1529 1776 1665 1378 1262 1588 1741 1640 1759 1821 1861 1929 1580 1571 1345 1176 1368 1452 1268 1271 1311 1465 1586 1094 784 391 932 785 757 1256 868 1214 1156 1147 1266
1318 1408 1473 1397 1304 1560 1914 1638 1471 1358 1621 1795 1671 1681 1606 1398 1420 1539 1649 2111 2087 1595 1479 1419 1246 1190 1087 1044 924 1178 924 740 435 452 937 639 1030 1256 851 1051 1073 1001 1168
905 1031 1191 1310 1404 1562 1446 1465 1458 1348 1460 1454 1280 1374 1474 1612 1614 1586 1556 1761 1828 1587 1395 1505 1392 1187 1289 1229 1027 1127 1030 747 614 642 807 745 1087 1282 734 495 560 314 357
388 789 966 939 945 1129 1294 1360 1361 1187 1190 1128 1049 1120 1379 1562 1696 1752 1638 1521 1593 1533 1512 1634 1602 1469 1445 1493 1576 1688 1694 1281 951 993 977 1055 453 428 187 194 125 168 347
128 224 467 604 731 812 763 888 1004 1164 1154 1171 1144 1248 1305 1224 1198 1433 1380 1549 1564 1573 1706 1759 1723 1720 1809 1832 1972 1888 2064 1895 1580 1072 753 512 390 360 299 187 137 244 228
92 108 152 301 304 461 710 613 719 912 1048 1079 1121 1193 1274 1374 1407 1327 1270 1210 1096 991 876 771 1000 1211 1402 1508 1583 1600 1511 1303 1076 800 521 390 430 271 217 158 224 452 226

GFSMA_con_mucape_093.txt.gz
CAPE
746 970 949 632 624 560 579 600 832 846 815 400 948 1382 1067 648 476 535 509 1461 1781 1136 814 799 823 880 961 977 940 993 993 998 1008 1077 1191 1236 1227 1283 1195 1054 875 722 212
589 765 689 740 798 805 719 702 966 1187 809 295 393 604 662 452 379 442 603 977 1674 1782 1494 1012 1023 995 1020 920 897 944 977 1066 1185 1324 1425 1477 1484 1353 1484 1466 1079 876 730
676 477 657 776 901 1165 974 934 926 956 517 613 492 533 434 408 354 441 682 558 798 1753 1732 1544 1466 1635 1491 1254 1254 1228 1740 2039 1756 1916 2374 2300 2215 2030 1723 1567 1490 1140 883
401 318 602 667 1006 1008 956 613 686 715 664 602 586 455 579 519 435 570 591 666 709 599 894 1816 2132 2085 1704 1549 1713 1873 2568 2788 2856 2843 2769 2765 2847 2660 2457 2575 2364 2024 1442
373 532 445 654 642 845 744 884 698 741 746 661 654 660 646 649 532 556 549 691 689 769 704 782 1749 2399 1941 1985 2304 3121 3371 3305 3132 2922 2843 2935 3019 3002 2956 2416 2458 2652 2106
938 1203 727 661 878 910 811 1173 860 689 927 829 534 506 528 663 638 568 613 687 866 788 797 880 887 859 1556 2079 2792 3167 3276 3424 3306 3274 3306 3175 2777 2603 2560 2466 2371 2334 2523
1175 974 1196 942 642 639 693 1191 893 767 861 731 681 520 539 376 653 616 622 683 800 805 843 858 952 929 956 1367 2128 2756 2721 3259 3521 3550 3489 2847 2524 2523 2319 2343 2469 2297 2628
1132 1110 1120 407 633 898 1274 1110 1113 477 613 796 782 495 251 163 285 303 582 714 725 728 754 828 887 954 1264 1405 1512 2114 2564 2798 2847 3500 3439 2742 2533 2349 2373 2472 2724 2613 2749
1063 1126 1049 583 852 813 782 797 1281 1117 683 989 854 752 701 551 640 310 380 550 770 806 796 717 816 1073 1213 1359 1601 1637 1944 1993 2741 3270 3151 2819 2483 2327 2636 2786 2662 2390 2472
1094 1099 971 905 710 582 555 500 1188 908 1030 965 1025 966 963 1128 1117 588 332 477 683 781 589 749 751 959 1098 1349 1593 1631 1921 1991 2130 2634 2514 2732 2491 2430 2868 3113 2519 2212 2205
1221 941 1050 966 763 702 394 427 1297 1236 1519 1354 1064 1024 841 1235 1147 1111 788 424 486 487 769 764 676 945 1058 1382 1590 1670 1838 1783 2085 2139 2022 2129 2312 2211 2616 3040 2459 2087 1838
777 1043 1157 1114 800 697 566 704 1292 1379 1352 1065 1064 1018 980 1166 1250 1367 1026 990 816 681 818 911 907 890 1100 1364 1591 1723 1727 1785 2198 2325 2239 2352 2418 2001 1944 2487 2063 1730 1345
796 888 1181 1068 904 808 511 996 1099 1248 1175 1395 904 779 705 1064 996 1408 1245 791 1041 1123 1233 1052 961 887 955 1601 1754 1708 1652 1730 1953 2381 2189 2361 2225 2084 1253 1868 2119 1940 1664
667 948 1029 1145 1088 1031 680 364 1026 1174 1197 1250 1123 1161 793 927 793 1188 1425 1334 845 986 1275 1480 1824 1263 1828 1767 1581 1646 1515 1372 1468 2000 2281 2337 2270 1876 1431 1327 1865 2077 2063
684 677 952 1170 1083 1069 1011 917 1164 1191 1451 1316 1018 1070 1180 1136 1270 1365 1085 1199 1313 805 869 1076 1684 1840 1510 1303 1777 1430 1082 1379 1453 2219 2107 1370 1164 1438 1327 981 1519 1700 1951
828 607 419 754 993 1154 1347 782 1092 1262 1057 1015 1168 1247 1310 1314 1454 1204 1253 974 968 1101 885 948 1492 1315 1440 1394 1249 1229 1411 1720 1933 1882 1284 1136 1103 1046 1131 973 1035 1365 1529
813 681 936 910 953 953 1132 1356 1052 1051 995 1076 1095 1093 1107 871 1013 1052 1449 1221 1248 1281 1160 1245 1385 1416 1237 993 987 1176 1252 1289 1467 1449 1351 1346 1081 738 832 845 781 950 1183
945 786 864 708 662 735 897 1158 1317 1195 1075 1021 890 998 1200 1042 912 833 1375 1420 1032 1276 1183 916 991 1057 1067 917 1371 1302 1301 1103 1085 1140 1165 923 1062 563 878 862 531 481 666
1253 1110 801 689 533 632 720 909 1093 1102 1123 1021 1026 1173 1166 949 1068 1230 961 921 1063 1072 1076 1176 1061 995 977 1228 1573 1630 1445 1365 1255 1126 885 316 821 512 966 822 1057 1013 944
1203 1165 929 664 767 784 492 419 692 1119 1167 1154 1119 1071 1136 1258 1249 1278 1460 1405 1492 1558 1389 1233 1114 1012 1080 1087 1057 883 943 864 702 373 195 371 538 453 634 695 585 541 585
1132 1214 1111 987 990 962 971 1039 1151 1137 1305 1353 1278 1242 1120 1211 1418 1390 1322 1304 1414 1533 1589 1544 1191 1234 1167 1024 909 769 765 735 694 378 287 556 569 552 605 707 595 478 545
550 876 1082 1215 1208 1318 1532 1562 1425 1369 1376 1382 1297 1419 1401 1303 1399 1404 1293 1218 1292 1387 1613 1644 1277 1265 1122 1107 1025 1155 1156 1188 1169 836 762 701 717 624 670 647 478 257 209
205 396 573 766 954 1128 1242 1380 1493 1473 1389 1241 1191 1240 1252 1114 1195 1285 1395 1404 1369 1307 1439 1551 1340 1227 1304 1358 1259 1134 1091 1099 1464 1415 1395 1167 890 619 323 212 162 122 87
78 94 250 339 570 596 856 1033 1116 1016 1199 1090 1022 979 942 980 1050 1142 1183 1212 1226 1278 1467 1483 1477 1379 1408 1555 1603 1553 1540 1495 1349 1238 1219 891 582 427 272 220 168 119 135
42 94 98 82 149 278 561 679 791 848 877 950 902 977 1004 1023 1146 1243 1270 1235 1162 1115 1052 1017 1117 1248 1313 1232 1147 1169 1218 1303 1243 1002 884 706 624 409 504 438 135 95 166
26 45 76 116 168 121 220 290 336 357 403 530 619 668 738 843 891 1087 1129 1129 1085 1113 1153 1140 1143 1068 953 893 880 874 902 884 836 782 730 550 538 583 633 544 263 289 370

GFSMA_con_mucape_096.txt.gz
CAPE
661 807 738 641 601 805 475 671 806 1041 941 210 618 1288 1144 752 641 624 488 1043 1498 1702 994 938 923 988 1095 1245 1293 1221 1059 1081 1098 1181 1285 1433 1458 1438 1534 1583 1360 1157 924
586 713 633 683 713 861 857 769 1000 1017 657 347 447 558 829 622 452 452 550 691 1642 1758 1789 1498 1264 1279 1285 1297 1238 1276 1288 1385 1497 1633 2113 2299 2165 1908 1733 1584 1685 1398 1058
563 499 636 783 1013 1160 947 741 831 759 399 518 436 532 535 492 430 550 526 542 586 1250 1789 1732 1644 1741 1916 1745 1637 1803 2498 2760 2565 2628 2956 2956 2754 2487 2567 2558 2100 1808 1753
635 404 585 592 790 836 622 830 694 750 614 586 616 602 582 654 524 547 575 587 609 662 682 1015 1557 2108 2079 2128 2178 2913 3237 3362 3406 3324 3229 3140 3253 3136 2396 2706 2528 2445 1901
311 366 421 560 938 704 819 1003 642 652 675 580 578 655 733 746 702 622 640 599 682 705 725 742 1062 1377 1490 2117 2544 3259 3638 3555 3623 3438 3416 3479 3224 2932 2638 2181 2275 2454 2394
749 1027 665 647 753 777 760 1066 980 909 1086 1098 978 774 782 827 739 759 704 738 841 871 849 859 855 873 1069 1647 2075 2409 2893 3586 3595 3661 3511 3223 2773 2729 2584 2474 2091 2139 2480
964 801 862 763 632 575 920 681 822 1001 818 664 679 618 363 407 441 725 756 737 782 778 855 1056 1050 1115 1347 1483 1721 1797 2233 3158 3633 3655 3429 2954 2657 2456 2440 2569 2468 2433 2584
959 985 839 537 552 972 1004 1082 923 738 704 813 828 531 687 408 624 548 533 641 746 783 731 807 988 1206 1330 1537 1563 2203 2384 2434 2937 3666 3343 2845 2555 2355 2681 2729 2542 2505 2441
817 897 780 455 704 774 663 700 1252 745 1023 911 961 756 789 696 784 350 486 488 616 696 705 750 929 1070 1303 1389 1557 1605 1742 1783 2466 3142 3178 2824 2518 2371 2931 2902 2283 2241 2228
898 1059 995 856 761 590 544 490 1202 1037 1071 1230 994 803 1142 1179 1160 1153 520 404 422 339 576 647 806 922 1191 1351 1557 1674 1619 1674 1837 2365 2620 2716 2465 2328 3057 2872 2168 1915 1887
903 812 808 867 710 699 175 382 1143 1223 1418 1497 1081 968 959 1181 1222 1098 978 1023 793 540 720 722 662 907 1087 1384 1583 1606 1560 1573 1658 2088 2254 2324 2299 2183 2617 2687 2181 1796 1375
687 870 959 861 733 657 523 427 1161 1175 1121 1052 1079 1050 1005 1255 1285 1387 991 854 999 928 1040 929 884 933 1008 1481 1724 1610 1820 1558 1543 1740 2041 2199 2319 2098 1798 2400 1965 1899 1768
534 604 911 971 838 689 518 506 909 1001 1165 1197 937 1114 852 1115 1032 1268 1162 763 906 1066 1335 1845 1701 1125 1824 2197 1892 1534 1807 1366 1155 1718 2154 1560 1430 1868 1608 1766 1747 1867 1871
523 522 726 987 934 872 733 502 802 1011 1063 1070 1056 984 803 923 809 998 1271 1227 1301 1000 1159 1713 1742 1914 1941 1903 1735 1358 1593 1511 1658 1938 1247 805 868 1198 1486 1090 1452 1543 1694
470 465 741 900 928 964 954 710 890 954 1210 1207 1020 910 1209 970 1121 1199 927 999 1189 1216 1280 1220 1842 1925 2794 2194 1680 1725 1462 1612 1643 1373 1342 1202 1228 976 1070 1027 917 1224 1326
466 524 527 446 776 838 887 978 842 1034 1102 918 984 1073 1177 1166 1172 1242 1132 972 826 884 1263 787 1487 1714 1844 1355 1273 1471 1451 1147 1308 1348 1312 1318 1091 546 652 795 755 736 974
683 553 568 427 544 710 883 1112 1050 886 971 929 972 985 1080 983 870 874 1003 1316 939 1041 1167 1421 1019 1452 1470 1570 1629 1512 1242 1853 1411 1066 965 983 884 335 772 747 817 531 486
726 568 464 634 667 690 684 904 1024 1079 929 889 884 825 722 908 991 781 957 1309 1162 1061 1081 1264 969 1085 1268 1272 1159 1303 1431 1300 1325 1173 1040 941 382 371 399 599 505 739 645
712 666 577 633 564 399 443 593 723 880 926 944 878 902 906 849 1035 965 1088 1064 906 1005 1164 1202 1222 984 1000 921 1140 1300 1303 1414 897 737 345 127 408 498 514 516 537 396 328
780 850 806 907 834 589 550 590 429 918 923 917 929 944 987 927 924 1076 978 1064 1121 1191 1303 1384 1347 1356 1067 1067 948 965 1121 1117 1061 1050 665 271 707 596 649 479 439 376 290
672 883 959 897 859 810 818 787 691 799 1069 1147 1111 1243 1197 1190 1177 1196 1432 1655 1217 1239 1208 1143 1284 1348 1205 1215 1251 1192 1069 946 1007 791 871 1017 977 1060 1035 667 432 263 141
309 349 462 680 907 891 955 1060 1151 1211 1229 1309 1562 1469 1296 1393 1360 1198 1212 1203 1239 1590 1670 1173 1563 1390 1551 1090 960 1017 1129 1212 1149 875 1174 1123 894 1284 1118 975 282 127 84
76 68 112 280 369 500 595 886 1101 1206 1268 1217 1160 1081 1015 1058 1040 1083 1036 1122 1195 1270 1266 1648 1468 1560 1389 1322 1247 1241 1260 1097 935 1042 908 1325 1267 1365 910 499 365 239 76
37 52 59 50 88 173 395 556 649 740 824 825 690 729 725 778 774 828 933 1038 1079 1089 1034 940 888 939 1155 1138 872 1030 942 731 717 845 718 983 1204 1149 981 564 501 138 40
9 28 48 121 66 68 133 298 376 505 518 656 669 637 546 540 600 814 699 875 954 988 1057 1035 984 964 922 882 888 837 742 680 883 1089 802 820 1007 781 628 543 548 364 158
2 4 45 57 63 78 98 122 176 224 233 232 260 254 286 325 333 395 455 446 480 464 582 675 670 650 762 895 973 919 891 837 836 898 935 760 852 575 826 764 538 556 563

GFSMA_con_mucape_099.txt.gz
CAPE
1590 1601 1721 1516 1828 1653 1453 1478 1868 2049 1514 629 1414 1910 1815 1475 863 540 414 679 1462 1569 1493 1150 1088 1151 1170 1235 1257 1250 1271 1304 1372 1566 1763 1893 1913 1954 1823 1706 1745 1587 1217
1720 1485 1620 1619 1838 1897 1796 1665 1954 1885 1258 1164 1448 1468 1524 1323 1056 698 536 706 1125 1824 1752 1825 1715 1645 1728 1935 1811 1774 1943 2007 2166 2303 2806 2999 3073 2835 2125 2203 2065 1732 1468
1514 1707 1670 1711 2159 2209 1930 1955 1850 1681 1355 1100 1377 1211 1139 1254 1125 995 929 855 921 918 1377 1667 1785 1870 2032 2210 2306 2599 3209 2990 3112 3335 3538 2959 3051 3187 3120 2924 2622 2351 1840
1497 1444 1303 1670 1619 1828 1898 1984 1667 1712 1501 1447 1504 1424 1241 1213 1293 1238 1210 1133 1157 1231 1122 961 1351 1598 1759 2136 2677 3434 3581 3510 3505 3567 3635 3137 3117 3021 2697 2536 2540 2707 2442
1212 1317 1153 1687 2102 1709 1942 1945 1562 1838 1924 1795 1313 1263 1498 1572 1591 1144 1361 1482 1419 1558 1622 1241 1185 1375 1642 2028 2477 2752 3371 3497 3701 3710 3773 3553 3201 2895 2684 2669 2311 2359 2283
1458 2145 1626 1888 1748 1854 1795 2146 2245 2120 1966 1878 1314 1349 1587 1580 1661 1711 1544 1400 1698 1811 1775 2128 2093 1773 1449 1678 2071 2188 2519 3476 3788 3788 3655 3139 2896 2831 2825 2802 2551 2559 2507
1929 2231 1847 1882 1580 2067 2267 2024 1766 1999 1779 1975 1816 1290 1184 986 1099 1426 1629 1596 1580 1558 1632 1730 2030 1964 1847 1724 1873 2358 2456 2951 3608 3711 3513 2851 2722 2599 2896 2884 2722 2783 2752
1963 2089 2186 1564 1850 2106 2443 2589 2496 1670 1848 1993 1795 1523 1101 1056 1488 1369 1389 1370 1590 1586 1602 1607 1681 1868 2144 2109 2007 2184 2196 1978 2705 3531 3360 2748 2562 2515 3040 2629 2370 2527 2429
1830 2107 1879 1669 1989 1888 1660 2147 2350 2170 1887 1965 2085 1853 1403 1330 1837 1366 1320 1291 1698 1576 1702 1618 1277 1797 2038 1990 1901 1822 1951 1583 2376 3284 3337 2846 2502 2337 3119 2462 2135 2147 2163
1697 1706 2067 1941 1897 1585 1803 1952 2152 2225 2312 1997 2056 1863 1971 2204 1960 1127 1630 1369 1542 1033 1209 1127 1196 1402 2066 2246 1922 1565 1420 1823 2025 2604 2999 2725 2528 2267 3120 2403 1949 1696 1657
2156 1757 2046 2059 2119 1583 1548 1787 2451 2560 2320 1936 1748 2027 2314 2070 2319 2124 1449 1685 1614 1508 1971 1673 1316 1649 2197 2952 2537 2074 1868 1819 1663 1867 2139 2165 2253 2330 2769 2537 1990 1984 1846
1839 2054 1988 2076 2068 1995 1681 1638 2466 2570 2376 2014 1673 1650 1528 1753 2138 2218 1823 1829 2108 2113 2411 2754 2336 1989 3054 2794 2132 2107 2248 1582 1304 1696 1534 1289 1479 1959 2163 2650 2012 1865 1957
1999 1776 2202 2373 1928 1952 1731 1652 2400 2351 2388 2102 2285 1625 1446 1491 1826 2229 2357 1909 1728 1842 2233 2766 2378 2835 2286 2596 2789 1801 2234 1593 1610 1735 1447 1263 1246 1398 1757 2177 1876 1574 1678
1382 1804 1879 2040 1937 1899 1618 1532 1591 1963 2119 1929 2264 2260 1698 1746 1681 1899 1930 2247 1745 1880 1924 2707 2724 2677 2457 2784 2210 1759 2398 1536 1529 1371 1328 1308 1360 1123 1340 1172 1467 1301 1356
1464 1533 1723 1688 2019 1888 1910 1831 1227 1987 2292 2349 2087 2128 2152 1839 2004 2065 2141 1882 2042 1560 1424 1835 1884 2656 2526 2282 2092 2192 2615 1107 1139 1189 1228 1215 1109 879 726 988 865 916 1033
1492 1583 1503 1563 1851 1971 1986 1986 1880 2122 2172 2043 1693 2311 2418 1901 2060 2128 2139 2091 1807 1728 1353 1567 1616 2307 2405 1742 1182 2023 2300 1294 1737 1356 1068 947 964 846 564 663 730 610 587
1621 1628 1528 1236 1260 1422 1772 2359 2279 1779 2074 2101 1940 2177 2273 2365 1786 1642 1801 2123 2071 1901 1579 1179 1814 1728 2374 2356 2138 2378 1906 2258 1539 1009 988 929 601 358 400 438 464 556 739
1687 1645 1539 1713 1781 1674 1865 2103 2056 1908 2057 1902 1706 1899 1949 1694 2303 2157 1736 2196 1940 2141 1844 1974 2097 2088 2315 2574 2658 2809 1947 1698 2161 1179 931 245 67 457 548 555 394 404 329
1782 1711 1550 1662 1783 1408 1219 1529 1806 1777 1978 1908 1842 1905 1700 1883 2257 1969 2293 2757 1783 1940 2192 2160 2173 2171 2265 2205 2286 2293 2560 2572 1838 809 633 428 285 835 883 731 454 330 266
1622 1822 1637 1586 1567 1198 1049 1045 1144 1588 1904 1626 1557 1872 1861 2010 2169 2197 1865 2318 1884 2405 2210 1757 1695 1837 1979 2131 2262 2186 1919 1547 1536 1539 818 807 1035 980 1084 1037 699 412 130
1339 1612 1631 1511 1488 1289 859 1000 1135 1133 1247 1970 2058 1839 1851 1766 1295 1262 2211 2953 2203 2209 2468 1264 1471 1581 1599 1564 1864 1770 1587 1435 1821 1632 1578 1368 1148 1578 1486 1054 845 283 87
616 723 796 891 823 990 761 771 750 1783 2083 2224 2195 2229 2105 1514 1382 1088 903 837 915 2081 2619 1571 1465 1724 2634 2443 1953 1897 1758 1592 1442 1234 1781 1556 1474 1675 1698 1353 554 444 167
207 256 325 460 266 221 372 494 725 1452 1976 2113 1968 1805 1674 1370 771 994 1359 1170 1194 1101 979 1697 2211 2283 2271 2274 2355 2340 2079 2026 1956 1647 1809 1489 1539 1738 1719 1412 923 465 47
47 117 334 33 1 57 221 439 494 933 1147 853 670 703 711 539 478 471 510 1218 1581 1757 1888 1566 1749 1902 2042 2007 2027 2044 2028 1728 1747 1611 2273 1910 1507 1659 1691 1666 992 573 200
4 218 19 22 25 17 49 116 236 291 224 195 275 230 245 227 160 131 181 229 397 558 522 546 623 711 691 648 639 738 1372 1513 1649 1381 1679 1875 1600 1652 1691 1618 1480 745 470
15 6 22 53 28 5 14 43 64 57 73 74 62 47 16 10 0 2 23 51 110 96 135 143 167 265 266 234 240 445 1049 1379 1481 1315 1642 1712 1555 1494 1458 1237 1390 1469 1532

GFSMA_con_mucape_102.txt.gz
CAPE
1789 1630 1804 1813 1767 1564 1550 1743 1924 1757 1387 1295 1462 1462 1285 1321 753 431 219 812 1429 1483 1524 1386 1347 1383 1491 1673 1869 1882 1953 2068 2116 2219 2390 2447 2654 2744 2676 2325 1999 1725 1442
1828 1632 1748 1670 1757 1643 1726 1880 2234 1398 1158 1075 1347 1276 1245 1153 1237 812 692 1019 1127 1689 1694 1769 1775 1697 1769 2060 2332 2381 2582 3054 3264 3197 3352 3270 3244 3137 3070 2857 2290 1981 1607
2082 1885 1787 1622 1898 2301 2387 2175 1758 1501 1071 1055 1566 1478 1260 1208 985 1200 957 1011 1237 974 1263 1475 1570 1639 1931 2320 2732 3145 3890 3891 3904 3861 3481 3440 3528 3392 2882 2679 2726 2686 2324
2028 1809 1505 1549 1966 1905 1793 1561 1392 1114 1310 1226 1451 1379 1285 1087 1390 1388 1247 1380 1526 1451 1416 1496 1406 1737 2028 2317 2674 3220 3740 3894 3926 4046 3978 3843 3413 3032 2895 2865 2776 2481 2368
1706 1616 1626 2066 2118 1710 1687 1327 1352 1360 1239 1210 1040 1124 1166 1317 1368 1044 1497 1588 1553 1662 1668 1801 1681 1836 2053 2279 2566 2749 2941 3598 3884 4019 3819 3546 3226 2786 2977 3065 2793 2703 2432
1741 1592 1760 2068 1928 1668 1647 1816 2479 1742 1139 1128 917 947 960 1224 1376 1446 1384 1317 1573 1655 1480 2064 2352 2418 2496 2080 2501 2457 2911 3488 3597 3948 3601 3119 2989 2909 3086 3040 2940 2932 2821
1682 1748 1676 1969 1809 1808 2376 2120 1635 1699 1057 1391 1160 892 939 1116 1193 1281 1262 1243 1362 1273 1564 1992 2277 2314 2212 2663 2549 2255 2529 2448 3369 3897 3707 2942 2821 2796 3170 2645 2733 2692 2652
1540 1711 2015 1667 1956 1863 2434 2658 2524 1315 1362 2133 1041 1097 857 927 1007 951 1098 1015 1197 1374 1654 1855 1946 2257 2548 2480 2405 2097 1934 1960 2806 3762 3827 3190 2675 2555 3190 2380 2393 2429 2225
1571 1602 1914 1863 2132 1777 1667 2129 2086 2669 1305 1997 2515 1910 1023 1180 946 856 1090 951 1216 1466 1585 1551 1622 2001 2632 2659 2538 2459 1971 1952 2659 3081 3620 3288 2764 2314 3083 2258 1971 1988 1800
1378 1396 1875 1931 2174 1630 1994 1945 2024 2389 2662 1535 1861 2294 2937 3266 1381 1020 897 1089 966 961 1489 1463 1483 1947 2603 2544 2370 1837 2059 2260 2311 2329 2630 2990 2832 2573 3022 2319 1836 2000 1740
1462 1583 1644 2262 2289 1799 1933 1987 2167 2144 2010 1721 1713 1903 2605 2433 2676 1455 1076 1115 837 1093 1723 1794 1762 1949 2556 2885 2528 2108 2485 2061 1611 1676 1857 2081 2430 2645 2759 2717 1912 1745 1995
1065 1096 1223 1558 2072 1960 2205 1634 1836 1719 2750 2219 1736 1624 1615 1792 1966 1748 1439 1608 1542 1820 2065 2479 2518 2191 2619 2543 2497 2253 2522 1838 1666 1664 1451 1477 1438 2178 2673 2971 2410 1606 1596
1147 1253 1463 1517 1523 1802 2018 1669 2390 1779 2027 2205 2285 1650 1375 1442 1773 2117 2050 1810 1650 1802 2113 2506 2544 2579 2395 2591 2317 1806 2095 1365 1399 1397 1330 1333 1357 1239 2122 2601 2534 2024 1348
1128 1790 1366 1510 1641 1470 1939 2140 1971 1608 1686 1466 1916 2334 1513 1493 1415 1495 1808 1890 1638 1651 1827 2479 2326 2316 2120 2232 1821 1741 1569 1810 1013 1061 1110 1128 1042 980 1131 1644 2037 2051 1635
1682 1772 1786 1545 1707 1641 1933 2027 1508 2010 2211 2226 1644 1842 1817 1290 1440 1499 1557 1477 1612 1353 1248 2229 1545 1740 1852 1484 1433 1562 1591 1374 1271 1658 1528 1228 1075 952 622 749 789 915 903
1843 2003 2047 1893 1519 1548 1465 1792 1484 1661 2143 1652 1521 1789 2040 1288 1519 1346 1399 1319 1347 1309 1199 1017 1092 1682 2165 2091 1370 1611 1441 1261 1695 1729 884 837 562 261 438 445 394 525 746
1592 1799 2228 2115 1847 1679 1782 2204 2024 1577 1884 1538 1693 1866 2089 2539 1596 1127 1038 1130 1213 1205 1123 678 901 935 2208 2314 2338 2503 1660 1136 743 856 942 837 137 104 520 554 485 331 330
1472 1404 1674 2286 1790 1291 1585 2038 1725 1211 1652 1328 1278 1415 1678 1368 2197 2112 1543 1676 1836 1826 1477 1915 2177 1453 1590 2012 2172 2720 1973 1232 1419 731 528 690 260 164 710 791 782 435 295
1158 1264 1601 1555 1179 1666 1612 1611 1577 1639 1485 1354 1163 1261 1282 1376 1667 1422 1907 1665 1131 1530 1954 1688 1386 1060 1313 1497 1815 2342 1934 1807 982 274 249 271 462 626 926 947 1040 691 256
1013 1035 1248 1691 1414 1231 1506 1725 1595 1619 1525 1291 1506 1300 1401 1419 1607 1832 1621 1901 1806 1947 1696 1512 1158 970 974 1328 1538 1062 776 727 794 687 629 632 688 695 991 1071 1026 787 185
1228 1940 1413 1768 1819 1557 1084 1879 1916 1804 1870 1669 1687 1594 1495 1348 1012 1243 1978 2148 1925 1919 1317 1214 1030 947 824 1904 1761 1095 834 782 1318 922 738 1167 915 929 1024 850 943 674 513
1762 1808 1834 1794 1588 1243 714 654 690 1837 2015 1718 1666 1811 1552 1241 1417 1447 1332 1100 929 2122 2140 2080 1483 1454 2152 2194 1427 1169 1470 1381 1508 1229 1980 1434 1198 1148 1224 1160 871 849 545
1134 1144 1185 1172 301 253 304 359 488 1544 1950 1535 1674 1840 1591 686 694 782 791 831 1244 1370 1264 2138 2182 2183 2337 2799 2611 2594 3008 2316 2242 1899 2120 1579 1334 1310 1149 1061 1125 1013 552
510 725 392 144 43 25 192 361 615 1466 1315 815 528 529 410 429 243 182 352 962 1413 1647 1690 1602 2013 2040 2163 1603 1434 2134 2093 2265 2285 2058 2664 1566 1319 1384 1265 1281 1160 1073 637
322 426 103 5 24 52 58 173 269 313 305 316 194 144 63 22 0 0 0 7 46 202 111 104 166 165 141 172 226 537 1096 2413 1796 1826 1864 2052 2149 1952 1605 1167 1185 1103 1024
143 103 19 9 0 22 53 52 36 56 65 64 61 38 13 4 0 0 0 0 0 0 33 24 14 18 0 0 0 413 1257 1496 1854 1567 2049 1884 2767 2067 1652 1507 1435 1525 1549

GFSMA_con_mucape_105.txt.gz
CAPE
1638 1997 2336 1993 1773 2291 1145 1345 1236 1196 1340 1128 882 957 694 614 380 13 19 944 1112 1206 1368 1376 1492 1587 1704 1923 2357 2523 2599 2759 3283 3151 3189 3307 3348 2990 2653 2535 2236 1941 1381
2489 1543 2285 1413 1732 2137 1443 1677 1803 970 942 750 992 970 879 687 872 541 449 881 1221 1332 1514 1695 1802 1771 1910 2246 2711 3062 3679 4116 4186 3915 3823 3686 3666 3331 2822 2702 2497 2148 1978
2037 1838 1323 1813 2053 1745 2217 1720 1382 1298 784 761 1234 1086 859 868 982 1200 1125 1201 1211 1556 1668 1735 1669 1598 1814 2267 2822 3554 4109 4124 4099 4031 4184 4031 3693 3279 2939 3084 2787 2391 2383
1860 2337 1919 1311 1336 1816 1496 1012 1175 715 872 1033 1153 1242 904 886 1214 1397 1443 1589 1658 1492 1894 2088 1794 1982 2253 2626 2926 3348 3762 3784 3888 4191 4038 3870 3475 3071 3168 3246 2985 2614 2360
1919 3264 2589 1889 2718 1616 1219 2029 545 2018 863 985 1069 1113 1105 1070 1447 1215 1680 1621 1461 1729 1782 2413 2937 2732 2578 2743 2679 2872 3325 3765 3783 4015 3995 3595 3217 3060 3263 2999 3169 3011 2507
1782 2224 2010 1738 2882 2065 1472 1535 2880 1271 1284 1110 1064 931 1143 1146 1265 1438 1443 1346 1569 1841 1583 2417 2951 2603 3350 3210 2641 2529 3052 3472 3711 4131 4076 3376 3035 3025 3219 2681 2893 2940 2798
1844 2077 2419 1924 2468 2975 2416 2008 2032 1742 912 869 1598 887 910 1142 1376 1294 1168 1138 1218 1266 1570 2200 2274 2510 2643 3807 2714 1842 2528 2851 3676 4184 4377 3592 3035 2786 3151 2408 2631 2529 2621
1837 1672 2589 2198 2203 1881 2159 2554 2608 2148 910 839 1619 1261 981 1090 1137 1077 1062 915 1115 1216 1606 2007 1984 2606 2811 2570 2855 1980 2056 2577 3197 3805 4288 3977 2959 2494 3118 2146 2185 2014 2110
1641 1989 2015 2534 1871 2621 2215 2610 1947 2435 1155 1009 2483 2940 1552 2099 1033 914 1004 1046 1247 1492 1551 1611 1745 2219 2708 2981 3022 2782 2619 2519 2762 2819 3245 3755 3353 2795 2811 2087 1662 1865 1663
1481 1618 1811 1961 2309 2950 3148 2391 2178 3518 3284 975 965 1457 2790 2865 3004 1160 717 1085 949 1108 1385 1532 1377 2246 2365 2415 3146 2423 2562 2354 2102 2342 2587 2521 2904 3100 2720 2648 1562 1602 1859
1402 1438 1754 1980 2085 2120 1987 2521 2075 2898 2336 2545 1639 1211 2130 1649 1556 1734 1843 1317 737 872 1639 1674 1602 1736 2575 2703 2513 2039 2748 1970 1701 1834 1866 1847 1977 2623 2934 2957 2239 1333 1442
1483 1405 1516 1798 1872 2476 1928 1726 2087 2099 2850 3643 2555 2209 1258 1795 2442 2497 1617 1592 1831 1719 1503 2116 2035 1903 2147 2164 2320 2377 2314 1777 1167 1222 1224 1221 1483 1931 2398 2850 2904 2251 1175
840 1456 1622 1658 1595 1973 2244 1899 2137 2510 1917 2307 3513 2332 832 1081 1237 1543 1601 2061 1242 1529 2103 1861 1265 1752 1808 1724 2258 1791 1751 1702 1662 1053 911 1028 1069 1323 1750 2382 2723 2672 2214
1225 2077 1673 1498 1493 1883 1857 2183 1919 1397 2713 1726 1976 3551 2236 1065 968 1112 1378 1310 1264 2311 1352 2365 1244 3211 2670 2405 1707 1421 1112 1198 1392 1041 1460 1509 1134 997 1087 1416 1772 2131 2341
2120 1981 1380 1495 1533 1532 1784 2062 1784 2094 2298 2166 2427 1905 2026 1327 806 1034 1059 1078 1149 971 939 3048 1625 2730 1865 1768 1649 1704 2255 1095 782 929 1516 861 863 302 369 529 666 742 861
1233 2076 1596 1716 1811 1824 1914 2029 2296 2317 1920 1846 1050 2054 2057 1325 1920 1088 917 875 874 942 937 793 784 1415 2514 2038 1449 2265 1928 1227 992 1330 1418 692 555 152 292 473 516 456 306
1148 1403 1665 1708 1590 1898 1903 1978 2823 1968 1989 1772 1707 1667 1455 2207 1670 1327 1404 1068 677 705 874 1017 847 1239 3369 3012 2019 2408 1524 2606 966 1076 789 574 506 56 103 457 647 743 448
1390 1430 1794 1654 1367 1691 1785 1978 2284 1278 1416 1507 1465 1545 1533 1086 1933 2859 1715 3361 1789 2270 951 2851 1810 1483 2690 1739 1593 3441 1532 1071 1277 892 553 274 408 257 354 563 843 863 730
1312 1439 1415 1415 1559 1680 1399 1769 2020 1516 1578 1217 1134 1372 1453 1530 1865 1782 2083 1833 1188 1839 2114 1670 1052 752 1212 1473 1979 3008 3259 2902 889 434 168 261 410 403 484 561 900 955 595
1375 1219 1663 1884 1652 1554 1629 1432 1588 1760 1738 1437 1475 1862 1849 1520 1705 1946 1878 2437 2359 2177 1656 1593 1334 1387 1596 2259 3063 1167 1152 762 893 638 529 425 520 530 472 525 845 947 658
1141 1210 1217 2236 1377 1338 788 1282 1519 1721 1963 1789 1421 1479 1585 1176 1010 1056 1347 2475 2492 2138 1371 1317 1096 893 1113 1759 1422 1031 1365 1203 1810 1716 1150 1189 1111 929 1049 517 961 1018 774
1257 1308 1337 1527 1463 1302 449 548 803 1815 1717 2067 2073 1564 1237 1619 1480 1304 1250 1105 1208 2321 2270 1860 1533 1358 3015 2001 1745 1822 2121 1649 1669 1831 2674 2040 1925 895 877 1028 952 949 968
1269 1431 1262 1300 1220 716 392 382 515 1130 1703 1993 1861 1854 2011 802 1054 1211 1060 820 855 884 964 1852 2370 2698 2586 2892 2502 2994 2727 2588 2014 1966 2406 2099 2396 2326 2008 1056 1035 1010 1059
927 942 824 321 160 102 154 325 457 1442 1823 1576 1544 1273 1105 536 320 185 76 775 965 1359 1610 1305 1804 1161 1099 611 420 994 1907 2181 2259 2109 2502 1700 2229 1993 2009 2087 1292 1025 1142
433 272 170 109 71 60 85 227 414 1174 582 373 281 253 190 156 87 39 23 65 91 107 3 3 0 3 0 0 1 11 442 1992 2178 1326 1721 1800 1651 1862 2128 1899 1402 1123 973
58 99 95 96 82 22 10 20 95 328 430 106 67 74 58 42 14 2 0 0 0 0 0 0 9 0 9 25 1 49 612 508 547 592 1292 644 1086 2610 904 1235 1935 2184 1466

GFSMA_con_mucape_108.txt.gz
CAPE
1611 1457 0 868 2373 1781 2045 2466 2599 1962 2059 1663 1622 1300 712 1019 28 7 276 1411 1280 983 1097 1239 1560 1733 1808 2100 2633 3273 3755 4067 4238 4242 3888 3536 3451 3063 2847 2497 2264 2198 2012
2110 1866 1536 1872 1039 2904 2701 1506 2086 2070 1928 1158 1735 1536 1230 1071 1466 285 399 1054 1893 1574 1332 1510 1828 1947 2104 2455 3165 3775 4133 4239 4131 4177 4209 4046 3545 3485 3214 3119 2597 2145 2229
3187 1804 1490 2155 2877 2741 2692 3004 2908 1812 1806 1578 1887 2182 1367 1475 1376 1603 978 848 1316 2373 2355 2349 2419 2407 2380 2398 3233 3901 4006 3916 3898 4158 4159 3934 3608 3451 3345 3302 2958 2258 2665
2856 2564 2353 1388 2427 3389 3152 2812 3037 2294 1151 2271 2075 2028 1940 1556 1871 2064 2000 1654 1453 1224 2512 2850 2795 2719 2985 2731 3487 3649 3664 3686 3743 3886 4019 3788 3452 3488 3245 3170 3112 2466 2597
2320 1685 2487 2734 3330 2425 1388 1645 1870 2080 1995 1470 1706 2025 2131 1703 2204 1640 2078 2275 2005 1966 1831 2429 2825 2964 3233 3076 3302 3054 3236 3452 3484 3921 4058 3608 3223 3407 3186 2932 2914 2782 2355
2175 2916 2626 3213 2296 2126 1602 2353 2969 2336 3262 1091 1092 1618 2087 2084 2156 1953 2048 1626 1882 2198 2319 2987 2457 2611 3146 3979 3129 2359 2566 3155 3584 3965 4231 3677 2958 2982 3093 2780 2905 2558 2631
2312 2915 3277 2746 881 1084 3582 3521 3561 3255 3094 2662 3394 2118 1545 1831 2074 2063 1654 1381 1637 1917 2307 2580 3523 3350 2448 3646 3295 1823 2312 3246 3726 3944 4098 4033 3136 2631 3009 2343 2491 2461 2488
2594 2799 2927 2117 1655 2779 3445 3727 3977 3816 2609 2119 2539 2466 2215 1973 1497 1288 1770 1332 1305 1458 1976 2319 2955 2757 3349 2820 2805 1894 2538 2861 3385 3663 3807 3854 3666 2753 2995 1923 1950 1864 2295
2588 1313 2860 2051 2710 2965 3122 3808 3929 3532 3149 2256 3106 3717 2774 2465 2008 1453 1269 1618 1162 2076 1964 1857 2465 3037 2973 2361 2974 2862 2623 2496 2690 3253 3224 3052 3264 3317 2627 1991 1309 1535 1761
2368 2402 2515 2727 2965 961 1488 3767 3210 3635 3393 3311 2679 2237 3343 1029 816 1452 1246 1124 1330 1723 1519 1518 1381 2628 2916 2624 2636 2461 2341 2146 2174 2318 2428 2614 2644 3039 3048 2705 1466 1156 1430
2418 2134 2979 2682 3097 2634 2569 3518 3187 3702 3483 3679 2612 3142 2097 3585 1143 1590 141 612 1355 1525 1878 2035 1239 1944 1952 1703 2247 2281 2084 1732 1639 1366 1234 1702 2197 2575 2765 2885 2464 1245 1011
2285 2917 2076 2873 3161 3045 2090 2647 3688 3367 3345 4128 3525 3417 1750 763 735 652 477 286 655 1232 613 935 620 533 847 933 1445 2437 2047 1528 1545 1352 840 1217 1283 1696 2046 2732 2958 2636 1596
1082 2963 3486 2776 2711 2693 2814 2827 3270 3208 3309 3139 4219 3224 3023 1267 209 563 764 653 225 957 774 288 68 0 106 1103 1821 1531 1486 1181 1199 1073 749 1335 1000 788 1316 1788 2433 2820 2681
406 1904 2817 2810 2937 2882 3080 2853 3093 2763 2972 3094 3646 3243 3195 2145 1334 1945 2365 1516 1205 1330 571 311 284 351 1263 1676 1556 1970 1713 1692 1217 871 642 1191 886 658 511 739 1090 1487 1861
470 982 2140 2764 2758 2330 2942 2711 2885 2468 1806 967 2733 3482 3005 2269 1775 1883 856 2152 1985 1725 1196 1017 1147 755 2000 1726 1934 2507 2482 1690 1024 1272 1019 879 800 486 285 301 408 453 518
501 226 838 2536 2645 2199 2202 2931 2159 1748 2141 2372 2362 2520 2966 2462 2104 1838 1333 1623 1698 1363 1449 1484 1225 2529 2765 1760 1837 1913 2287 1082 1339 1323 824 866 688 552 335 333 399 533 590
897 305 1524 2394 2266 2147 2091 2576 2507 2614 2030 2749 2702 2220 2282 2767 2688 2182 1962 1726 1452 1881 1682 1529 1174 1319 1954 3084 2648 2672 2619 1714 1572 649 732 746 492 479 438 472 767 833 778
2868 2261 2490 2630 2679 2523 2580 2703 2296 1986 1517 1932 2451 2630 2519 1749 2265 3254 2553 2586 2154 2603 2408 1261 2559 1051 1414 1969 3381 2784 3021 1011 1539 1122 637 566 422 440 628 553 594 888 917
2474 2160 2462 2280 2129 2057 1864 2663 2698 2793 2109 1814 2423 2323 2286 2126 2167 2174 2712 2666 2063 2045 2295 2190 2134 1470 1283 1679 1070 1673 1902 2489 2091 544 727 527 519 640 481 570 529 709 950
2363 2508 2037 1485 2168 2348 2027 2309 2722 1986 2199 1944 1994 1814 867 1767 2186 2293 1864 2342 1890 2237 1810 1842 1567 1523 1328 1463 1007 1642 1445 1877 1645 1884 1479 1945 1370 1143 787 781 709 709 939
1594 1713 1910 2025 1726 996 764 848 1732 1967 1862 1973 2706 2136 2294 1231 674 940 1614 2449 2934 2493 2224 1663 1502 1276 1488 1826 1741 1894 2062 1983 1781 1882 2070 1919 1811 1929 1719 1147 854 952 908
1754 1786 1643 1843 1378 698 442 271 509 1738 1780 1934 2025 1959 1357 1483 1176 995 1003 970 911 1693 2156 1998 1730 1614 1869 1903 1864 2034 1947 1766 1589 2019 1790 1701 1403 1244 1702 1382 902 927 920
1363 1497 1709 1565 934 701 345 337 308 378 1373 2316 2479 2575 1498 752 743 980 756 626 932 1073 907 1135 1478 1642 1675 1830 1194 1052 1103 1261 1228 1369 1620 1430 1592 1885 1686 1799 1489 1050 926
390 588 605 421 303 146 123 97 187 235 1608 1794 1254 1460 726 592 316 217 136 808 784 1219 623 342 550 222 58 48 15 113 280 858 1455 1344 1408 1531 1211 984 1008 1426 1319 1136 975
150 128 149 100 34 47 54 109 240 1634 868 674 425 257 257 141 130 89 44 8 59 21 4 0 0 0 12 13 1 0 319 524 622 344 538 448 724 622 1054 1111 1169 887 1072
75 72 60 20 9 26 52 84 87 533 357 108 40 56 85 70 45 6 0 0 0 0 0 0 0 5 80 28 3 4 384 85 52 22 44 125 485 612 599 1334 630 647 1134

GFSMA_con_mucape_111.txt.gz
CAPE
390 86 342 446 288 996 926 1008 996 1379 1289 1002 435 326 282 68 0 26 440 1293 1597 1387 1103 1150 1434 1732 1866 2153 2581 3093 3543 3943 3962 3671 3686 3657 3353 3119 3079 2686 2338 2111 1724
986 599 541 510 571 737 996 968 1017 1360 1199 684 754 443 379 424 232 90 22 632 1902 1870 1848 1556 1797 2165 2102 2402 2906 3662 4053 3768 3649 3900 3884 3661 3464 3194 3195 3155 2802 2358 1958
1278 1069 918 938 924 1422 1465 1662 1595 1702 686 704 638 766 431 592 624 747 878 440 1034 2126 2243 2536 2766 2906 2913 2521 2961 3639 3428 3394 3554 3608 3657 3416 3149 3376 3073 3040 2778 2236 2068
1744 1294 1569 1299 1435 1607 1501 1370 1500 1550 748 828 808 614 595 675 778 900 1018 1171 1027 907 1856 2902 2923 2927 3123 3065 3593 3335 2878 3094 3197 3553 3563 3233 2988 3258 2799 2920 2566 2333 2399
1901 853 1314 1827 1863 1560 1181 1070 1196 957 760 969 1019 946 750 821 891 1057 1083 1327 1311 1372 1245 1760 2768 2689 3031 3160 4020 2809 2502 2740 3008 3475 3714 3075 2752 3261 2633 2872 2799 2499 2465
1633 1691 2048 1356 1194 1250 1775 2469 1976 1961 1874 1392 995 918 840 824 905 1075 1098 1352 1262 1386 1419 1707 1986 2153 2979 3497 3873 2607 2160 2734 3190 3497 3706 3222 2550 3006 2361 2418 2276 2458 2587
1299 1793 1755 1 769 955 1996 2253 2106 2012 2300 1506 1390 1724 1008 876 1027 1009 1117 1226 916 1288 1448 1664 2134 2077 2156 3029 3134 1987 2278 2979 3344 3497 3431 3538 2786 2455 2135 1989 1762 2232 2031
1311 1561 1463 1294 1060 1794 2095 2141 2416 2595 2102 1028 1336 2140 671 495 777 1015 947 1070 1039 951 1329 1527 1887 1995 2273 1909 1615 1495 2282 2860 3365 3172 2837 2805 3173 2319 2396 1535 1453 1770 2100
1277 1150 1637 1273 1208 1207 1440 2101 2505 2376 2534 2241 1773 2135 1728 1667 1120 791 641 701 467 732 970 925 1088 1653 1951 1716 1723 1932 2183 2207 2785 2509 2330 2356 2510 2871 2520 1542 1015 1247 1633
1387 1119 1403 1685 1223 1125 1228 1896 1934 2197 2451 2360 2011 1873 663 549 375 455 678 521 446 669 665 529 433 439 715 278 1035 963 1601 1828 1669 1654 1700 2084 2182 2541 2697 2358 1240 863 931
1427 1304 1119 1210 1588 1418 1284 1730 2174 1852 2079 2379 2270 2035 929 545 506 82 241 251 194 425 422 347 279 177 206 282 630 963 1552 1251 1133 1057 1019 1330 1663 2184 2648 2734 2130 1203 809
941 1004 1519 1620 1268 1343 1335 1497 1854 1403 2060 1816 2294 1976 1363 353 311 211 11 1 67 272 188 2 0 54 5 532 647 931 1654 1019 1003 906 588 960 914 1218 1990 2693 2924 2629 1828
523 660 873 1212 1292 1159 1263 1586 1473 1221 1806 1549 1748 2086 1876 722 534 249 117 254 149 369 319 270 190 145 120 327 846 758 1202 1007 1285 1135 838 659 1009 505 860 1473 2035 2558 2727
503 491 861 1092 1014 1368 1254 1668 1194 1777 1208 1184 1128 1438 1920 1429 1076 1122 824 517 408 455 431 456 470 439 638 688 1094 1307 1353 1449 1178 931 1193 1063 827 467 288 450 693 1069 1387
127 583 715 884 1093 1391 1210 1305 1418 1123 1271 881 1116 1236 1666 1437 1071 1439 1305 1196 1074 571 544 539 652 710 667 747 926 1094 995 1503 1063 1092 1341 695 639 526 408 580 617 465 374
0 172 500 787 1068 911 662 1259 1055 814 1260 1169 1335 961 1203 1043 1022 1280 1224 1518 1076 722 490 1003 686 903 1041 1121 1183 1098 1096 1643 1229 1235 1110 482 578 604 612 495 601 780 687
144 253 343 830 1110 817 1050 1198 1158 796 1103 1058 1215 1142 1000 1255 1302 990 1530 1500 1156 1502 919 682 905 882 681 958 1137 1887 1606 1884 1195 1075 741 886 494 529 540 466 517 556 855
434 132 171 937 944 954 1136 969 878 1488 947 838 862 947 988 1147 967 987 1097 1384 1088 1264 914 679 926 980 921 780 617 678 1593 1688 1326 1394 1581 1945 981 851 1205 1581 1268 601 772
817 895 977 883 964 1207 981 1079 1354 969 921 1202 978 1045 841 708 959 616 952 1075 682 898 717 978 1062 920 898 1141 1129 1352 1494 1581 1472 1354 1353 1665 1494 1627 1470 1439 1253 1032 807
764 715 1097 846 817 809 713 1152 1221 1189 970 1033 1313 1136 758 561 1075 732 913 931 1305 1113 1430 1108 1152 1094 1042 1446 1364 1461 1227 1379 1248 1213 1513 1149 1294 1308 1807 1552 732 817 867
930 774 808 834 507 509 458 667 819 1147 883 738 710 775 819 899 760 548 521 585 664 908 902 1111 1066 1153 1097 1164 1275 1169 1167 1347 486 1275 972 1191 1084 1580 1577 1600 1286 992 937
483 468 595 559 406 432 336 307 318 750 882 817 864 713 562 633 754 862 802 678 561 789 840 780 942 902 999 1027 760 124 398 285 517 701 866 955 920 1185 1031 1129 1231 1014 897
200 170 355 353 378 328 261 245 191 262 414 706 777 648 550 400 334 355 266 302 482 582 562 482 492 464 334 26 0 0 171 278 450 443 407 736 588 593 470 929 1035 883 842
154 171 138 173 99 104 100 62 76 139 444 423 327 479 389 275 171 173 139 134 172 158 98 29 0 0 0 0 0 0 9 99 156 114 27 130 275 149 263 681 514 575 796
78 114 101 21 19 8 4 17 198 521 322 256 209 187 156 169 95 36 14 1 0 0 0 0 0 0 0 0 25 14 0 0 1 0 0 0 115 0 283 280 181 142 125
29 30 17 23 11 3 11 17 106 385 134 100 61 72 82 53 38 25 6 0 0 0 0 0 0 0 3 0 0 6 0 0 0 0 0 0 6 1 0 0 0 0 0

GFSMA_con_mucape_114.txt.gz
CAPE
0 0 238 139 371 624 948 858 779 850 1127 1459 1345 805 1246 101 0 129 552 1284 1677 1297 1197 1180 1376 1774 2165 2428 2815 3218 3569 3843 3780 3654 3371 3148 3035 3031 3134 2772 2498 2100 1682
508 256 263 254 529 684 1038 1175 1188 988 1012 738 638 341 394 252 117 42 33 512 1725 1881 1756 1553 1962 2376 2486 2871 3368 3925 4138 3790 3733 3868 3625 3252 3175 3201 2716 2952 2693 2350 1696
1088 577 692 870 919 1199 1369 1361 1806 1536 1343 671 660 449 347 575 627 842 945 577 708 1960 2403 2570 2891 3166 3309 2892 3617 4199 3728 3485 3573 3694 3425 3050 3067 3084 2707 2724 2509 2192 1955
1188 1021 1237 1136 1086 1289 1563 1219 1274 1233 987 707 755 701 533 566 780 972 1039 1210 985 959 1148 2459 3222 3283 3419 3482 4272 4428 3568 3279 3158 3592 3546 2939 2964 2826 2625 2573 2547 2265 1945
1621 1611 1782 1204 1097 1196 1514 2216 1533 1209 1051 805 870 686 753 845 864 992 1067 1215 1228 1314 1279 1650 1989 2963 3090 3260 4347 4383 3414 3125 3128 3363 3599 2749 2763 2748 2418 2504 2426 2520 2143
1797 1825 1846 1114 978 1435 2009 2182 1929 2236 1691 1156 931 945 725 799 909 959 1045 1112 1273 1150 1177 1202 1295 1508 2499 3523 3542 3678 3214 3509 3270 3235 3410 2985 2409 2640 2002 1835 2251 2535 2120
1281 1507 1215 298 930 1742 2037 2185 2287 2462 1397 757 1257 1166 723 676 745 712 896 967 1096 740 969 1242 1793 1959 2202 2643 2111 2790 3392 3356 3787 2857 2736 3136 2501 2578 1732 1345 1770 2203 2440
1396 1633 1227 1073 995 1325 1581 2088 2005 2190 2062 1966 1282 1431 470 461 570 719 758 821 750 804 910 1061 1328 1881 1563 1687 1761 1963 2195 2404 2933 3050 2351 2391 2885 2273 1652 1156 1214 1912 2076
1145 1215 1343 1155 1193 1030 1319 1633 1831 2067 1810 1617 1478 1523 1344 1178 799 555 689 557 551 577 838 712 544 982 1215 908 1025 964 1208 1381 2174 2894 2182 2054 2294 2599 2211 1192 969 1346 1585
977 1123 1372 1205 1177 1257 1136 1859 1682 1749 1887 1715 1181 711 476 533 656 552 543 363 316 411 525 554 373 157 168 318 248 676 926 1271 1944 1905 1611 1774 1849 2280 2551 1747 990 784 888
1200 992 921 1395 1352 1137 1223 1318 1462 1682 1753 1628 973 709 469 424 186 332 288 353 314 204 256 271 59 0 32 22 522 811 935 1315 1569 1213 1025 917 1196 1815 2578 2753 1770 961 679
650 934 1150 1057 1012 1085 1143 1212 1397 1453 1576 1509 1478 876 503 320 232 138 43 1 37 121 126 147 109 164 7 0 571 693 780 1081 1199 1309 1014 842 890 861 1873 2729 2851 2301 1307
456 533 751 869 1134 1055 1159 1463 1300 885 1204 1451 1549 1000 474 471 500 310 269 310 289 296 286 353 449 382 238 277 521 885 1031 1356 1502 1249 918 1125 907 458 624 1556 2432 2883 2854
284 354 570 850 968 1057 814 1299 950 1345 1047 863 819 1245 866 694 679 725 593 364 333 234 298 450 427 398 459 571 810 837 920 1120 1464 1302 1078 1065 808 594 601 743 787 1163 1493
179 386 605 646 856 805 1055 1112 1065 1148 1022 921 1075 1232 1195 912 725 931 746 614 528 256 399 603 540 649 778 797 831 1182 1096 1291 1388 1152 859 757 429 577 540 510 587 767 753
0 382 443 514 633 881 1041 962 1057 817 838 991 1072 783 834 701 950 993 879 962 881 493 323 685 767 762 960 854 930 1413 1444 1538 1329 1360 1366 579 361 536 622 1033 842 584 854
0 0 119 480 692 996 709 949 950 675 735 920 931 886 678 932 1043 1323 1069 1070 1071 877 431 541 672 938 811 562 464 1403 1602 1474 1415 1235 1795 1459 1366 1481 1544 1498 1474 1352 737
52 159 164 544 606 909 824 765 788 1320 753 614 544 756 764 895 881 705 799 957 768 690 563 513 744 851 930 972 1030 1166 1137 1330 1220 1255 1536 1173 1194 1548 1612 1230 846 1029 709
168 278 194 257 398 853 792 759 793 824 988 837 874 836 765 595 646 622 691 782 679 741 1016 954 785 687 1011 1177 1047 1038 925 950 888 1230 1055 1169 1665 1598 1539 1338 846 769 856
310 330 509 554 568 523 492 563 554 1080 748 682 842 865 855 769 665 610 633 829 735 661 731 492 595 779 910 1019 1076 773 137 316 730 957 741 958 1458 1548 1351 1279 1038 944 1013
375 646 614 723 380 313 314 294 460 678 911 700 512 645 634 593 636 630 470 471 462 403 394 529 570 690 837 845 549 226 113 281 598 434 493 731 695 904 962 1113 1033 823 797
298 424 393 560 555 333 313 176 258 474 750 675 411 421 521 602 459 618 614 463 487 717 759 697 700 571 393 249 22 3 260 357 545 152 164 233 302 441 744 848 872 860 932
140 219 198 223 279 285 253 219 181 167 594 662 517 442 353 244 235 281 250 307 298 364 348 211 65 0 3 0 0 0 7 154 228 57 34 118 0 277 432 412 716 769 607
175 136 70 100 85 174 157 88 46 22 194 371 402 261 212 244 209 206 203 166 139 123 64 1 0 0 0 0 0 7 0 0 25 0 0 0 12 0 320 168 188 170 186
104 81 78 66 75 49 27 25 326 173 161 197 191 152 119 132 138 80 36 19 3 0 0 0 0 0 0 0 0 0 0 0 0 0 0 0 0 0 0 0 38 19 3
85 80 54 29 24 27 43 25 126 107 113 123 128 128 95 79 62 42 30 21 18 8 0 0 0 0 0 0 0 0 0 0 0 0 0 0 0 0 0 0 0 0 0

GFSMA_con_mucape_117.txt.gz
CAPE
206 98 220 189 391 519 742 981 1009 1047 959 853 811 1056 908 604 67 31 157 1382 1761 1381 1221 1345 1563 1930 2428 2860 3264 3476 3886 3917 3846 3508 3543 3158 2910 2820 2677 2885 2586 2154 1776
54 179 373 479 576 768 1209 1319 1343 1078 1065 958 447 348 406 1036 5 13 115 363 1835 1825 1352 1520 1936 2302 2619 3004 3524 4127 4348 3825 3888 3909 3751 3381 3004 2900 2541 2615 2530 2175 1595
951 735 913 909 965 1045 1231 1187 1025 1200 1028 618 473 313 384 466 708 783 653 536 762 1337 2160 2399 3045 3421 3414 3180 4088 4339 4175 3611 3674 3811 3690 3127 2938 2720 2525 2467 2305 2206 1772
1114 992 1090 1060 929 1241 1172 1765 1336 898 696 549 594 587 361 320 693 817 1000 1114 903 978 1044 1342 1909 2263 2810 3488 4536 4382 3777 3352 3418 3593 3620 3015 2722 2551 2247 2266 2085 2176 1757
1147 1314 1226 1086 952 1527 1952 1906 2039 921 799 652 605 634 605 512 564 687 847 970 1074 1143 1159 1228 1579 1765 2176 2722 3951 3860 3695 3714 3602 3526 3555 3186 2493 2531 2131 2051 1900 2233 1762
1498 1558 1369 791 903 1704 1806 2142 2054 1556 893 822 771 723 662 635 659 736 812 870 1020 1114 1032 1461 1688 1932 2189 2958 2503 3047 3718 3538 3634 3292 3095 3120 2439 2413 1699 1546 1832 1873 1805
1376 1496 481 495 1296 1486 1888 1967 2048 1826 1715 728 979 730 668 511 560 589 694 810 867 806 840 1441 1566 1604 1812 2096 2140 2392 2328 2133 2701 3446 2830 2589 2904 2251 1334 990 1835 1657 1623
1459 1362 1116 888 1000 1188 1544 1708 1816 1575 1312 1012 1368 801 435 469 490 621 673 677 742 717 745 831 1300 1359 1330 1233 954 1313 1644 1384 1850 2751 2764 2411 2484 2197 1488 747 1202 1752 1706
1200 1291 1073 1014 985 971 1423 1515 1569 1529 1198 873 904 1092 1109 639 412 481 578 652 574 485 507 561 434 478 349 87 139 549 1001 1071 1774 2332 2340 2322 2012 2234 2041 1027 676 1322 1744
888 1154 1086 1052 986 1037 1489 1637 1397 1468 1295 958 734 530 359 452 568 457 423 479 368 327 259 291 260 59 2 86 277 617 751 1135 1364 1638 1643 1709 2043 1785 2376 1888 858 711 1028
1083 1142 1078 1076 1161 963 1162 1295 1305 1248 1340 692 629 490 426 311 151 190 191 214 204 240 210 202 106 256 126 0 461 645 732 994 1099 1290 1741 1016 1378 1845 2078 2851 2011 884 805
702 1128 870 1058 1020 928 1041 1148 1051 1333 1122 1335 795 508 367 308 237 65 86 160 176 80 139 324 307 274 152 284 573 698 827 999 1111 1224 1311 1063 994 1135 1138 2048 2709 2372 1305
365 546 750 920 925 929 970 1152 1136 782 1066 1177 984 538 363 399 273 299 317 355 293 157 328 377 323 333 478 627 729 789 816 931 1119 1412 1357 887 914 677 789 940 1912 2644 2831
250 356 491 639 806 1008 657 989 891 1156 877 807 766 965 401 383 503 713 574 374 253 184 266 309 430 614 772 801 828 1073 1261 1230 1428 1131 840 679 534 500 467 501 669 900 1315
227 294 397 587 754 807 908 932 1094 974 860 771 896 955 800 631 495 738 602 424 417 274 176 482 352 685 936 843 1344 1397 1308 1168 1349 1628 1077 495 389 439 506 1128 907 629 825
214 115 374 518 404 684 831 987 943 996 670 771 867 767 765 602 736 735 407 676 642 565 213 477 663 932 788 593 1149 1121 1176 1125 1132 1435 1180 1162 1253 1063 1081 1421 1442 1364 728
115 0 227 373 413 618 817 841 824 874 510 780 843 657 590 807 825 1006 858 794 838 674 431 369 559 777 626 774 769 899 1007 1062 851 1209 1178 1177 1263 1316 1210 989 749 843 749
31 0 0 73 462 746 800 619 746 841 837 487 572 619 585 626 666 647 634 757 617 548 457 357 434 607 660 821 867 493 373 489 1058 992 1117 1036 1062 1241 1052 659 764 882 695
22 50 124 90 417 491 744 741 538 481 517 678 563 624 627 704 617 714 477 625 500 633 868 511 363 538 653 853 735 285 65 721 475 743 960 1017 1125 1045 949 702 768 789 718
177 109 201 238 210 380 586 545 476 543 485 539 508 674 824 788 603 480 466 601 673 427 472 278 282 466 628 766 330 28 99 434 347 460 545 493 617 930 807 656 644 895 782
284 167 235 405 528 383 335 290 232 209 192 468 456 532 415 549 506 580 555 479 385 256 238 331 385 496 592 147 34 91 238 372 323 192 171 277 373 413 589 574 576 583 677
237 251 271 494 514 352 252 228 159 150 295 587 484 382 357 351 337 425 538 475 339 437 530 544 531 261 67 0 0 0 84 168 68 44 84 28 189 195 259 321 375 528 642
134 139 131 221 272 303 332 190 186 172 175 298 347 335 302 276 259 295 299 266 305 324 258 218 105 0 0 0 0 0 0 19 55 32 23 28 54 185 59 142 199 291 305
128 156 80 87 84 29 65 86 87 108 84 268 333 308 298 268 203 217 251 259 230 137 87 11 0 0 0 0 0 4 2 0 71 24 0 2 0 0 68 89 23 0 12
163 154 108 41 64 67 58 45 237 71 77 138 132 109 144 142 184 169 155 139 117 74 29 0 0 0 0 0 0 16 3 0 0 0 0 0 0 0 5 0 0 0 0
132 146 126 75 40 51 57 50 86 74 73 15 1 5 60 84 116 140 117 88 82 49 26 16 6 0 0 0 0 0 0 0 0 0 0 0 0 0 0 0 0 0 0